<?xml version="1.0" encoding="UTF-8" standalone="no" ?>
<gpx xmlns="http://www.topografix.com/GPX/1/1" xmlns:xsi="http://www.w3.org/2001/XMLSchema-instance" xsi:schemaLocation="http://www.topografix.com/GPX/1/1 http://www.topografix.com/GPX/1/1/gpx.xsd" version="1.1" creator="VisuGPX - https://www.visugpx.com">
  <metadata>
    <name>St Martin Boscherville 11Km3</name>
    <desc><![CDATA[Boucle A-R au départ de l'Abbaye.................................]]></desc>
  </metadata>
  <trk>
    <name><![CDATA[St Martin Boscherville 11Km3_1]]></name>
    <trkseg>
      <trkpt lat="49.44441" lon="0.96269">
        <ele>11</ele>
        <time>2017-01-21T13:58:52Z</time>
      </trkpt>
      <trkpt lat="49.44441" lon="0.9627">
        <ele>11</ele>
        <time>2017-01-21T13:58:52Z</time>
      </trkpt>
      <trkpt lat="49.44441" lon="0.96269">
        <ele>11</ele>
        <time>2017-01-21T13:58:52Z</time>
      </trkpt>
      <trkpt lat="49.44442" lon="0.96263">
        <ele>11</ele>
        <time>2017-01-21T13:58:52Z</time>
      </trkpt>
      <trkpt lat="49.44442" lon="0.96253">
        <ele>11</ele>
        <time>2017-01-21T13:58:52Z</time>
      </trkpt>
      <trkpt lat="49.44445" lon="0.96248">
        <ele>11</ele>
        <time>2017-01-21T14:00:08Z</time>
      </trkpt>
      <trkpt lat="49.44446" lon="0.96242">
        <ele>11</ele>
        <time>2017-01-21T14:00:08Z</time>
      </trkpt>
      <trkpt lat="49.44447" lon="0.96234">
        <ele>11</ele>
        <time>2017-01-21T14:00:08Z</time>
      </trkpt>
      <trkpt lat="49.44448" lon="0.96227">
        <ele>11</ele>
        <time>2017-01-21T14:00:08Z</time>
      </trkpt>
      <trkpt lat="49.4445" lon="0.96221">
        <ele>11</ele>
        <time>2017-01-21T14:00:08Z</time>
      </trkpt>
      <trkpt lat="49.44452" lon="0.96215">
        <ele>11</ele>
        <time>2017-01-21T14:00:25Z</time>
      </trkpt>
      <trkpt lat="49.44454" lon="0.96207">
        <ele>9</ele>
        <time>2017-01-21T14:00:25Z</time>
      </trkpt>
      <trkpt lat="49.44453" lon="0.962">
        <ele>9</ele>
        <time>2017-01-21T14:00:25Z</time>
      </trkpt>
      <trkpt lat="49.44456" lon="0.96193">
        <ele>9</ele>
        <time>2017-01-21T14:00:25Z</time>
      </trkpt>
      <trkpt lat="49.44458" lon="0.9619">
        <ele>8</ele>
        <time>2017-01-21T14:00:41Z</time>
      </trkpt>
      <trkpt lat="49.44463" lon="0.96188">
        <ele>8</ele>
        <time>2017-01-21T14:00:41Z</time>
      </trkpt>
      <trkpt lat="49.44464" lon="0.96183">
        <ele>8</ele>
        <time>2017-01-21T14:00:41Z</time>
      </trkpt>
      <trkpt lat="49.44465" lon="0.96176">
        <ele>8</ele>
        <time>2017-01-21T14:00:41Z</time>
      </trkpt>
      <trkpt lat="49.44465" lon="0.96166">
        <ele>8</ele>
        <time>2017-01-21T14:00:56Z</time>
      </trkpt>
      <trkpt lat="49.44464" lon="0.96158">
        <ele>8</ele>
        <time>2017-01-21T14:00:56Z</time>
      </trkpt>
      <trkpt lat="49.44466" lon="0.96151">
        <ele>8</ele>
        <time>2017-01-21T14:00:56Z</time>
      </trkpt>
      <trkpt lat="49.44468" lon="0.96144">
        <ele>8</ele>
        <time>2017-01-21T14:00:56Z</time>
      </trkpt>
      <trkpt lat="49.44468" lon="0.96137">
        <ele>8</ele>
        <time>2017-01-21T14:01:13Z</time>
      </trkpt>
      <trkpt lat="49.44469" lon="0.96127">
        <ele>8</ele>
        <time>2017-01-21T14:01:13Z</time>
      </trkpt>
      <trkpt lat="49.44469" lon="0.96127">
        <ele>8</ele>
        <time>2017-01-21T14:01:13Z</time>
      </trkpt>
      <trkpt lat="49.4447" lon="0.96123">
        <ele>6</ele>
        <time>2017-01-21T14:01:13Z</time>
      </trkpt>
      <trkpt lat="49.4447" lon="0.96117">
        <ele>6</ele>
        <time>2017-01-21T14:01:29Z</time>
      </trkpt>
      <trkpt lat="49.4447" lon="0.96108">
        <ele>6</ele>
        <time>2017-01-21T14:01:29Z</time>
      </trkpt>
      <trkpt lat="49.44471" lon="0.96098">
        <ele>6</ele>
        <time>2017-01-21T14:01:29Z</time>
      </trkpt>
      <trkpt lat="49.44472" lon="0.96084">
        <ele>6</ele>
        <time>2017-01-21T14:01:29Z</time>
      </trkpt>
      <trkpt lat="49.44473" lon="0.9608">
        <ele>6</ele>
        <time>2017-01-21T14:01:45Z</time>
      </trkpt>
      <trkpt lat="49.44475" lon="0.96071">
        <ele>6</ele>
        <time>2017-01-21T14:01:45Z</time>
      </trkpt>
      <trkpt lat="49.44478" lon="0.96062">
        <ele>6</ele>
        <time>2017-01-21T14:01:45Z</time>
      </trkpt>
      <trkpt lat="49.44479" lon="0.9606">
        <ele>6</ele>
        <time>2017-01-21T14:01:45Z</time>
      </trkpt>
      <trkpt lat="49.44482" lon="0.96054">
        <ele>6</ele>
        <time>2017-01-21T14:02:01Z</time>
      </trkpt>
      <trkpt lat="49.44483" lon="0.96046">
        <ele>6</ele>
        <time>2017-01-21T14:02:01Z</time>
      </trkpt>
      <trkpt lat="49.44485" lon="0.9604">
        <ele>4</ele>
        <time>2017-01-21T14:02:01Z</time>
      </trkpt>
      <trkpt lat="49.44488" lon="0.96036">
        <ele>4</ele>
        <time>2017-01-21T14:02:01Z</time>
      </trkpt>
      <trkpt lat="49.4449" lon="0.96029">
        <ele>4</ele>
        <time>2017-01-21T14:02:17Z</time>
      </trkpt>
      <trkpt lat="49.44493" lon="0.96014">
        <ele>4</ele>
        <time>2017-01-21T14:02:17Z</time>
      </trkpt>
      <trkpt lat="49.44494" lon="0.96007">
        <ele>4</ele>
        <time>2017-01-21T14:02:17Z</time>
      </trkpt>
      <trkpt lat="49.44497" lon="0.95999">
        <ele>4</ele>
        <time>2017-01-21T14:02:17Z</time>
      </trkpt>
      <trkpt lat="49.44502" lon="0.9599">
        <ele>4</ele>
        <time>2017-01-21T14:02:32Z</time>
      </trkpt>
      <trkpt lat="49.44503" lon="0.95991">
        <ele>4</ele>
        <time>2017-01-21T14:02:32Z</time>
      </trkpt>
      <trkpt lat="49.44506" lon="0.95978">
        <ele>4</ele>
        <time>2017-01-21T14:02:32Z</time>
      </trkpt>
      <trkpt lat="49.4451" lon="0.9597">
        <ele>4</ele>
        <time>2017-01-21T14:02:32Z</time>
      </trkpt>
      <trkpt lat="49.44511" lon="0.95967">
        <ele>4</ele>
        <time>2017-01-21T14:02:49Z</time>
      </trkpt>
      <trkpt lat="49.44514" lon="0.95962">
        <ele>4</ele>
        <time>2017-01-21T14:02:49Z</time>
      </trkpt>
      <trkpt lat="49.44516" lon="0.95954">
        <ele>2</ele>
        <time>2017-01-21T14:02:49Z</time>
      </trkpt>
      <trkpt lat="49.44519" lon="0.95946">
        <ele>2</ele>
        <time>2017-01-21T14:02:49Z</time>
      </trkpt>
      <trkpt lat="49.44522" lon="0.95942">
        <ele>2</ele>
        <time>2017-01-21T14:03:05Z</time>
      </trkpt>
      <trkpt lat="49.44525" lon="0.95934">
        <ele>2</ele>
        <time>2017-01-21T14:03:05Z</time>
      </trkpt>
      <trkpt lat="49.44527" lon="0.95927">
        <ele>2</ele>
        <time>2017-01-21T14:03:05Z</time>
      </trkpt>
      <trkpt lat="49.44527" lon="0.9592">
        <ele>2</ele>
        <time>2017-01-21T14:03:05Z</time>
      </trkpt>
      <trkpt lat="49.4453" lon="0.95912">
        <ele>2</ele>
        <time>2017-01-21T14:03:21Z</time>
      </trkpt>
      <trkpt lat="49.44532" lon="0.95904">
        <ele>2</ele>
        <time>2017-01-21T14:03:21Z</time>
      </trkpt>
      <trkpt lat="49.44532" lon="0.95901">
        <ele>2</ele>
        <time>2017-01-21T14:03:21Z</time>
      </trkpt>
      <trkpt lat="49.44534" lon="0.95891">
        <ele>2</ele>
        <time>2017-01-21T14:03:21Z</time>
      </trkpt>
      <trkpt lat="49.44536" lon="0.95887">
        <ele>2</ele>
        <time>2017-01-21T14:03:37Z</time>
      </trkpt>
      <trkpt lat="49.44536" lon="0.95874">
        <ele>3</ele>
        <time>2017-01-21T14:03:37Z</time>
      </trkpt>
      <trkpt lat="49.44536" lon="0.95867">
        <ele>3</ele>
        <time>2017-01-21T14:03:37Z</time>
      </trkpt>
      <trkpt lat="49.44537" lon="0.9586">
        <ele>3</ele>
        <time>2017-01-21T14:03:37Z</time>
      </trkpt>
      <trkpt lat="49.44539" lon="0.95852">
        <ele>3</ele>
        <time>2017-01-21T14:03:52Z</time>
      </trkpt>
      <trkpt lat="49.4454" lon="0.95844">
        <ele>3</ele>
        <time>2017-01-21T14:03:52Z</time>
      </trkpt>
      <trkpt lat="49.4454" lon="0.95834">
        <ele>3</ele>
        <time>2017-01-21T14:03:52Z</time>
      </trkpt>
      <trkpt lat="49.4454" lon="0.95827">
        <ele>3</ele>
        <time>2017-01-21T14:03:52Z</time>
      </trkpt>
      <trkpt lat="49.44541" lon="0.95824">
        <ele>3</ele>
        <time>2017-01-21T14:04:09Z</time>
      </trkpt>
      <trkpt lat="49.44543" lon="0.95816">
        <ele>2</ele>
        <time>2017-01-21T14:04:09Z</time>
      </trkpt>
      <trkpt lat="49.44546" lon="0.95805">
        <ele>2</ele>
        <time>2017-01-21T14:04:09Z</time>
      </trkpt>
      <trkpt lat="49.44547" lon="0.95799">
        <ele>2</ele>
        <time>2017-01-21T14:04:09Z</time>
      </trkpt>
      <trkpt lat="49.44548" lon="0.95791">
        <ele>1</ele>
        <time>2017-01-21T14:04:24Z</time>
      </trkpt>
      <trkpt lat="49.44548" lon="0.95781">
        <ele>1</ele>
        <time>2017-01-21T14:04:24Z</time>
      </trkpt>
      <trkpt lat="49.44548" lon="0.95776">
        <ele>1</ele>
        <time>2017-01-21T14:04:24Z</time>
      </trkpt>
      <trkpt lat="49.44546" lon="0.9577">
        <ele>1</ele>
        <time>2017-01-21T14:04:24Z</time>
      </trkpt>
      <trkpt lat="49.44545" lon="0.95768">
        <ele>1</ele>
        <time>2017-01-21T14:04:41Z</time>
      </trkpt>
      <trkpt lat="49.44547" lon="0.95762">
        <ele>1</ele>
        <time>2017-01-21T14:04:41Z</time>
      </trkpt>
      <trkpt lat="49.44548" lon="0.95753">
        <ele>1</ele>
        <time>2017-01-21T14:04:41Z</time>
      </trkpt>
      <trkpt lat="49.44549" lon="0.95746">
        <ele>1</ele>
        <time>2017-01-21T14:04:41Z</time>
      </trkpt>
      <trkpt lat="49.44551" lon="0.95738">
        <ele>1</ele>
        <time>2017-01-21T14:04:57Z</time>
      </trkpt>
      <trkpt lat="49.44552" lon="0.9573">
        <ele>1</ele>
        <time>2017-01-21T14:04:57Z</time>
      </trkpt>
      <trkpt lat="49.44551" lon="0.95722">
        <ele>1</ele>
        <time>2017-01-21T14:04:57Z</time>
      </trkpt>
      <trkpt lat="49.44551" lon="0.95714">
        <ele>1</ele>
        <time>2017-01-21T14:04:57Z</time>
      </trkpt>
      <trkpt lat="49.44552" lon="0.95702">
        <ele>1</ele>
        <time>2017-01-21T14:05:13Z</time>
      </trkpt>
      <trkpt lat="49.44552" lon="0.95698">
        <ele>1</ele>
        <time>2017-01-21T14:05:14Z</time>
      </trkpt>
      <trkpt lat="49.44553" lon="0.95685">
        <ele>1</ele>
        <time>2017-01-21T14:05:14Z</time>
      </trkpt>
      <trkpt lat="49.44552" lon="0.95677">
        <ele>1</ele>
        <time>2017-01-21T14:05:14Z</time>
      </trkpt>
      <trkpt lat="49.44553" lon="0.95668">
        <ele>1</ele>
        <time>2017-01-21T14:05:29Z</time>
      </trkpt>
      <trkpt lat="49.44553" lon="0.95659">
        <ele>1</ele>
        <time>2017-01-21T14:05:29Z</time>
      </trkpt>
      <trkpt lat="49.44554" lon="0.95657">
        <ele>1</ele>
        <time>2017-01-21T14:05:30Z</time>
      </trkpt>
      <trkpt lat="49.44556" lon="0.95647">
        <ele>1</ele>
        <time>2017-01-21T14:05:30Z</time>
      </trkpt>
      <trkpt lat="49.44556" lon="0.95639">
        <ele>1</ele>
        <time>2017-01-21T14:05:44Z</time>
      </trkpt>
      <trkpt lat="49.44557" lon="0.95628">
        <ele>1</ele>
        <time>2017-01-21T14:05:44Z</time>
      </trkpt>
      <trkpt lat="49.44556" lon="0.95622">
        <ele>2</ele>
        <time>2017-01-21T14:05:44Z</time>
      </trkpt>
      <trkpt lat="49.44556" lon="0.95613">
        <ele>2</ele>
        <time>2017-01-21T14:05:44Z</time>
      </trkpt>
      <trkpt lat="49.44556" lon="0.95609">
        <ele>2</ele>
        <time>2017-01-21T14:06:01Z</time>
      </trkpt>
      <trkpt lat="49.44559" lon="0.95602">
        <ele>2</ele>
        <time>2017-01-21T14:06:01Z</time>
      </trkpt>
      <trkpt lat="49.4456" lon="0.95591">
        <ele>2</ele>
        <time>2017-01-21T14:06:01Z</time>
      </trkpt>
      <trkpt lat="49.4456" lon="0.95584">
        <ele>2</ele>
        <time>2017-01-21T14:06:01Z</time>
      </trkpt>
      <trkpt lat="49.44563" lon="0.95577">
        <ele>2</ele>
        <time>2017-01-21T14:06:18Z</time>
      </trkpt>
      <trkpt lat="49.44566" lon="0.9557">
        <ele>2</ele>
        <time>2017-01-21T14:06:18Z</time>
      </trkpt>
      <trkpt lat="49.44568" lon="0.95561">
        <ele>2</ele>
        <time>2017-01-21T14:06:18Z</time>
      </trkpt>
      <trkpt lat="49.4457" lon="0.95552">
        <ele>2</ele>
        <time>2017-01-21T14:06:18Z</time>
      </trkpt>
      <trkpt lat="49.44572" lon="0.95543">
        <ele>2</ele>
        <time>2017-01-21T14:06:32Z</time>
      </trkpt>
      <trkpt lat="49.44573" lon="0.95535">
        <ele>3</ele>
        <time>2017-01-21T14:06:32Z</time>
      </trkpt>
      <trkpt lat="49.44576" lon="0.9553">
        <ele>3</ele>
        <time>2017-01-21T14:06:32Z</time>
      </trkpt>
      <trkpt lat="49.44578" lon="0.95526">
        <ele>3</ele>
        <time>2017-01-21T14:06:32Z</time>
      </trkpt>
      <trkpt lat="49.44583" lon="0.95521">
        <ele>3</ele>
        <time>2017-01-21T14:06:48Z</time>
      </trkpt>
      <trkpt lat="49.44586" lon="0.95517">
        <ele>3</ele>
        <time>2017-01-21T14:06:49Z</time>
      </trkpt>
      <trkpt lat="49.44591" lon="0.95513">
        <ele>3</ele>
        <time>2017-01-21T14:06:49Z</time>
      </trkpt>
      <trkpt lat="49.44594" lon="0.9551">
        <ele>3</ele>
        <time>2017-01-21T14:06:49Z</time>
      </trkpt>
      <trkpt lat="49.44597" lon="0.95508">
        <ele>3</ele>
        <time>2017-01-21T14:07:04Z</time>
      </trkpt>
      <trkpt lat="49.446" lon="0.95507">
        <ele>3</ele>
        <time>2017-01-21T14:07:04Z</time>
      </trkpt>
      <trkpt lat="49.44607" lon="0.95505">
        <ele>3</ele>
        <time>2017-01-21T14:07:04Z</time>
      </trkpt>
      <trkpt lat="49.44611" lon="0.95504">
        <ele>3</ele>
        <time>2017-01-21T14:07:04Z</time>
      </trkpt>
      <trkpt lat="49.44617" lon="0.95502">
        <ele>3</ele>
        <time>2017-01-21T14:07:20Z</time>
      </trkpt>
      <trkpt lat="49.44623" lon="0.955">
        <ele>3</ele>
        <time>2017-01-21T14:07:20Z</time>
      </trkpt>
      <trkpt lat="49.44629" lon="0.95499">
        <ele>4</ele>
        <time>2017-01-21T14:07:20Z</time>
      </trkpt>
      <trkpt lat="49.44635" lon="0.95496">
        <ele>4</ele>
        <time>2017-01-21T14:07:20Z</time>
      </trkpt>
      <trkpt lat="49.44642" lon="0.9549">
        <ele>4</ele>
        <time>2017-01-21T14:07:36Z</time>
      </trkpt>
      <trkpt lat="49.44649" lon="0.95489">
        <ele>4</ele>
        <time>2017-01-21T14:07:36Z</time>
      </trkpt>
      <trkpt lat="49.44654" lon="0.95485">
        <ele>4</ele>
        <time>2017-01-21T14:07:36Z</time>
      </trkpt>
      <trkpt lat="49.4466" lon="0.95482">
        <ele>4</ele>
        <time>2017-01-21T14:07:36Z</time>
      </trkpt>
      <trkpt lat="49.44664" lon="0.95479">
        <ele>4</ele>
        <time>2017-01-21T14:07:53Z</time>
      </trkpt>
      <trkpt lat="49.44668" lon="0.95472">
        <ele>4</ele>
        <time>2017-01-21T14:07:53Z</time>
      </trkpt>
      <trkpt lat="49.44672" lon="0.95467">
        <ele>4</ele>
        <time>2017-01-21T14:07:53Z</time>
      </trkpt>
      <trkpt lat="49.44677" lon="0.95463">
        <ele>4</ele>
        <time>2017-01-21T14:07:53Z</time>
      </trkpt>
      <trkpt lat="49.44681" lon="0.9546">
        <ele>4</ele>
        <time>2017-01-21T14:08:13Z</time>
      </trkpt>
      <trkpt lat="49.44685" lon="0.95454">
        <ele>5</ele>
        <time>2017-01-21T14:08:13Z</time>
      </trkpt>
      <trkpt lat="49.44696" lon="0.95437">
        <ele>5</ele>
        <time>2017-01-21T14:08:13Z</time>
      </trkpt>
      <trkpt lat="49.44698" lon="0.95433">
        <ele>5</ele>
        <time>2017-01-21T14:08:13Z</time>
      </trkpt>
      <trkpt lat="49.44704" lon="0.95425">
        <ele>5</ele>
        <time>2017-01-21T14:08:28Z</time>
      </trkpt>
      <trkpt lat="49.44708" lon="0.95419">
        <ele>5</ele>
        <time>2017-01-21T14:08:28Z</time>
      </trkpt>
      <trkpt lat="49.44709" lon="0.95416">
        <ele>5</ele>
        <time>2017-01-21T14:08:28Z</time>
      </trkpt>
      <trkpt lat="49.44711" lon="0.95414">
        <ele>5</ele>
        <time>2017-01-21T14:08:28Z</time>
      </trkpt>
      <trkpt lat="49.44713" lon="0.9541">
        <ele>5</ele>
        <time>2017-01-21T14:08:46Z</time>
      </trkpt>
      <trkpt lat="49.44717" lon="0.95405">
        <ele>5</ele>
        <time>2017-01-21T14:08:46Z</time>
      </trkpt>
      <trkpt lat="49.4472" lon="0.954">
        <ele>5</ele>
        <time>2017-01-21T14:08:46Z</time>
      </trkpt>
      <trkpt lat="49.44724" lon="0.95397">
        <ele>5</ele>
        <time>2017-01-21T14:08:46Z</time>
      </trkpt>
      <trkpt lat="49.44727" lon="0.95392">
        <ele>5</ele>
        <time>2017-01-21T14:09:00Z</time>
      </trkpt>
      <trkpt lat="49.44731" lon="0.95386">
        <ele>5</ele>
        <time>2017-01-21T14:09:00Z</time>
      </trkpt>
      <trkpt lat="49.44734" lon="0.9538">
        <ele>5</ele>
        <time>2017-01-21T14:09:00Z</time>
      </trkpt>
      <trkpt lat="49.44735" lon="0.95376">
        <ele>5</ele>
        <time>2017-01-21T14:09:00Z</time>
      </trkpt>
      <trkpt lat="49.44737" lon="0.95369">
        <ele>5</ele>
        <time>2017-01-21T14:09:17Z</time>
      </trkpt>
      <trkpt lat="49.44742" lon="0.95354">
        <ele>5</ele>
        <time>2017-01-21T14:09:17Z</time>
      </trkpt>
      <trkpt lat="49.44743" lon="0.95352">
        <ele>5</ele>
        <time>2017-01-21T14:09:17Z</time>
      </trkpt>
      <trkpt lat="49.44746" lon="0.95336">
        <ele>5</ele>
        <time>2017-01-21T14:09:17Z</time>
      </trkpt>
      <trkpt lat="49.44747" lon="0.9533">
        <ele>5</ele>
        <time>2017-01-21T14:09:33Z</time>
      </trkpt>
      <trkpt lat="49.4475" lon="0.95317">
        <ele>5</ele>
        <time>2017-01-21T14:09:33Z</time>
      </trkpt>
      <trkpt lat="49.44751" lon="0.95311">
        <ele>5</ele>
        <time>2017-01-21T14:09:33Z</time>
      </trkpt>
      <trkpt lat="49.44752" lon="0.95305">
        <ele>5</ele>
        <time>2017-01-21T14:09:33Z</time>
      </trkpt>
      <trkpt lat="49.44753" lon="0.95297">
        <ele>5</ele>
        <time>2017-01-21T14:09:49Z</time>
      </trkpt>
      <trkpt lat="49.44755" lon="0.95289">
        <ele>5</ele>
        <time>2017-01-21T14:09:49Z</time>
      </trkpt>
      <trkpt lat="49.44757" lon="0.95282">
        <ele>5</ele>
        <time>2017-01-21T14:09:49Z</time>
      </trkpt>
      <trkpt lat="49.44758" lon="0.95274">
        <ele>5</ele>
        <time>2017-01-21T14:09:49Z</time>
      </trkpt>
      <trkpt lat="49.44761" lon="0.95265">
        <ele>5</ele>
        <time>2017-01-21T14:10:04Z</time>
      </trkpt>
      <trkpt lat="49.44763" lon="0.95259">
        <ele>5</ele>
        <time>2017-01-21T14:10:04Z</time>
      </trkpt>
      <trkpt lat="49.44767" lon="0.9525">
        <ele>5</ele>
        <time>2017-01-21T14:10:04Z</time>
      </trkpt>
      <trkpt lat="49.4477" lon="0.95245">
        <ele>5</ele>
        <time>2017-01-21T14:10:04Z</time>
      </trkpt>
      <trkpt lat="49.44772" lon="0.95237">
        <ele>5</ele>
        <time>2017-01-21T14:10:20Z</time>
      </trkpt>
      <trkpt lat="49.44775" lon="0.95233">
        <ele>5</ele>
        <time>2017-01-21T14:10:20Z</time>
      </trkpt>
      <trkpt lat="49.44776" lon="0.95226">
        <ele>5</ele>
        <time>2017-01-21T14:10:20Z</time>
      </trkpt>
      <trkpt lat="49.44778" lon="0.95224">
        <ele>5</ele>
        <time>2017-01-21T14:10:20Z</time>
      </trkpt>
      <trkpt lat="49.44784" lon="0.95215">
        <ele>5</ele>
        <time>2017-01-21T14:10:38Z</time>
      </trkpt>
      <trkpt lat="49.44787" lon="0.95207">
        <ele>4</ele>
        <time>2017-01-21T14:10:38Z</time>
      </trkpt>
      <trkpt lat="49.44789" lon="0.95202">
        <ele>4</ele>
        <time>2017-01-21T14:10:38Z</time>
      </trkpt>
      <trkpt lat="49.44792" lon="0.95196">
        <ele>3</ele>
        <time>2017-01-21T14:10:38Z</time>
      </trkpt>
      <trkpt lat="49.44795" lon="0.95186">
        <ele>3</ele>
        <time>2017-01-21T14:10:53Z</time>
      </trkpt>
      <trkpt lat="49.44796" lon="0.9518">
        <ele>3</ele>
        <time>2017-01-21T14:10:53Z</time>
      </trkpt>
      <trkpt lat="49.44798" lon="0.95174">
        <ele>3</ele>
        <time>2017-01-21T14:10:53Z</time>
      </trkpt>
      <trkpt lat="49.448" lon="0.95171">
        <ele>3</ele>
        <time>2017-01-21T14:10:53Z</time>
      </trkpt>
      <trkpt lat="49.44803" lon="0.95163">
        <ele>3</ele>
        <time>2017-01-21T14:11:12Z</time>
      </trkpt>
      <trkpt lat="49.44807" lon="0.95149">
        <ele>3</ele>
        <time>2017-01-21T14:11:12Z</time>
      </trkpt>
      <trkpt lat="49.4481" lon="0.95141">
        <ele>3</ele>
        <time>2017-01-21T14:11:12Z</time>
      </trkpt>
      <trkpt lat="49.44813" lon="0.95136">
        <ele>3</ele>
        <time>2017-01-21T14:11:12Z</time>
      </trkpt>
      <trkpt lat="49.44817" lon="0.95124">
        <ele>2</ele>
        <time>2017-01-21T14:11:29Z</time>
      </trkpt>
      <trkpt lat="49.44819" lon="0.95118">
        <ele>2</ele>
        <time>2017-01-21T14:11:29Z</time>
      </trkpt>
      <trkpt lat="49.44822" lon="0.9511">
        <ele>2</ele>
        <time>2017-01-21T14:11:29Z</time>
      </trkpt>
      <trkpt lat="49.44825" lon="0.95101">
        <ele>2</ele>
        <time>2017-01-21T14:11:29Z</time>
      </trkpt>
      <trkpt lat="49.44828" lon="0.95096">
        <ele>2</ele>
        <time>2017-01-21T14:11:44Z</time>
      </trkpt>
      <trkpt lat="49.44832" lon="0.95091">
        <ele>2</ele>
        <time>2017-01-21T14:11:44Z</time>
      </trkpt>
      <trkpt lat="49.44835" lon="0.95088">
        <ele>2</ele>
        <time>2017-01-21T14:11:44Z</time>
      </trkpt>
      <trkpt lat="49.4484" lon="0.95078">
        <ele>2</ele>
        <time>2017-01-21T14:11:44Z</time>
      </trkpt>
      <trkpt lat="49.44844" lon="0.95067">
        <ele>2</ele>
        <time>2017-01-21T14:12:00Z</time>
      </trkpt>
      <trkpt lat="49.44847" lon="0.95061">
        <ele>2</ele>
        <time>2017-01-21T14:12:00Z</time>
      </trkpt>
      <trkpt lat="49.44849" lon="0.95056">
        <ele>2</ele>
        <time>2017-01-21T14:12:00Z</time>
      </trkpt>
      <trkpt lat="49.44853" lon="0.95049">
        <ele>2</ele>
        <time>2017-01-21T14:12:00Z</time>
      </trkpt>
      <trkpt lat="49.44858" lon="0.95044">
        <ele>2</ele>
        <time>2017-01-21T14:12:16Z</time>
      </trkpt>
      <trkpt lat="49.44859" lon="0.95044">
        <ele>2</ele>
        <time>2017-01-21T14:12:16Z</time>
      </trkpt>
      <trkpt lat="49.44864" lon="0.95044">
        <ele>2</ele>
        <time>2017-01-21T14:12:16Z</time>
      </trkpt>
      <trkpt lat="49.4487" lon="0.95038">
        <ele>3</ele>
        <time>2017-01-21T14:12:16Z</time>
      </trkpt>
      <trkpt lat="49.44873" lon="0.95033">
        <ele>3</ele>
        <time>2017-01-21T14:12:33Z</time>
      </trkpt>
      <trkpt lat="49.44875" lon="0.9503">
        <ele>3</ele>
        <time>2017-01-21T14:12:33Z</time>
      </trkpt>
      <trkpt lat="49.4488" lon="0.95023">
        <ele>3</ele>
        <time>2017-01-21T14:12:33Z</time>
      </trkpt>
      <trkpt lat="49.44884" lon="0.95018">
        <ele>3</ele>
        <time>2017-01-21T14:12:33Z</time>
      </trkpt>
      <trkpt lat="49.4489" lon="0.95007">
        <ele>3</ele>
        <time>2017-01-21T14:12:54Z</time>
      </trkpt>
      <trkpt lat="49.44893" lon="0.95">
        <ele>3</ele>
        <time>2017-01-21T14:12:54Z</time>
      </trkpt>
      <trkpt lat="49.44896" lon="0.94993">
        <ele>3</ele>
        <time>2017-01-21T14:12:54Z</time>
      </trkpt>
      <trkpt lat="49.44897" lon="0.94985">
        <ele>3</ele>
        <time>2017-01-21T14:12:54Z</time>
      </trkpt>
      <trkpt lat="49.44899" lon="0.94979">
        <ele>3</ele>
        <time>2017-01-21T14:13:08Z</time>
      </trkpt>
      <trkpt lat="49.449" lon="0.94975">
        <ele>3</ele>
        <time>2017-01-21T14:13:08Z</time>
      </trkpt>
      <trkpt lat="49.44904" lon="0.94963">
        <ele>3</ele>
        <time>2017-01-21T14:13:08Z</time>
      </trkpt>
      <trkpt lat="49.44906" lon="0.94957">
        <ele>4</ele>
        <time>2017-01-21T14:13:08Z</time>
      </trkpt>
      <trkpt lat="49.44907" lon="0.9495">
        <ele>4</ele>
        <time>2017-01-21T14:13:25Z</time>
      </trkpt>
      <trkpt lat="49.44911" lon="0.94945">
        <ele>4</ele>
        <time>2017-01-21T14:13:26Z</time>
      </trkpt>
      <trkpt lat="49.44914" lon="0.94939">
        <ele>4</ele>
        <time>2017-01-21T14:13:26Z</time>
      </trkpt>
      <trkpt lat="49.44916" lon="0.94936">
        <ele>4</ele>
        <time>2017-01-21T14:13:26Z</time>
      </trkpt>
      <trkpt lat="49.44919" lon="0.94931">
        <ele>4</ele>
        <time>2017-01-21T14:13:40Z</time>
      </trkpt>
      <trkpt lat="49.44924" lon="0.94923">
        <ele>4</ele>
        <time>2017-01-21T14:13:41Z</time>
      </trkpt>
      <trkpt lat="49.44928" lon="0.94915">
        <ele>4</ele>
        <time>2017-01-21T14:13:41Z</time>
      </trkpt>
      <trkpt lat="49.44933" lon="0.94911">
        <ele>4</ele>
        <time>2017-01-21T14:13:41Z</time>
      </trkpt>
      <trkpt lat="49.44937" lon="0.94905">
        <ele>4</ele>
        <time>2017-01-21T14:13:56Z</time>
      </trkpt>
      <trkpt lat="49.44942" lon="0.94902">
        <ele>4</ele>
        <time>2017-01-21T14:13:56Z</time>
      </trkpt>
      <trkpt lat="49.44948" lon="0.94897">
        <ele>4</ele>
        <time>2017-01-21T14:13:56Z</time>
      </trkpt>
      <trkpt lat="49.44952" lon="0.94897">
        <ele>4</ele>
        <time>2017-01-21T14:13:56Z</time>
      </trkpt>
      <trkpt lat="49.44956" lon="0.94895">
        <ele>4</ele>
        <time>2017-01-21T14:14:13Z</time>
      </trkpt>
      <trkpt lat="49.4496" lon="0.94895">
        <ele>4</ele>
        <time>2017-01-21T14:14:13Z</time>
      </trkpt>
      <trkpt lat="49.44965" lon="0.94894">
        <ele>4</ele>
        <time>2017-01-21T14:14:13Z</time>
      </trkpt>
      <trkpt lat="49.44969" lon="0.94894">
        <ele>4</ele>
        <time>2017-01-21T14:14:13Z</time>
      </trkpt>
      <trkpt lat="49.44974" lon="0.94891">
        <ele>4</ele>
        <time>2017-01-21T14:14:28Z</time>
      </trkpt>
      <trkpt lat="49.44976" lon="0.9489">
        <ele>4</ele>
        <time>2017-01-21T14:14:28Z</time>
      </trkpt>
      <trkpt lat="49.44983" lon="0.94886">
        <ele>4</ele>
        <time>2017-01-21T14:14:28Z</time>
      </trkpt>
      <trkpt lat="49.44987" lon="0.94881">
        <ele>4</ele>
        <time>2017-01-21T14:14:28Z</time>
      </trkpt>
      <trkpt lat="49.44991" lon="0.94879">
        <ele>4</ele>
        <time>2017-01-21T14:14:46Z</time>
      </trkpt>
      <trkpt lat="49.44995" lon="0.94874">
        <ele>4</ele>
        <time>2017-01-21T14:14:46Z</time>
      </trkpt>
      <trkpt lat="49.44998" lon="0.94873">
        <ele>4</ele>
        <time>2017-01-21T14:14:46Z</time>
      </trkpt>
      <trkpt lat="49.45003" lon="0.94865">
        <ele>4</ele>
        <time>2017-01-21T14:14:46Z</time>
      </trkpt>
      <trkpt lat="49.45009" lon="0.94853">
        <ele>4</ele>
        <time>2017-01-21T14:15:04Z</time>
      </trkpt>
      <trkpt lat="49.45014" lon="0.94848">
        <ele>4</ele>
        <time>2017-01-21T14:15:04Z</time>
      </trkpt>
      <trkpt lat="49.45017" lon="0.94842">
        <ele>4</ele>
        <time>2017-01-21T14:15:04Z</time>
      </trkpt>
      <trkpt lat="49.4502" lon="0.94836">
        <ele>4</ele>
        <time>2017-01-21T14:15:04Z</time>
      </trkpt>
      <trkpt lat="49.45024" lon="0.94828">
        <ele>4</ele>
        <time>2017-01-21T14:15:25Z</time>
      </trkpt>
      <trkpt lat="49.45027" lon="0.94822">
        <ele>4</ele>
        <time>2017-01-21T14:15:26Z</time>
      </trkpt>
      <trkpt lat="49.45034" lon="0.94811">
        <ele>4</ele>
        <time>2017-01-21T14:15:26Z</time>
      </trkpt>
      <trkpt lat="49.45038" lon="0.94806">
        <ele>4</ele>
        <time>2017-01-21T14:15:26Z</time>
      </trkpt>
      <trkpt lat="49.45043" lon="0.94802">
        <ele>4</ele>
        <time>2017-01-21T14:15:42Z</time>
      </trkpt>
      <trkpt lat="49.45047" lon="0.94798">
        <ele>4</ele>
        <time>2017-01-21T14:15:42Z</time>
      </trkpt>
      <trkpt lat="49.45049" lon="0.94793">
        <ele>4</ele>
        <time>2017-01-21T14:15:42Z</time>
      </trkpt>
      <trkpt lat="49.45053" lon="0.94789">
        <ele>4</ele>
        <time>2017-01-21T14:15:42Z</time>
      </trkpt>
      <trkpt lat="49.45058" lon="0.94777">
        <ele>4</ele>
        <time>2017-01-21T14:16:02Z</time>
      </trkpt>
      <trkpt lat="49.45063" lon="0.94772">
        <ele>4</ele>
        <time>2017-01-21T14:16:02Z</time>
      </trkpt>
      <trkpt lat="49.45065" lon="0.94771">
        <ele>4</ele>
        <time>2017-01-21T14:16:02Z</time>
      </trkpt>
      <trkpt lat="49.45069" lon="0.94762">
        <ele>4</ele>
        <time>2017-01-21T14:16:02Z</time>
      </trkpt>
      <trkpt lat="49.45071" lon="0.94756">
        <ele>4</ele>
        <time>2017-01-21T14:16:17Z</time>
      </trkpt>
      <trkpt lat="49.45074" lon="0.94749">
        <ele>4</ele>
        <time>2017-01-21T14:16:17Z</time>
      </trkpt>
      <trkpt lat="49.45076" lon="0.94744">
        <ele>4</ele>
        <time>2017-01-21T14:16:17Z</time>
      </trkpt>
      <trkpt lat="49.45078" lon="0.94737">
        <ele>4</ele>
        <time>2017-01-21T14:16:17Z</time>
      </trkpt>
      <trkpt lat="49.4508" lon="0.94725">
        <ele>4</ele>
        <time>2017-01-21T14:16:33Z</time>
      </trkpt>
      <trkpt lat="49.4508" lon="0.94717">
        <ele>4</ele>
        <time>2017-01-21T14:16:33Z</time>
      </trkpt>
      <trkpt lat="49.45081" lon="0.94709">
        <ele>4</ele>
        <time>2017-01-21T14:16:33Z</time>
      </trkpt>
      <trkpt lat="49.4508" lon="0.947">
        <ele>3</ele>
        <time>2017-01-21T14:16:33Z</time>
      </trkpt>
      <trkpt lat="49.45081" lon="0.94689">
        <ele>3</ele>
        <time>2017-01-21T14:16:50Z</time>
      </trkpt>
      <trkpt lat="49.4508" lon="0.94685">
        <ele>3</ele>
        <time>2017-01-21T14:16:50Z</time>
      </trkpt>
      <trkpt lat="49.45079" lon="0.94675">
        <ele>3</ele>
        <time>2017-01-21T14:16:50Z</time>
      </trkpt>
      <trkpt lat="49.45079" lon="0.94669">
        <ele>3</ele>
        <time>2017-01-21T14:16:50Z</time>
      </trkpt>
      <trkpt lat="49.45077" lon="0.94663">
        <ele>3</ele>
        <time>2017-01-21T14:17:04Z</time>
      </trkpt>
      <trkpt lat="49.45076" lon="0.9466">
        <ele>3</ele>
        <time>2017-01-21T14:17:04Z</time>
      </trkpt>
      <trkpt lat="49.45074" lon="0.9465">
        <ele>3</ele>
        <time>2017-01-21T14:17:04Z</time>
      </trkpt>
      <trkpt lat="49.45071" lon="0.94644">
        <ele>3</ele>
        <time>2017-01-21T14:17:04Z</time>
      </trkpt>
      <trkpt lat="49.45069" lon="0.94638">
        <ele>3</ele>
        <time>2017-01-21T14:17:21Z</time>
      </trkpt>
      <trkpt lat="49.45068" lon="0.94634">
        <ele>3</ele>
        <time>2017-01-21T14:17:21Z</time>
      </trkpt>
      <trkpt lat="49.45065" lon="0.94624">
        <ele>3</ele>
        <time>2017-01-21T14:17:21Z</time>
      </trkpt>
      <trkpt lat="49.45063" lon="0.94618">
        <ele>3</ele>
        <time>2017-01-21T14:17:21Z</time>
      </trkpt>
      <trkpt lat="49.4506" lon="0.946">
        <ele>3</ele>
        <time>2017-01-21T14:17:41Z</time>
      </trkpt>
      <trkpt lat="49.45059" lon="0.94591">
        <ele>3</ele>
        <time>2017-01-21T14:17:41Z</time>
      </trkpt>
      <trkpt lat="49.45059" lon="0.94585">
        <ele>3</ele>
        <time>2017-01-21T14:17:41Z</time>
      </trkpt>
      <trkpt lat="49.45059" lon="0.94577">
        <ele>3</ele>
        <time>2017-01-21T14:17:41Z</time>
      </trkpt>
      <trkpt lat="49.45058" lon="0.94567">
        <ele>3</ele>
        <time>2017-01-21T14:17:56Z</time>
      </trkpt>
      <trkpt lat="49.45058" lon="0.94559">
        <ele>3</ele>
        <time>2017-01-21T14:17:56Z</time>
      </trkpt>
      <trkpt lat="49.45057" lon="0.94551">
        <ele>3</ele>
        <time>2017-01-21T14:17:56Z</time>
      </trkpt>
      <trkpt lat="49.45057" lon="0.94547">
        <ele>3</ele>
        <time>2017-01-21T14:17:56Z</time>
      </trkpt>
      <trkpt lat="49.45055" lon="0.94538">
        <ele>5</ele>
        <time>2017-01-21T14:18:12Z</time>
      </trkpt>
      <trkpt lat="49.45054" lon="0.9453">
        <ele>5</ele>
        <time>2017-01-21T14:18:13Z</time>
      </trkpt>
      <trkpt lat="49.45054" lon="0.94524">
        <ele>5</ele>
        <time>2017-01-21T14:18:13Z</time>
      </trkpt>
      <trkpt lat="49.45053" lon="0.94515">
        <ele>5</ele>
        <time>2017-01-21T14:18:13Z</time>
      </trkpt>
      <trkpt lat="49.45053" lon="0.9451">
        <ele>5</ele>
        <time>2017-01-21T14:18:30Z</time>
      </trkpt>
      <trkpt lat="49.45053" lon="0.94501">
        <ele>5</ele>
        <time>2017-01-21T14:18:30Z</time>
      </trkpt>
      <trkpt lat="49.45052" lon="0.94493">
        <ele>5</ele>
        <time>2017-01-21T14:18:30Z</time>
      </trkpt>
      <trkpt lat="49.4505" lon="0.94483">
        <ele>5</ele>
        <time>2017-01-21T14:18:30Z</time>
      </trkpt>
      <trkpt lat="49.45051" lon="0.94478">
        <ele>5</ele>
        <time>2017-01-21T14:18:44Z</time>
      </trkpt>
      <trkpt lat="49.45048" lon="0.9447">
        <ele>5</ele>
        <time>2017-01-21T14:18:44Z</time>
      </trkpt>
      <trkpt lat="49.45048" lon="0.94464">
        <ele>5</ele>
        <time>2017-01-21T14:18:44Z</time>
      </trkpt>
      <trkpt lat="49.45047" lon="0.9446">
        <ele>5</ele>
        <time>2017-01-21T14:18:44Z</time>
      </trkpt>
      <trkpt lat="49.45045" lon="0.94442">
        <ele>4</ele>
        <time>2017-01-21T14:19:06Z</time>
      </trkpt>
      <trkpt lat="49.45044" lon="0.94435">
        <ele>4</ele>
        <time>2017-01-21T14:19:06Z</time>
      </trkpt>
      <trkpt lat="49.45044" lon="0.94429">
        <ele>4</ele>
        <time>2017-01-21T14:19:06Z</time>
      </trkpt>
      <trkpt lat="49.45045" lon="0.94422">
        <ele>4</ele>
        <time>2017-01-21T14:19:06Z</time>
      </trkpt>
      <trkpt lat="49.45043" lon="0.94413">
        <ele>4</ele>
        <time>2017-01-21T14:19:21Z</time>
      </trkpt>
      <trkpt lat="49.45043" lon="0.94409">
        <ele>4</ele>
        <time>2017-01-21T14:19:21Z</time>
      </trkpt>
      <trkpt lat="49.45042" lon="0.94398">
        <ele>4</ele>
        <time>2017-01-21T14:19:21Z</time>
      </trkpt>
      <trkpt lat="49.45041" lon="0.94391">
        <ele>4</ele>
        <time>2017-01-21T14:19:21Z</time>
      </trkpt>
      <trkpt lat="49.45037" lon="0.94382">
        <ele>4</ele>
        <time>2017-01-21T14:19:36Z</time>
      </trkpt>
      <trkpt lat="49.45035" lon="0.94371">
        <ele>6</ele>
        <time>2017-01-21T14:19:37Z</time>
      </trkpt>
      <trkpt lat="49.45034" lon="0.94364">
        <ele>6</ele>
        <time>2017-01-21T14:19:37Z</time>
      </trkpt>
      <trkpt lat="49.45033" lon="0.94355">
        <ele>6</ele>
        <time>2017-01-21T14:19:39Z</time>
      </trkpt>
      <trkpt lat="49.45032" lon="0.94348">
        <ele>6</ele>
        <time>2017-01-21T14:19:52Z</time>
      </trkpt>
      <trkpt lat="49.45031" lon="0.94341">
        <ele>6</ele>
        <time>2017-01-21T14:19:52Z</time>
      </trkpt>
      <trkpt lat="49.45029" lon="0.94333">
        <ele>6</ele>
        <time>2017-01-21T14:19:52Z</time>
      </trkpt>
      <trkpt lat="49.45028" lon="0.94327">
        <ele>6</ele>
        <time>2017-01-21T14:19:52Z</time>
      </trkpt>
      <trkpt lat="49.45027" lon="0.94319">
        <ele>6</ele>
        <time>2017-01-21T14:20:08Z</time>
      </trkpt>
      <trkpt lat="49.45027" lon="0.94312">
        <ele>6</ele>
        <time>2017-01-21T14:20:08Z</time>
      </trkpt>
      <trkpt lat="49.45026" lon="0.94304">
        <ele>6</ele>
        <time>2017-01-21T14:20:08Z</time>
      </trkpt>
      <trkpt lat="49.45025" lon="0.94297">
        <ele>6</ele>
        <time>2017-01-21T14:20:08Z</time>
      </trkpt>
      <trkpt lat="49.45023" lon="0.94292">
        <ele>6</ele>
        <time>2017-01-21T14:20:26Z</time>
      </trkpt>
      <trkpt lat="49.45022" lon="0.94284">
        <ele>6</ele>
        <time>2017-01-21T14:20:26Z</time>
      </trkpt>
      <trkpt lat="49.45021" lon="0.94275">
        <ele>6</ele>
        <time>2017-01-21T14:20:26Z</time>
      </trkpt>
      <trkpt lat="49.4502" lon="0.94268">
        <ele>6</ele>
        <time>2017-01-21T14:20:26Z</time>
      </trkpt>
      <trkpt lat="49.4502" lon="0.94259">
        <ele>6</ele>
        <time>2017-01-21T14:20:40Z</time>
      </trkpt>
      <trkpt lat="49.45018" lon="0.94252">
        <ele>6</ele>
        <time>2017-01-21T14:20:40Z</time>
      </trkpt>
      <trkpt lat="49.45016" lon="0.94249">
        <ele>6</ele>
        <time>2017-01-21T14:20:40Z</time>
      </trkpt>
      <trkpt lat="49.45016" lon="0.94242">
        <ele>6</ele>
        <time>2017-01-21T14:20:40Z</time>
      </trkpt>
      <trkpt lat="49.45015" lon="0.94237">
        <ele>6</ele>
        <time>2017-01-21T14:20:58Z</time>
      </trkpt>
      <trkpt lat="49.45014" lon="0.94229">
        <ele>6</ele>
        <time>2017-01-21T14:20:58Z</time>
      </trkpt>
      <trkpt lat="49.45013" lon="0.94222">
        <ele>6</ele>
        <time>2017-01-21T14:20:58Z</time>
      </trkpt>
      <trkpt lat="49.45014" lon="0.9421">
        <ele>6</ele>
        <time>2017-01-21T14:20:58Z</time>
      </trkpt>
      <trkpt lat="49.45013" lon="0.94205">
        <ele>6</ele>
        <time>2017-01-21T14:21:13Z</time>
      </trkpt>
      <trkpt lat="49.4501" lon="0.94197">
        <ele>6</ele>
        <time>2017-01-21T14:21:13Z</time>
      </trkpt>
      <trkpt lat="49.45009" lon="0.94187">
        <ele>6</ele>
        <time>2017-01-21T14:21:13Z</time>
      </trkpt>
      <trkpt lat="49.45009" lon="0.94179">
        <ele>6</ele>
        <time>2017-01-21T14:21:13Z</time>
      </trkpt>
      <trkpt lat="49.45007" lon="0.94164">
        <ele>6</ele>
        <time>2017-01-21T14:21:32Z</time>
      </trkpt>
      <trkpt lat="49.45009" lon="0.9416">
        <ele>6</ele>
        <time>2017-01-21T14:21:32Z</time>
      </trkpt>
      <trkpt lat="49.45007" lon="0.94148">
        <ele>6</ele>
        <time>2017-01-21T14:21:32Z</time>
      </trkpt>
      <trkpt lat="49.45006" lon="0.94142">
        <ele>6</ele>
        <time>2017-01-21T14:21:32Z</time>
      </trkpt>
      <trkpt lat="49.45005" lon="0.9413">
        <ele>6</ele>
        <time>2017-01-21T14:21:52Z</time>
      </trkpt>
      <trkpt lat="49.45005" lon="0.94127">
        <ele>6</ele>
        <time>2017-01-21T14:21:52Z</time>
      </trkpt>
      <trkpt lat="49.45004" lon="0.94118">
        <ele>8</ele>
        <time>2017-01-21T14:21:52Z</time>
      </trkpt>
      <trkpt lat="49.45003" lon="0.9411">
        <ele>8</ele>
        <time>2017-01-21T14:21:52Z</time>
      </trkpt>
      <trkpt lat="49.45002" lon="0.94105">
        <ele>8</ele>
        <time>2017-01-21T14:22:08Z</time>
      </trkpt>
      <trkpt lat="49.45001" lon="0.94098">
        <ele>8</ele>
        <time>2017-01-21T14:22:10Z</time>
      </trkpt>
      <trkpt lat="49.45" lon="0.94086">
        <ele>8</ele>
        <time>2017-01-21T14:22:10Z</time>
      </trkpt>
      <trkpt lat="49.44999" lon="0.94078">
        <ele>8</ele>
        <time>2017-01-21T14:22:10Z</time>
      </trkpt>
      <trkpt lat="49.44998" lon="0.94071">
        <ele>8</ele>
        <time>2017-01-21T14:22:28Z</time>
      </trkpt>
      <trkpt lat="49.44997" lon="0.94064">
        <ele>8</ele>
        <time>2017-01-21T14:22:28Z</time>
      </trkpt>
      <trkpt lat="49.44996" lon="0.94057">
        <ele>8</ele>
        <time>2017-01-21T14:22:28Z</time>
      </trkpt>
      <trkpt lat="49.44994" lon="0.94045">
        <ele>8</ele>
        <time>2017-01-21T14:22:28Z</time>
      </trkpt>
      <trkpt lat="49.44992" lon="0.94036">
        <ele>7</ele>
        <time>2017-01-21T14:22:45Z</time>
      </trkpt>
      <trkpt lat="49.44991" lon="0.94027">
        <ele>7</ele>
        <time>2017-01-21T14:22:45Z</time>
      </trkpt>
      <trkpt lat="49.44991" lon="0.94024">
        <ele>7</ele>
        <time>2017-01-21T14:22:45Z</time>
      </trkpt>
      <trkpt lat="49.4499" lon="0.94014">
        <ele>7</ele>
        <time>2017-01-21T14:22:45Z</time>
      </trkpt>
      <trkpt lat="49.44989" lon="0.94008">
        <ele>7</ele>
        <time>2017-01-21T14:23:00Z</time>
      </trkpt>
      <trkpt lat="49.44988" lon="0.94">
        <ele>7</ele>
        <time>2017-01-21T14:23:00Z</time>
      </trkpt>
      <trkpt lat="49.44987" lon="0.93995">
        <ele>7</ele>
        <time>2017-01-21T14:23:00Z</time>
      </trkpt>
      <trkpt lat="49.44986" lon="0.93983">
        <ele>7</ele>
        <time>2017-01-21T14:23:00Z</time>
      </trkpt>
      <trkpt lat="49.44985" lon="0.93976">
        <ele>7</ele>
        <time>2017-01-21T14:23:17Z</time>
      </trkpt>
      <trkpt lat="49.44983" lon="0.93969">
        <ele>7</ele>
        <time>2017-01-21T14:23:17Z</time>
      </trkpt>
      <trkpt lat="49.44982" lon="0.93962">
        <ele>7</ele>
        <time>2017-01-21T14:23:17Z</time>
      </trkpt>
      <trkpt lat="49.44981" lon="0.93956">
        <ele>4</ele>
        <time>2017-01-21T14:23:17Z</time>
      </trkpt>
      <trkpt lat="49.4498" lon="0.93946">
        <ele>4</ele>
        <time>2017-01-21T14:23:58Z</time>
      </trkpt>
      <trkpt lat="49.4498" lon="0.93944">
        <ele>4</ele>
        <time>2017-01-21T14:23:58Z</time>
      </trkpt>
      <trkpt lat="49.44971" lon="0.93886">
        <ele>4</ele>
        <time>2017-01-21T14:23:58Z</time>
      </trkpt>
      <trkpt lat="49.44971" lon="0.93877">
        <ele>4</ele>
        <time>2017-01-21T14:23:58Z</time>
      </trkpt>
      <trkpt lat="49.4498" lon="0.93857">
        <ele>4</ele>
        <time>2017-01-21T14:25:08Z</time>
      </trkpt>
      <trkpt lat="49.44982" lon="0.93857">
        <ele>4</ele>
        <time>2017-01-21T14:25:10Z</time>
      </trkpt>
      <trkpt lat="49.44982" lon="0.93856">
        <ele>4</ele>
        <time>2017-01-21T14:25:10Z</time>
      </trkpt>
      <trkpt lat="49.44982" lon="0.93856">
        <ele>4</ele>
        <time>2017-01-21T14:25:10Z</time>
      </trkpt>
      <trkpt lat="49.44986" lon="0.93855">
        <ele>4</ele>
        <time>2017-01-21T14:25:10Z</time>
      </trkpt>
      <trkpt lat="49.44993" lon="0.93857">
        <ele>4</ele>
        <time>2017-01-21T14:25:40Z</time>
      </trkpt>
      <trkpt lat="49.44998" lon="0.93854">
        <ele>4</ele>
        <time>2017-01-21T14:25:40Z</time>
      </trkpt>
      <trkpt lat="49.45002" lon="0.93852">
        <ele>3.3</ele>
        <time>2017-01-21T14:25:40Z</time>
      </trkpt>
      <trkpt lat="49.45008" lon="0.9385">
        <ele>3.2</ele>
        <time>2017-01-21T14:25:40Z</time>
      </trkpt>
      <trkpt lat="49.4501" lon="0.9385">
        <ele>3.2</ele>
        <time>2017-01-21T14:25:40Z</time>
      </trkpt>
      <trkpt lat="49.45016" lon="0.93849">
        <ele>3.1</ele>
        <time>2017-01-21T14:25:57Z</time>
      </trkpt>
      <trkpt lat="49.45021" lon="0.93847">
        <ele>3</ele>
        <time>2017-01-21T14:25:57Z</time>
      </trkpt>
      <trkpt lat="49.45027" lon="0.93846">
        <ele>2.9</ele>
        <time>2017-01-21T14:25:57Z</time>
      </trkpt>
      <trkpt lat="49.4503" lon="0.93845">
        <ele>2.9</ele>
        <time>2017-01-21T14:25:57Z</time>
      </trkpt>
      <trkpt lat="49.45036" lon="0.93844">
        <ele>3</ele>
        <time>2017-01-21T14:26:12Z</time>
      </trkpt>
      <trkpt lat="49.45042" lon="0.93843">
        <ele>2</ele>
        <time>2017-01-21T14:26:12Z</time>
      </trkpt>
      <trkpt lat="49.45047" lon="0.93841">
        <ele>2</ele>
        <time>2017-01-21T14:26:12Z</time>
      </trkpt>
      <trkpt lat="49.45052" lon="0.93841">
        <ele>2</ele>
        <time>2017-01-21T14:26:12Z</time>
      </trkpt>
      <trkpt lat="49.45057" lon="0.9384">
        <ele>2</ele>
        <time>2017-01-21T14:26:28Z</time>
      </trkpt>
      <trkpt lat="49.45061" lon="0.93839">
        <ele>2</ele>
        <time>2017-01-21T14:26:28Z</time>
      </trkpt>
      <trkpt lat="49.45066" lon="0.93838">
        <ele>2</ele>
        <time>2017-01-21T14:26:28Z</time>
      </trkpt>
      <trkpt lat="49.45071" lon="0.93834">
        <ele>2</ele>
        <time>2017-01-21T14:26:28Z</time>
      </trkpt>
      <trkpt lat="49.45075" lon="0.93833">
        <ele>2</ele>
        <time>2017-01-21T14:26:44Z</time>
      </trkpt>
      <trkpt lat="49.45081" lon="0.93833">
        <ele>2</ele>
        <time>2017-01-21T14:26:44Z</time>
      </trkpt>
      <trkpt lat="49.45086" lon="0.93833">
        <ele>2</ele>
        <time>2017-01-21T14:26:44Z</time>
      </trkpt>
      <trkpt lat="49.45091" lon="0.93833">
        <ele>2</ele>
        <time>2017-01-21T14:26:44Z</time>
      </trkpt>
      <trkpt lat="49.45095" lon="0.93831">
        <ele>2</ele>
        <time>2017-01-21T14:27:00Z</time>
      </trkpt>
      <trkpt lat="49.45101" lon="0.93831">
        <ele>2</ele>
        <time>2017-01-21T14:27:00Z</time>
      </trkpt>
      <trkpt lat="49.45104" lon="0.9383">
        <ele>2</ele>
        <time>2017-01-21T14:27:00Z</time>
      </trkpt>
      <trkpt lat="49.45109" lon="0.93829">
        <ele>2</ele>
        <time>2017-01-21T14:27:02Z</time>
      </trkpt>
      <trkpt lat="49.45115" lon="0.93827">
        <ele>2</ele>
        <time>2017-01-21T14:27:21Z</time>
      </trkpt>
      <trkpt lat="49.45126" lon="0.93823">
        <ele>2</ele>
        <time>2017-01-21T14:27:21Z</time>
      </trkpt>
      <trkpt lat="49.45131" lon="0.93824">
        <ele>2</ele>
        <time>2017-01-21T14:27:21Z</time>
      </trkpt>
      <trkpt lat="49.45134" lon="0.93824">
        <ele>2</ele>
        <time>2017-01-21T14:27:21Z</time>
      </trkpt>
      <trkpt lat="49.45141" lon="0.93822">
        <ele>2</ele>
        <time>2017-01-21T14:27:36Z</time>
      </trkpt>
      <trkpt lat="49.45147" lon="0.93821">
        <ele>2</ele>
        <time>2017-01-21T14:27:36Z</time>
      </trkpt>
      <trkpt lat="49.45149" lon="0.9382">
        <ele>2</ele>
        <time>2017-01-21T14:27:36Z</time>
      </trkpt>
      <trkpt lat="49.45158" lon="0.93819">
        <ele>2</ele>
        <time>2017-01-21T14:27:36Z</time>
      </trkpt>
      <trkpt lat="49.4516" lon="0.93815">
        <ele>2</ele>
        <time>2017-01-21T14:28:08Z</time>
      </trkpt>
      <trkpt lat="49.45165" lon="0.93815">
        <ele>2</ele>
        <time>2017-01-21T14:28:08Z</time>
      </trkpt>
      <trkpt lat="49.45173" lon="0.93816">
        <ele>2</ele>
        <time>2017-01-21T14:28:08Z</time>
      </trkpt>
      <trkpt lat="49.45179" lon="0.93815">
        <ele>2</ele>
        <time>2017-01-21T14:28:08Z</time>
      </trkpt>
      <trkpt lat="49.45182" lon="0.93814">
        <ele>2</ele>
        <time>2017-01-21T14:28:08Z</time>
      </trkpt>
      <trkpt lat="49.4519" lon="0.93812">
        <ele>2</ele>
        <time>2017-01-21T14:28:24Z</time>
      </trkpt>
      <trkpt lat="49.45196" lon="0.9381">
        <ele>2</ele>
        <time>2017-01-21T14:28:24Z</time>
      </trkpt>
      <trkpt lat="49.45201" lon="0.93809">
        <ele>2</ele>
        <time>2017-01-21T14:28:24Z</time>
      </trkpt>
      <trkpt lat="49.45206" lon="0.93808">
        <ele>2</ele>
        <time>2017-01-21T14:28:24Z</time>
      </trkpt>
      <trkpt lat="49.45211" lon="0.93808">
        <ele>5</ele>
        <time>2017-01-21T14:28:41Z</time>
      </trkpt>
      <trkpt lat="49.45215" lon="0.93807">
        <ele>5</ele>
        <time>2017-01-21T14:28:41Z</time>
      </trkpt>
      <trkpt lat="49.4522" lon="0.93806">
        <ele>5</ele>
        <time>2017-01-21T14:28:41Z</time>
      </trkpt>
      <trkpt lat="49.45224" lon="0.93804">
        <ele>5</ele>
        <time>2017-01-21T14:28:41Z</time>
      </trkpt>
      <trkpt lat="49.4523" lon="0.93801">
        <ele>5</ele>
        <time>2017-01-21T14:28:56Z</time>
      </trkpt>
      <trkpt lat="49.45234" lon="0.93797">
        <ele>5</ele>
        <time>2017-01-21T14:28:56Z</time>
      </trkpt>
      <trkpt lat="49.45241" lon="0.93798">
        <ele>5</ele>
        <time>2017-01-21T14:28:57Z</time>
      </trkpt>
      <trkpt lat="49.45245" lon="0.93798">
        <ele>5</ele>
        <time>2017-01-21T14:28:57Z</time>
      </trkpt>
      <trkpt lat="49.45251" lon="0.93796">
        <ele>5</ele>
        <time>2017-01-21T14:29:12Z</time>
      </trkpt>
      <trkpt lat="49.45255" lon="0.93795">
        <ele>5</ele>
        <time>2017-01-21T14:29:12Z</time>
      </trkpt>
      <trkpt lat="49.4526" lon="0.93794">
        <ele>5</ele>
        <time>2017-01-21T14:29:12Z</time>
      </trkpt>
      <trkpt lat="49.45263" lon="0.93794">
        <ele>5</ele>
        <time>2017-01-21T14:29:12Z</time>
      </trkpt>
      <trkpt lat="49.45268" lon="0.93793">
        <ele>5</ele>
        <time>2017-01-21T14:29:28Z</time>
      </trkpt>
      <trkpt lat="49.45274" lon="0.93791">
        <ele>3.4</ele>
        <time>2017-01-21T14:29:30Z</time>
      </trkpt>
      <trkpt lat="49.45278" lon="0.93789">
        <ele>3.4</ele>
        <time>2017-01-21T14:29:31Z</time>
      </trkpt>
      <trkpt lat="49.45284" lon="0.93788">
        <ele>3.5</ele>
        <time>2017-01-21T14:29:31Z</time>
      </trkpt>
      <trkpt lat="49.45288" lon="0.93787">
        <ele>3.6</ele>
        <time>2017-01-21T14:29:44Z</time>
      </trkpt>
      <trkpt lat="49.45292" lon="0.93786">
        <ele>8</ele>
        <time>2017-01-21T14:29:44Z</time>
      </trkpt>
      <trkpt lat="49.45297" lon="0.93785">
        <ele>8</ele>
        <time>2017-01-21T14:29:44Z</time>
      </trkpt>
      <trkpt lat="49.45301" lon="0.93783">
        <ele>8</ele>
        <time>2017-01-21T14:29:44Z</time>
      </trkpt>
      <trkpt lat="49.45307" lon="0.93782">
        <ele>8</ele>
        <time>2017-01-21T14:30:00Z</time>
      </trkpt>
      <trkpt lat="49.45314" lon="0.93781">
        <ele>8</ele>
        <time>2017-01-21T14:30:00Z</time>
      </trkpt>
      <trkpt lat="49.4532" lon="0.93779">
        <ele>8</ele>
        <time>2017-01-21T14:30:00Z</time>
      </trkpt>
      <trkpt lat="49.45326" lon="0.93777">
        <ele>8</ele>
        <time>2017-01-21T14:30:00Z</time>
      </trkpt>
      <trkpt lat="49.45328" lon="0.93777">
        <ele>8</ele>
        <time>2017-01-21T14:30:16Z</time>
      </trkpt>
      <trkpt lat="49.45335" lon="0.93774">
        <ele>8</ele>
        <time>2017-01-21T14:30:17Z</time>
      </trkpt>
      <trkpt lat="49.4534" lon="0.93772">
        <ele>8</ele>
        <time>2017-01-21T14:30:17Z</time>
      </trkpt>
      <trkpt lat="49.45347" lon="0.9377">
        <ele>8</ele>
        <time>2017-01-21T14:30:17Z</time>
      </trkpt>
      <trkpt lat="49.4535" lon="0.9377">
        <ele>8</ele>
        <time>2017-01-21T14:30:32Z</time>
      </trkpt>
      <trkpt lat="49.45356" lon="0.93768">
        <ele>8</ele>
        <time>2017-01-21T14:30:32Z</time>
      </trkpt>
      <trkpt lat="49.45362" lon="0.93768">
        <ele>8</ele>
        <time>2017-01-21T14:30:32Z</time>
      </trkpt>
      <trkpt lat="49.45365" lon="0.93767">
        <ele>8</ele>
        <time>2017-01-21T14:30:32Z</time>
      </trkpt>
      <trkpt lat="49.45367" lon="0.93767">
        <ele>8</ele>
        <time>2017-01-21T14:30:48Z</time>
      </trkpt>
      <trkpt lat="49.45374" lon="0.93765">
        <ele>8</ele>
        <time>2017-01-21T14:30:48Z</time>
      </trkpt>
      <trkpt lat="49.45379" lon="0.93765">
        <ele>4</ele>
        <time>2017-01-21T14:30:48Z</time>
      </trkpt>
      <trkpt lat="49.45384" lon="0.93764">
        <ele>4</ele>
        <time>2017-01-21T14:30:49Z</time>
      </trkpt>
      <trkpt lat="49.45394" lon="0.93762">
        <ele>4</ele>
        <time>2017-01-21T14:31:09Z</time>
      </trkpt>
      <trkpt lat="49.45398" lon="0.93761">
        <ele>4</ele>
        <time>2017-01-21T14:31:09Z</time>
      </trkpt>
      <trkpt lat="49.45404" lon="0.9376">
        <ele>4</ele>
        <time>2017-01-21T14:31:09Z</time>
      </trkpt>
      <trkpt lat="49.45408" lon="0.93759">
        <ele>4</ele>
        <time>2017-01-21T14:31:09Z</time>
      </trkpt>
      <trkpt lat="49.45414" lon="0.93758">
        <ele>4</ele>
        <time>2017-01-21T14:31:24Z</time>
      </trkpt>
      <trkpt lat="49.4542" lon="0.93757">
        <ele>4</ele>
        <time>2017-01-21T14:31:24Z</time>
      </trkpt>
      <trkpt lat="49.45425" lon="0.93756">
        <ele>4</ele>
        <time>2017-01-21T14:31:24Z</time>
      </trkpt>
      <trkpt lat="49.4543" lon="0.93755">
        <ele>4</ele>
        <time>2017-01-21T14:31:24Z</time>
      </trkpt>
      <trkpt lat="49.45434" lon="0.93754">
        <ele>4</ele>
        <time>2017-01-21T14:31:40Z</time>
      </trkpt>
      <trkpt lat="49.45439" lon="0.93754">
        <ele>4</ele>
        <time>2017-01-21T14:31:40Z</time>
      </trkpt>
      <trkpt lat="49.45443" lon="0.93752">
        <ele>4</ele>
        <time>2017-01-21T14:31:40Z</time>
      </trkpt>
      <trkpt lat="49.45445" lon="0.93752">
        <ele>4</ele>
        <time>2017-01-21T14:31:40Z</time>
      </trkpt>
      <trkpt lat="49.45447" lon="0.93751">
        <ele>4</ele>
        <time>2017-01-21T14:32:02Z</time>
      </trkpt>
      <trkpt lat="49.4545" lon="0.9375">
        <ele>4</ele>
        <time>2017-01-21T14:32:02Z</time>
      </trkpt>
      <trkpt lat="49.45451" lon="0.93748">
        <ele>4</ele>
        <time>2017-01-21T14:32:02Z</time>
      </trkpt>
      <trkpt lat="49.45454" lon="0.93746">
        <ele>4</ele>
        <time>2017-01-21T14:32:02Z</time>
      </trkpt>
      <trkpt lat="49.45459" lon="0.93745">
        <ele>4</ele>
        <time>2017-01-21T14:32:02Z</time>
      </trkpt>
      <trkpt lat="49.45478" lon="0.93737">
        <ele>4</ele>
        <time>2017-01-21T14:32:26Z</time>
      </trkpt>
      <trkpt lat="49.45483" lon="0.93735">
        <ele>4</ele>
        <time>2017-01-21T14:32:26Z</time>
      </trkpt>
      <trkpt lat="49.45486" lon="0.93734">
        <ele>4</ele>
        <time>2017-01-21T14:32:26Z</time>
      </trkpt>
      <trkpt lat="49.45493" lon="0.93733">
        <ele>4</ele>
        <time>2017-01-21T14:32:26Z</time>
      </trkpt>
      <trkpt lat="49.45504" lon="0.9373">
        <ele>4</ele>
        <time>2017-01-21T14:32:44Z</time>
      </trkpt>
      <trkpt lat="49.45506" lon="0.93729">
        <ele>4</ele>
        <time>2017-01-21T14:32:44Z</time>
      </trkpt>
      <trkpt lat="49.45514" lon="0.93727">
        <ele>4</ele>
        <time>2017-01-21T14:32:44Z</time>
      </trkpt>
      <trkpt lat="49.45519" lon="0.93724">
        <ele>4</ele>
        <time>2017-01-21T14:32:44Z</time>
      </trkpt>
      <trkpt lat="49.45523" lon="0.93724">
        <ele>4</ele>
        <time>2017-01-21T14:33:02Z</time>
      </trkpt>
      <trkpt lat="49.45528" lon="0.93724">
        <ele>4</ele>
        <time>2017-01-21T14:33:02Z</time>
      </trkpt>
      <trkpt lat="49.45532" lon="0.93722">
        <ele>4</ele>
        <time>2017-01-21T14:33:02Z</time>
      </trkpt>
      <trkpt lat="49.45537" lon="0.93721">
        <ele>4</ele>
        <time>2017-01-21T14:33:02Z</time>
      </trkpt>
      <trkpt lat="49.45543" lon="0.93721">
        <ele>3</ele>
        <time>2017-01-21T14:33:20Z</time>
      </trkpt>
      <trkpt lat="49.4555" lon="0.93718">
        <ele>3</ele>
        <time>2017-01-21T14:33:20Z</time>
      </trkpt>
      <trkpt lat="49.45554" lon="0.93717">
        <ele>3</ele>
        <time>2017-01-21T14:33:20Z</time>
      </trkpt>
      <trkpt lat="49.4556" lon="0.93717">
        <ele>3</ele>
        <time>2017-01-21T14:33:20Z</time>
      </trkpt>
      <trkpt lat="49.45565" lon="0.93715">
        <ele>3</ele>
        <time>2017-01-21T14:33:36Z</time>
      </trkpt>
      <trkpt lat="49.4557" lon="0.93713">
        <ele>3</ele>
        <time>2017-01-21T14:33:36Z</time>
      </trkpt>
      <trkpt lat="49.45575" lon="0.9371">
        <ele>3</ele>
        <time>2017-01-21T14:33:36Z</time>
      </trkpt>
      <trkpt lat="49.45577" lon="0.9371">
        <ele>3</ele>
        <time>2017-01-21T14:33:36Z</time>
      </trkpt>
      <trkpt lat="49.45582" lon="0.93707">
        <ele>-1</ele>
        <time>2017-01-21T14:33:52Z</time>
      </trkpt>
      <trkpt lat="49.45588" lon="0.93705">
        <ele>-1</ele>
        <time>2017-01-21T14:33:52Z</time>
      </trkpt>
      <trkpt lat="49.45592" lon="0.93702">
        <ele>-1</ele>
        <time>2017-01-21T14:33:52Z</time>
      </trkpt>
      <trkpt lat="49.45598" lon="0.93701">
        <ele>-1</ele>
        <time>2017-01-21T14:33:52Z</time>
      </trkpt>
      <trkpt lat="49.45602" lon="0.937">
        <ele>-1</ele>
        <time>2017-01-21T14:34:08Z</time>
      </trkpt>
      <trkpt lat="49.45605" lon="0.93703">
        <ele>-1</ele>
        <time>2017-01-21T14:34:08Z</time>
      </trkpt>
      <trkpt lat="49.45608" lon="0.93703">
        <ele>-1</ele>
        <time>2017-01-21T14:34:08Z</time>
      </trkpt>
      <trkpt lat="49.45613" lon="0.93702">
        <ele>-1</ele>
        <time>2017-01-21T14:34:08Z</time>
      </trkpt>
      <trkpt lat="49.45617" lon="0.93702">
        <ele>-1</ele>
        <time>2017-01-21T14:34:25Z</time>
      </trkpt>
      <trkpt lat="49.45623" lon="0.93698">
        <ele>-1</ele>
        <time>2017-01-21T14:34:25Z</time>
      </trkpt>
      <trkpt lat="49.45627" lon="0.93695">
        <ele>1</ele>
        <time>2017-01-21T14:34:25Z</time>
      </trkpt>
      <trkpt lat="49.45632" lon="0.93693">
        <ele>1</ele>
        <time>2017-01-21T14:34:25Z</time>
      </trkpt>
      <trkpt lat="49.45641" lon="0.93693">
        <ele>1</ele>
        <time>2017-01-21T14:34:45Z</time>
      </trkpt>
      <trkpt lat="49.45645" lon="0.93693">
        <ele>1</ele>
        <time>2017-01-21T14:34:46Z</time>
      </trkpt>
      <trkpt lat="49.45652" lon="0.93692">
        <ele>1</ele>
        <time>2017-01-21T14:34:46Z</time>
      </trkpt>
      <trkpt lat="49.45655" lon="0.93691">
        <ele>1</ele>
        <time>2017-01-21T14:34:46Z</time>
      </trkpt>
      <trkpt lat="49.45659" lon="0.93689">
        <ele>1</ele>
        <time>2017-01-21T14:35:01Z</time>
      </trkpt>
      <trkpt lat="49.45664" lon="0.93689">
        <ele>1</ele>
        <time>2017-01-21T14:35:01Z</time>
      </trkpt>
      <trkpt lat="49.4567" lon="0.93687">
        <ele>1</ele>
        <time>2017-01-21T14:35:01Z</time>
      </trkpt>
      <trkpt lat="49.45675" lon="0.93685">
        <ele>1</ele>
        <time>2017-01-21T14:35:01Z</time>
      </trkpt>
      <trkpt lat="49.45681" lon="0.93686">
        <ele>1</ele>
        <time>2017-01-21T14:35:16Z</time>
      </trkpt>
      <trkpt lat="49.45685" lon="0.93687">
        <ele>1</ele>
        <time>2017-01-21T14:35:16Z</time>
      </trkpt>
      <trkpt lat="49.4569" lon="0.93689">
        <ele>1</ele>
        <time>2017-01-21T14:35:16Z</time>
      </trkpt>
      <trkpt lat="49.45694" lon="0.93685">
        <ele>1</ele>
        <time>2017-01-21T14:35:16Z</time>
      </trkpt>
      <trkpt lat="49.45695" lon="0.93685">
        <ele>1</ele>
        <time>2017-01-21T14:35:33Z</time>
      </trkpt>
      <trkpt lat="49.45697" lon="0.93687">
        <ele>1</ele>
        <time>2017-01-21T14:35:33Z</time>
      </trkpt>
      <trkpt lat="49.45698" lon="0.93691">
        <ele>1</ele>
        <time>2017-01-21T14:35:33Z</time>
      </trkpt>
      <trkpt lat="49.45702" lon="0.93699">
        <ele>1</ele>
        <time>2017-01-21T14:35:33Z</time>
      </trkpt>
      <trkpt lat="49.45709" lon="0.93711">
        <ele>6</ele>
        <time>2017-01-21T14:35:52Z</time>
      </trkpt>
      <trkpt lat="49.45714" lon="0.93716">
        <ele>6</ele>
        <time>2017-01-21T14:35:52Z</time>
      </trkpt>
      <trkpt lat="49.45717" lon="0.93718">
        <ele>6</ele>
        <time>2017-01-21T14:35:52Z</time>
      </trkpt>
      <trkpt lat="49.4572" lon="0.9372">
        <ele>6</ele>
        <time>2017-01-21T14:35:52Z</time>
      </trkpt>
      <trkpt lat="49.45725" lon="0.93727">
        <ele>6</ele>
        <time>2017-01-21T14:36:41Z</time>
      </trkpt>
      <trkpt lat="49.45727" lon="0.9373">
        <ele>6</ele>
        <time>2017-01-21T14:36:41Z</time>
      </trkpt>
      <trkpt lat="49.45731" lon="0.9373">
        <ele>6</ele>
        <time>2017-01-21T14:36:41Z</time>
      </trkpt>
      <trkpt lat="49.45733" lon="0.93731">
        <ele>6</ele>
        <time>2017-01-21T14:36:41Z</time>
      </trkpt>
      <trkpt lat="49.45734" lon="0.93731">
        <ele>6</ele>
        <time>2017-01-21T14:36:41Z</time>
      </trkpt>
      <trkpt lat="49.45733" lon="0.93736">
        <ele>6</ele>
        <time>2017-01-21T14:38:52Z</time>
      </trkpt>
      <trkpt lat="49.45733" lon="0.93737">
        <ele>6</ele>
        <time>2017-01-21T14:38:52Z</time>
      </trkpt>
      <trkpt lat="49.45739" lon="0.93736">
        <ele>6</ele>
        <time>2017-01-21T14:38:52Z</time>
      </trkpt>
      <trkpt lat="49.45744" lon="0.93736">
        <ele>6</ele>
        <time>2017-01-21T14:38:52Z</time>
      </trkpt>
      <trkpt lat="49.4575" lon="0.93737">
        <ele>6</ele>
        <time>2017-01-21T14:38:52Z</time>
      </trkpt>
      <trkpt lat="49.45751" lon="0.93737">
        <ele>6</ele>
        <time>2017-01-21T14:39:08Z</time>
      </trkpt>
      <trkpt lat="49.45759" lon="0.93736">
        <ele>6</ele>
        <time>2017-01-21T14:39:08Z</time>
      </trkpt>
      <trkpt lat="49.45765" lon="0.93737">
        <ele>6</ele>
        <time>2017-01-21T14:39:08Z</time>
      </trkpt>
      <trkpt lat="49.45773" lon="0.93739">
        <ele>6</ele>
        <time>2017-01-21T14:39:08Z</time>
      </trkpt>
      <trkpt lat="49.45779" lon="0.9374">
        <ele>6</ele>
        <time>2017-01-21T14:39:25Z</time>
      </trkpt>
      <trkpt lat="49.45783" lon="0.9374">
        <ele>6</ele>
        <time>2017-01-21T14:39:25Z</time>
      </trkpt>
      <trkpt lat="49.45785" lon="0.93741">
        <ele>6</ele>
        <time>2017-01-21T14:39:25Z</time>
      </trkpt>
      <trkpt lat="49.45792" lon="0.93741">
        <ele>6</ele>
        <time>2017-01-21T14:39:25Z</time>
      </trkpt>
      <trkpt lat="49.45801" lon="0.93742">
        <ele>5</ele>
        <time>2017-01-21T14:39:44Z</time>
      </trkpt>
      <trkpt lat="49.45808" lon="0.93743">
        <ele>5</ele>
        <time>2017-01-21T14:39:44Z</time>
      </trkpt>
      <trkpt lat="49.45812" lon="0.93744">
        <ele>5</ele>
        <time>2017-01-21T14:39:44Z</time>
      </trkpt>
      <trkpt lat="49.45817" lon="0.93745">
        <ele>5</ele>
        <time>2017-01-21T14:39:44Z</time>
      </trkpt>
      <trkpt lat="49.4582" lon="0.93748">
        <ele>5</ele>
        <time>2017-01-21T14:40:00Z</time>
      </trkpt>
      <trkpt lat="49.45825" lon="0.93752">
        <ele>5</ele>
        <time>2017-01-21T14:40:00Z</time>
      </trkpt>
      <trkpt lat="49.45826" lon="0.93755">
        <ele>5</ele>
        <time>2017-01-21T14:40:00Z</time>
      </trkpt>
      <trkpt lat="49.45831" lon="0.93761">
        <ele>5</ele>
        <time>2017-01-21T14:40:00Z</time>
      </trkpt>
      <trkpt lat="49.45835" lon="0.93767">
        <ele>5</ele>
        <time>2017-01-21T14:40:17Z</time>
      </trkpt>
      <trkpt lat="49.45836" lon="0.93771">
        <ele>5</ele>
        <time>2017-01-21T14:40:18Z</time>
      </trkpt>
      <trkpt lat="49.45838" lon="0.93779">
        <ele>5</ele>
        <time>2017-01-21T14:40:18Z</time>
      </trkpt>
      <trkpt lat="49.45841" lon="0.93785">
        <ele>5</ele>
        <time>2017-01-21T14:40:18Z</time>
      </trkpt>
      <trkpt lat="49.45843" lon="0.93794">
        <ele>4</ele>
        <time>2017-01-21T14:40:33Z</time>
      </trkpt>
      <trkpt lat="49.45843" lon="0.93799">
        <ele>4</ele>
        <time>2017-01-21T14:40:33Z</time>
      </trkpt>
      <trkpt lat="49.45845" lon="0.93806">
        <ele>4</ele>
        <time>2017-01-21T14:40:33Z</time>
      </trkpt>
      <trkpt lat="49.45846" lon="0.93813">
        <ele>4</ele>
        <time>2017-01-21T14:40:33Z</time>
      </trkpt>
      <trkpt lat="49.45846" lon="0.93813">
        <ele>4</ele>
        <time>2017-01-21T14:40:49Z</time>
      </trkpt>
      <trkpt lat="49.45847" lon="0.93819">
        <ele>4</ele>
        <time>2017-01-21T14:40:49Z</time>
      </trkpt>
      <trkpt lat="49.45849" lon="0.93827">
        <ele>4</ele>
        <time>2017-01-21T14:40:49Z</time>
      </trkpt>
      <trkpt lat="49.45852" lon="0.93833">
        <ele>4</ele>
        <time>2017-01-21T14:40:49Z</time>
      </trkpt>
      <trkpt lat="49.45853" lon="0.93838">
        <ele>4</ele>
        <time>2017-01-21T14:41:04Z</time>
      </trkpt>
      <trkpt lat="49.45857" lon="0.93847">
        <ele>4</ele>
        <time>2017-01-21T14:41:04Z</time>
      </trkpt>
      <trkpt lat="49.4586" lon="0.93855">
        <ele>4</ele>
        <time>2017-01-21T14:41:04Z</time>
      </trkpt>
      <trkpt lat="49.45862" lon="0.93861">
        <ele>4</ele>
        <time>2017-01-21T14:41:04Z</time>
      </trkpt>
      <trkpt lat="49.45866" lon="0.93868">
        <ele>4</ele>
        <time>2017-01-21T14:41:20Z</time>
      </trkpt>
      <trkpt lat="49.45868" lon="0.93876">
        <ele>3</ele>
        <time>2017-01-21T14:41:20Z</time>
      </trkpt>
      <trkpt lat="49.4587" lon="0.9388">
        <ele>3</ele>
        <time>2017-01-21T14:41:20Z</time>
      </trkpt>
      <trkpt lat="49.45875" lon="0.93889">
        <ele>5</ele>
        <time>2017-01-21T14:41:20Z</time>
      </trkpt>
      <trkpt lat="49.45878" lon="0.93894">
        <ele>5</ele>
        <time>2017-01-21T14:41:37Z</time>
      </trkpt>
      <trkpt lat="49.4588" lon="0.93896">
        <ele>5</ele>
        <time>2017-01-21T14:41:37Z</time>
      </trkpt>
      <trkpt lat="49.45884" lon="0.93902">
        <ele>5</ele>
        <time>2017-01-21T14:41:37Z</time>
      </trkpt>
      <trkpt lat="49.45889" lon="0.93908">
        <ele>5</ele>
        <time>2017-01-21T14:41:37Z</time>
      </trkpt>
      <trkpt lat="49.45901" lon="0.93922">
        <ele>5</ele>
        <time>2017-01-21T14:42:00Z</time>
      </trkpt>
      <trkpt lat="49.45905" lon="0.93926">
        <ele>5</ele>
        <time>2017-01-21T14:42:00Z</time>
      </trkpt>
      <trkpt lat="49.45909" lon="0.93928">
        <ele>5</ele>
        <time>2017-01-21T14:42:00Z</time>
      </trkpt>
      <trkpt lat="49.45915" lon="0.93928">
        <ele>5</ele>
        <time>2017-01-21T14:42:00Z</time>
      </trkpt>
      <trkpt lat="49.4592" lon="0.93927">
        <ele>5</ele>
        <time>2017-01-21T14:42:16Z</time>
      </trkpt>
      <trkpt lat="49.4592" lon="0.93927">
        <ele>5</ele>
        <time>2017-01-21T14:42:16Z</time>
      </trkpt>
      <trkpt lat="49.45928" lon="0.93925">
        <ele>5</ele>
        <time>2017-01-21T14:42:16Z</time>
      </trkpt>
      <trkpt lat="49.45932" lon="0.93923">
        <ele>5</ele>
        <time>2017-01-21T14:42:16Z</time>
      </trkpt>
      <trkpt lat="49.4594" lon="0.9392">
        <ele>5</ele>
        <time>2017-01-21T14:42:37Z</time>
      </trkpt>
      <trkpt lat="49.45945" lon="0.93917">
        <ele>5</ele>
        <time>2017-01-21T14:42:37Z</time>
      </trkpt>
      <trkpt lat="49.45947" lon="0.93916">
        <ele>5</ele>
        <time>2017-01-21T14:42:37Z</time>
      </trkpt>
      <trkpt lat="49.45952" lon="0.93914">
        <ele>5</ele>
        <time>2017-01-21T14:42:37Z</time>
      </trkpt>
      <trkpt lat="49.45959" lon="0.93911">
        <ele>3</ele>
        <time>2017-01-21T14:42:53Z</time>
      </trkpt>
      <trkpt lat="49.45962" lon="0.93909">
        <ele>3</ele>
        <time>2017-01-21T14:42:53Z</time>
      </trkpt>
      <trkpt lat="49.45968" lon="0.93906">
        <ele>3</ele>
        <time>2017-01-21T14:42:53Z</time>
      </trkpt>
      <trkpt lat="49.45972" lon="0.93904">
        <ele>3</ele>
        <time>2017-01-21T14:42:53Z</time>
      </trkpt>
      <trkpt lat="49.45976" lon="0.93902">
        <ele>3</ele>
        <time>2017-01-21T14:43:08Z</time>
      </trkpt>
      <trkpt lat="49.45982" lon="0.93898">
        <ele>3</ele>
        <time>2017-01-21T14:43:08Z</time>
      </trkpt>
      <trkpt lat="49.45986" lon="0.93897">
        <ele>3</ele>
        <time>2017-01-21T14:43:08Z</time>
      </trkpt>
      <trkpt lat="49.45991" lon="0.93894">
        <ele>3</ele>
        <time>2017-01-21T14:43:08Z</time>
      </trkpt>
      <trkpt lat="49.45994" lon="0.93893">
        <ele>3</ele>
        <time>2017-01-21T14:43:25Z</time>
      </trkpt>
      <trkpt lat="49.45999" lon="0.93891">
        <ele>3</ele>
        <time>2017-01-21T14:43:25Z</time>
      </trkpt>
      <trkpt lat="49.46004" lon="0.93888">
        <ele>3</ele>
        <time>2017-01-21T14:43:25Z</time>
      </trkpt>
      <trkpt lat="49.46008" lon="0.93886">
        <ele>3</ele>
        <time>2017-01-21T14:43:25Z</time>
      </trkpt>
      <trkpt lat="49.46011" lon="0.93883">
        <ele>3</ele>
        <time>2017-01-21T14:43:40Z</time>
      </trkpt>
      <trkpt lat="49.46014" lon="0.93883">
        <ele>3</ele>
        <time>2017-01-21T14:43:40Z</time>
      </trkpt>
      <trkpt lat="49.46018" lon="0.93881">
        <ele>3</ele>
        <time>2017-01-21T14:43:40Z</time>
      </trkpt>
      <trkpt lat="49.46023" lon="0.93879">
        <ele>3</ele>
        <time>2017-01-21T14:43:40Z</time>
      </trkpt>
      <trkpt lat="49.46032" lon="0.93872">
        <ele>3</ele>
        <time>2017-01-21T14:44:50Z</time>
      </trkpt>
      <trkpt lat="49.46039" lon="0.9387">
        <ele>3</ele>
        <time>2017-01-21T14:44:50Z</time>
      </trkpt>
      <trkpt lat="49.46045" lon="0.93868">
        <ele>4</ele>
        <time>2017-01-21T14:44:50Z</time>
      </trkpt>
      <trkpt lat="49.46051" lon="0.93867">
        <ele>4</ele>
        <time>2017-01-21T14:44:51Z</time>
      </trkpt>
      <trkpt lat="49.46055" lon="0.93864">
        <ele>4</ele>
        <time>2017-01-21T14:44:51Z</time>
      </trkpt>
      <trkpt lat="49.46059" lon="0.93863">
        <ele>4</ele>
        <time>2017-01-21T14:45:04Z</time>
      </trkpt>
      <trkpt lat="49.46065" lon="0.9386">
        <ele>4</ele>
        <time>2017-01-21T14:45:06Z</time>
      </trkpt>
      <trkpt lat="49.46068" lon="0.93858">
        <ele>4</ele>
        <time>2017-01-21T14:45:06Z</time>
      </trkpt>
      <trkpt lat="49.46072" lon="0.93856">
        <ele>4</ele>
        <time>2017-01-21T14:45:06Z</time>
      </trkpt>
      <trkpt lat="49.46081" lon="0.93853">
        <ele>4</ele>
        <time>2017-01-21T14:45:21Z</time>
      </trkpt>
      <trkpt lat="49.46086" lon="0.93851">
        <ele>4</ele>
        <time>2017-01-21T14:45:21Z</time>
      </trkpt>
      <trkpt lat="49.46091" lon="0.93849">
        <ele>4</ele>
        <time>2017-01-21T14:45:21Z</time>
      </trkpt>
      <trkpt lat="49.46094" lon="0.93847">
        <ele>4</ele>
        <time>2017-01-21T14:45:21Z</time>
      </trkpt>
      <trkpt lat="49.46097" lon="0.93845">
        <ele>4</ele>
        <time>2017-01-21T14:45:40Z</time>
      </trkpt>
      <trkpt lat="49.46102" lon="0.93843">
        <ele>4</ele>
        <time>2017-01-21T14:45:40Z</time>
      </trkpt>
      <trkpt lat="49.46109" lon="0.93841">
        <ele>4</ele>
        <time>2017-01-21T14:45:40Z</time>
      </trkpt>
      <trkpt lat="49.46113" lon="0.93839">
        <ele>4</ele>
        <time>2017-01-21T14:45:40Z</time>
      </trkpt>
      <trkpt lat="49.46117" lon="0.93836">
        <ele>4</ele>
        <time>2017-01-21T14:45:58Z</time>
      </trkpt>
      <trkpt lat="49.46122" lon="0.93834">
        <ele>4</ele>
        <time>2017-01-21T14:45:58Z</time>
      </trkpt>
      <trkpt lat="49.46128" lon="0.93831">
        <ele>3</ele>
        <time>2017-01-21T14:45:58Z</time>
      </trkpt>
      <trkpt lat="49.46135" lon="0.93828">
        <ele>3</ele>
        <time>2017-01-21T14:45:58Z</time>
      </trkpt>
      <trkpt lat="49.46138" lon="0.93825">
        <ele>3</ele>
        <time>2017-01-21T14:46:12Z</time>
      </trkpt>
      <trkpt lat="49.46144" lon="0.93822">
        <ele>3</ele>
        <time>2017-01-21T14:46:12Z</time>
      </trkpt>
      <trkpt lat="49.46149" lon="0.9382">
        <ele>3</ele>
        <time>2017-01-21T14:46:12Z</time>
      </trkpt>
      <trkpt lat="49.46155" lon="0.93817">
        <ele>3</ele>
        <time>2017-01-21T14:46:12Z</time>
      </trkpt>
      <trkpt lat="49.46158" lon="0.93817">
        <ele>3</ele>
        <time>2017-01-21T14:46:28Z</time>
      </trkpt>
      <trkpt lat="49.46164" lon="0.93813">
        <ele>3</ele>
        <time>2017-01-21T14:46:28Z</time>
      </trkpt>
      <trkpt lat="49.46171" lon="0.9381">
        <ele>3</ele>
        <time>2017-01-21T14:46:28Z</time>
      </trkpt>
      <trkpt lat="49.46177" lon="0.93807">
        <ele>3</ele>
        <time>2017-01-21T14:46:28Z</time>
      </trkpt>
      <trkpt lat="49.46181" lon="0.93804">
        <ele>3</ele>
        <time>2017-01-21T14:46:44Z</time>
      </trkpt>
      <trkpt lat="49.46186" lon="0.93801">
        <ele>3</ele>
        <time>2017-01-21T14:46:46Z</time>
      </trkpt>
      <trkpt lat="49.46191" lon="0.93799">
        <ele>3</ele>
        <time>2017-01-21T14:46:46Z</time>
      </trkpt>
      <trkpt lat="49.46197" lon="0.93797">
        <ele>3</ele>
        <time>2017-01-21T14:46:46Z</time>
      </trkpt>
      <trkpt lat="49.46202" lon="0.93794">
        <ele>3</ele>
        <time>2017-01-21T14:47:08Z</time>
      </trkpt>
      <trkpt lat="49.46206" lon="0.93791">
        <ele>6</ele>
        <time>2017-01-21T14:47:08Z</time>
      </trkpt>
      <trkpt lat="49.46219" lon="0.93784">
        <ele>4</ele>
        <time>2017-01-21T14:47:08Z</time>
      </trkpt>
      <trkpt lat="49.46227" lon="0.9378">
        <ele>4</ele>
        <time>2017-01-21T14:47:08Z</time>
      </trkpt>
      <trkpt lat="49.46232" lon="0.93777">
        <ele>4</ele>
        <time>2017-01-21T14:47:26Z</time>
      </trkpt>
      <trkpt lat="49.46237" lon="0.93773">
        <ele>4</ele>
        <time>2017-01-21T14:47:27Z</time>
      </trkpt>
      <trkpt lat="49.4624" lon="0.93769">
        <ele>4</ele>
        <time>2017-01-21T14:47:27Z</time>
      </trkpt>
      <trkpt lat="49.46245" lon="0.93764">
        <ele>4</ele>
        <time>2017-01-21T14:47:27Z</time>
      </trkpt>
      <trkpt lat="49.46249" lon="0.93759">
        <ele>4</ele>
        <time>2017-01-21T14:47:41Z</time>
      </trkpt>
      <trkpt lat="49.46254" lon="0.93753">
        <ele>4</ele>
        <time>2017-01-21T14:47:41Z</time>
      </trkpt>
      <trkpt lat="49.46258" lon="0.93749">
        <ele>4</ele>
        <time>2017-01-21T14:47:41Z</time>
      </trkpt>
      <trkpt lat="49.46262" lon="0.93746">
        <ele>4</ele>
        <time>2017-01-21T14:47:41Z</time>
      </trkpt>
      <trkpt lat="49.46277" lon="0.93738">
        <ele>4</ele>
        <time>2017-01-21T14:48:04Z</time>
      </trkpt>
      <trkpt lat="49.46283" lon="0.93737">
        <ele>4</ele>
        <time>2017-01-21T14:48:04Z</time>
      </trkpt>
      <trkpt lat="49.46289" lon="0.93733">
        <ele>4</ele>
        <time>2017-01-21T14:48:04Z</time>
      </trkpt>
      <trkpt lat="49.46291" lon="0.93731">
        <ele>4</ele>
        <time>2017-01-21T14:48:04Z</time>
      </trkpt>
      <trkpt lat="49.46298" lon="0.93723">
        <ele>3</ele>
        <time>2017-01-21T14:48:20Z</time>
      </trkpt>
      <trkpt lat="49.463" lon="0.93721">
        <ele>3</ele>
        <time>2017-01-21T14:48:20Z</time>
      </trkpt>
      <trkpt lat="49.46306" lon="0.93719">
        <ele>3</ele>
        <time>2017-01-21T14:48:20Z</time>
      </trkpt>
      <trkpt lat="49.46311" lon="0.93714">
        <ele>3</ele>
        <time>2017-01-21T14:48:20Z</time>
      </trkpt>
      <trkpt lat="49.46316" lon="0.93711">
        <ele>3</ele>
        <time>2017-01-21T14:48:36Z</time>
      </trkpt>
      <trkpt lat="49.46321" lon="0.93708">
        <ele>5</ele>
        <time>2017-01-21T14:48:36Z</time>
      </trkpt>
      <trkpt lat="49.46327" lon="0.93707">
        <ele>5</ele>
        <time>2017-01-21T14:48:36Z</time>
      </trkpt>
      <trkpt lat="49.46332" lon="0.93706">
        <ele>5</ele>
        <time>2017-01-21T14:48:36Z</time>
      </trkpt>
      <trkpt lat="49.46334" lon="0.93705">
        <ele>5</ele>
        <time>2017-01-21T14:48:52Z</time>
      </trkpt>
      <trkpt lat="49.46341" lon="0.93702">
        <ele>5</ele>
        <time>2017-01-21T14:48:52Z</time>
      </trkpt>
      <trkpt lat="49.46345" lon="0.93698">
        <ele>5</ele>
        <time>2017-01-21T14:48:52Z</time>
      </trkpt>
      <trkpt lat="49.4635" lon="0.93694">
        <ele>5</ele>
        <time>2017-01-21T14:48:52Z</time>
      </trkpt>
      <trkpt lat="49.46351" lon="0.93693">
        <ele>5</ele>
        <time>2017-01-21T14:49:21Z</time>
      </trkpt>
      <trkpt lat="49.46355" lon="0.93692">
        <ele>5</ele>
        <time>2017-01-21T14:49:21Z</time>
      </trkpt>
      <trkpt lat="49.46373" lon="0.93687">
        <ele>5</ele>
        <time>2017-01-21T14:49:21Z</time>
      </trkpt>
      <trkpt lat="49.46375" lon="0.93684">
        <ele>5</ele>
        <time>2017-01-21T14:49:21Z</time>
      </trkpt>
      <trkpt lat="49.46378" lon="0.93683">
        <ele>2</ele>
        <time>2017-01-21T14:49:36Z</time>
      </trkpt>
      <trkpt lat="49.46385" lon="0.93679">
        <ele>2</ele>
        <time>2017-01-21T14:49:36Z</time>
      </trkpt>
      <trkpt lat="49.4639" lon="0.93677">
        <ele>2</ele>
        <time>2017-01-21T14:49:36Z</time>
      </trkpt>
      <trkpt lat="49.46397" lon="0.93675">
        <ele>2</ele>
        <time>2017-01-21T14:49:36Z</time>
      </trkpt>
      <trkpt lat="49.46405" lon="0.93671">
        <ele>2</ele>
        <time>2017-01-21T14:49:57Z</time>
      </trkpt>
      <trkpt lat="49.46409" lon="0.93671">
        <ele>2</ele>
        <time>2017-01-21T14:49:57Z</time>
      </trkpt>
      <trkpt lat="49.46413" lon="0.93668">
        <ele>2</ele>
        <time>2017-01-21T14:49:57Z</time>
      </trkpt>
      <trkpt lat="49.46418" lon="0.93666">
        <ele>2</ele>
        <time>2017-01-21T14:49:57Z</time>
      </trkpt>
      <trkpt lat="49.46428" lon="0.93661">
        <ele>2</ele>
        <time>2017-01-21T14:50:17Z</time>
      </trkpt>
      <trkpt lat="49.46432" lon="0.93659">
        <ele>2</ele>
        <time>2017-01-21T14:50:17Z</time>
      </trkpt>
      <trkpt lat="49.46436" lon="0.93657">
        <ele>2</ele>
        <time>2017-01-21T14:50:17Z</time>
      </trkpt>
      <trkpt lat="49.46441" lon="0.93656">
        <ele>2</ele>
        <time>2017-01-21T14:50:17Z</time>
      </trkpt>
      <trkpt lat="49.46448" lon="0.93653">
        <ele>2</ele>
        <time>2017-01-21T14:50:33Z</time>
      </trkpt>
      <trkpt lat="49.46454" lon="0.93651">
        <ele>2</ele>
        <time>2017-01-21T14:50:33Z</time>
      </trkpt>
      <trkpt lat="49.46459" lon="0.9365">
        <ele>5</ele>
        <time>2017-01-21T14:50:33Z</time>
      </trkpt>
      <trkpt lat="49.46462" lon="0.93648">
        <ele>5</ele>
        <time>2017-01-21T14:50:33Z</time>
      </trkpt>
      <trkpt lat="49.46467" lon="0.93648">
        <ele>5</ele>
        <time>2017-01-21T14:50:50Z</time>
      </trkpt>
      <trkpt lat="49.46472" lon="0.93646">
        <ele>5</ele>
        <time>2017-01-21T14:50:50Z</time>
      </trkpt>
      <trkpt lat="49.46477" lon="0.93644">
        <ele>5</ele>
        <time>2017-01-21T14:50:50Z</time>
      </trkpt>
      <trkpt lat="49.46483" lon="0.9364">
        <ele>5</ele>
        <time>2017-01-21T14:50:50Z</time>
      </trkpt>
      <trkpt lat="49.46488" lon="0.93639">
        <ele>5</ele>
        <time>2017-01-21T14:51:04Z</time>
      </trkpt>
      <trkpt lat="49.46489" lon="0.93638">
        <ele>5</ele>
        <time>2017-01-21T14:51:04Z</time>
      </trkpt>
      <trkpt lat="49.46498" lon="0.93635">
        <ele>5</ele>
        <time>2017-01-21T14:51:04Z</time>
      </trkpt>
      <trkpt lat="49.46502" lon="0.93634">
        <ele>5</ele>
        <time>2017-01-21T14:51:06Z</time>
      </trkpt>
      <trkpt lat="49.46505" lon="0.93633">
        <ele>5</ele>
        <time>2017-01-21T14:51:26Z</time>
      </trkpt>
      <trkpt lat="49.46516" lon="0.93631">
        <ele>5</ele>
        <time>2017-01-21T14:51:26Z</time>
      </trkpt>
      <trkpt lat="49.46519" lon="0.93629">
        <ele>5</ele>
        <time>2017-01-21T14:51:26Z</time>
      </trkpt>
      <trkpt lat="49.46524" lon="0.93626">
        <ele>5</ele>
        <time>2017-01-21T14:51:26Z</time>
      </trkpt>
      <trkpt lat="49.46543" lon="0.93617">
        <ele>6</ele>
        <time>2017-01-21T14:51:54Z</time>
      </trkpt>
      <trkpt lat="49.46548" lon="0.93616">
        <ele>6</ele>
        <time>2017-01-21T14:51:54Z</time>
      </trkpt>
      <trkpt lat="49.46553" lon="0.93613">
        <ele>6</ele>
        <time>2017-01-21T14:51:54Z</time>
      </trkpt>
      <trkpt lat="49.46558" lon="0.93612">
        <ele>6</ele>
        <time>2017-01-21T14:51:54Z</time>
      </trkpt>
      <trkpt lat="49.46562" lon="0.9361">
        <ele>6</ele>
        <time>2017-01-21T14:52:09Z</time>
      </trkpt>
      <trkpt lat="49.46566" lon="0.93609">
        <ele>6</ele>
        <time>2017-01-21T14:52:09Z</time>
      </trkpt>
      <trkpt lat="49.46572" lon="0.93606">
        <ele>6</ele>
        <time>2017-01-21T14:52:09Z</time>
      </trkpt>
      <trkpt lat="49.46575" lon="0.93605">
        <ele>6</ele>
        <time>2017-01-21T14:52:09Z</time>
      </trkpt>
      <trkpt lat="49.46588" lon="0.936">
        <ele>6</ele>
        <time>2017-01-21T14:52:28Z</time>
      </trkpt>
      <trkpt lat="49.46596" lon="0.93598">
        <ele>6</ele>
        <time>2017-01-21T14:52:28Z</time>
      </trkpt>
      <trkpt lat="49.466" lon="0.93597">
        <ele>6</ele>
        <time>2017-01-21T14:52:29Z</time>
      </trkpt>
      <trkpt lat="49.46604" lon="0.93599">
        <ele>6</ele>
        <time>2017-01-21T14:52:29Z</time>
      </trkpt>
      <trkpt lat="49.46605" lon="0.93602">
        <ele>6</ele>
        <time>2017-01-21T14:52:44Z</time>
      </trkpt>
      <trkpt lat="49.46606" lon="0.9361">
        <ele>6</ele>
        <time>2017-01-21T14:52:44Z</time>
      </trkpt>
      <trkpt lat="49.46607" lon="0.93618">
        <ele>6</ele>
        <time>2017-01-21T14:52:44Z</time>
      </trkpt>
      <trkpt lat="49.46607" lon="0.93626">
        <ele>6</ele>
        <time>2017-01-21T14:52:44Z</time>
      </trkpt>
      <trkpt lat="49.46607" lon="0.93632">
        <ele>6</ele>
        <time>2017-01-21T14:53:00Z</time>
      </trkpt>
      <trkpt lat="49.46608" lon="0.93638">
        <ele>6</ele>
        <time>2017-01-21T14:53:00Z</time>
      </trkpt>
      <trkpt lat="49.46609" lon="0.93647">
        <ele>6</ele>
        <time>2017-01-21T14:53:00Z</time>
      </trkpt>
      <trkpt lat="49.46609" lon="0.9365">
        <ele>6</ele>
        <time>2017-01-21T14:53:00Z</time>
      </trkpt>
      <trkpt lat="49.4661" lon="0.93661">
        <ele>6</ele>
        <time>2017-01-21T14:53:16Z</time>
      </trkpt>
      <trkpt lat="49.4661" lon="0.93668">
        <ele>6</ele>
        <time>2017-01-21T14:53:16Z</time>
      </trkpt>
      <trkpt lat="49.4661" lon="0.93672">
        <ele>6</ele>
        <time>2017-01-21T14:53:16Z</time>
      </trkpt>
      <trkpt lat="49.46611" lon="0.93682">
        <ele>6</ele>
        <time>2017-01-21T14:53:16Z</time>
      </trkpt>
      <trkpt lat="49.46612" lon="0.93688">
        <ele>6</ele>
        <time>2017-01-21T14:53:32Z</time>
      </trkpt>
      <trkpt lat="49.46613" lon="0.93695">
        <ele>6</ele>
        <time>2017-01-21T14:53:32Z</time>
      </trkpt>
      <trkpt lat="49.46614" lon="0.93705">
        <ele>6</ele>
        <time>2017-01-21T14:53:32Z</time>
      </trkpt>
      <trkpt lat="49.46614" lon="0.93708">
        <ele>6</ele>
        <time>2017-01-21T14:53:32Z</time>
      </trkpt>
      <trkpt lat="49.46615" lon="0.93726">
        <ele>3</ele>
        <time>2017-01-21T14:53:52Z</time>
      </trkpt>
      <trkpt lat="49.46616" lon="0.93733">
        <ele>3</ele>
        <time>2017-01-21T14:53:53Z</time>
      </trkpt>
      <trkpt lat="49.46617" lon="0.9374">
        <ele>3</ele>
        <time>2017-01-21T14:53:53Z</time>
      </trkpt>
      <trkpt lat="49.46617" lon="0.93747">
        <ele>3</ele>
        <time>2017-01-21T14:53:53Z</time>
      </trkpt>
      <trkpt lat="49.46618" lon="0.93754">
        <ele>3</ele>
        <time>2017-01-21T14:54:10Z</time>
      </trkpt>
      <trkpt lat="49.46619" lon="0.93764">
        <ele>3</ele>
        <time>2017-01-21T14:54:10Z</time>
      </trkpt>
      <trkpt lat="49.46619" lon="0.93772">
        <ele>3</ele>
        <time>2017-01-21T14:54:10Z</time>
      </trkpt>
      <trkpt lat="49.4662" lon="0.93778">
        <ele>3</ele>
        <time>2017-01-21T14:54:10Z</time>
      </trkpt>
      <trkpt lat="49.46623" lon="0.93795">
        <ele>5</ele>
        <time>2017-01-21T14:54:28Z</time>
      </trkpt>
      <trkpt lat="49.46624" lon="0.93803">
        <ele>5</ele>
        <time>2017-01-21T14:54:29Z</time>
      </trkpt>
      <trkpt lat="49.46626" lon="0.93811">
        <ele>3</ele>
        <time>2017-01-21T14:54:29Z</time>
      </trkpt>
      <trkpt lat="49.46628" lon="0.93818">
        <ele>3</ele>
        <time>2017-01-21T14:54:31Z</time>
      </trkpt>
      <trkpt lat="49.4663" lon="0.93824">
        <ele>3</ele>
        <time>2017-01-21T14:54:45Z</time>
      </trkpt>
      <trkpt lat="49.46632" lon="0.93831">
        <ele>3</ele>
        <time>2017-01-21T14:54:45Z</time>
      </trkpt>
      <trkpt lat="49.46635" lon="0.93838">
        <ele>3</ele>
        <time>2017-01-21T14:54:45Z</time>
      </trkpt>
      <trkpt lat="49.46638" lon="0.93845">
        <ele>3</ele>
        <time>2017-01-21T14:54:45Z</time>
      </trkpt>
      <trkpt lat="49.46641" lon="0.93851">
        <ele>3</ele>
        <time>2017-01-21T14:55:00Z</time>
      </trkpt>
      <trkpt lat="49.46645" lon="0.93858">
        <ele>3</ele>
        <time>2017-01-21T14:55:00Z</time>
      </trkpt>
      <trkpt lat="49.46646" lon="0.93861">
        <ele>3</ele>
        <time>2017-01-21T14:55:00Z</time>
      </trkpt>
      <trkpt lat="49.46651" lon="0.93869">
        <ele>3</ele>
        <time>2017-01-21T14:55:00Z</time>
      </trkpt>
      <trkpt lat="49.46655" lon="0.93873">
        <ele>3</ele>
        <time>2017-01-21T14:55:17Z</time>
      </trkpt>
      <trkpt lat="49.46659" lon="0.93879">
        <ele>5</ele>
        <time>2017-01-21T14:55:17Z</time>
      </trkpt>
      <trkpt lat="49.46661" lon="0.93882">
        <ele>5</ele>
        <time>2017-01-21T14:55:17Z</time>
      </trkpt>
      <trkpt lat="49.46664" lon="0.93887">
        <ele>5</ele>
        <time>2017-01-21T14:55:17Z</time>
      </trkpt>
      <trkpt lat="49.46668" lon="0.93892">
        <ele>5</ele>
        <time>2017-01-21T14:55:34Z</time>
      </trkpt>
      <trkpt lat="49.46671" lon="0.93897">
        <ele>5</ele>
        <time>2017-01-21T14:55:34Z</time>
      </trkpt>
      <trkpt lat="49.46676" lon="0.93904">
        <ele>5</ele>
        <time>2017-01-21T14:55:34Z</time>
      </trkpt>
      <trkpt lat="49.46679" lon="0.93909">
        <ele>5</ele>
        <time>2017-01-21T14:55:34Z</time>
      </trkpt>
      <trkpt lat="49.46684" lon="0.93914">
        <ele>5</ele>
        <time>2017-01-21T14:55:48Z</time>
      </trkpt>
      <trkpt lat="49.46688" lon="0.93918">
        <ele>5</ele>
        <time>2017-01-21T14:55:48Z</time>
      </trkpt>
      <trkpt lat="49.4669" lon="0.9392">
        <ele>5</ele>
        <time>2017-01-21T14:55:49Z</time>
      </trkpt>
      <trkpt lat="49.46694" lon="0.93927">
        <ele>5</ele>
        <time>2017-01-21T14:55:49Z</time>
      </trkpt>
      <trkpt lat="49.46698" lon="0.93933">
        <ele>5</ele>
        <time>2017-01-21T14:56:05Z</time>
      </trkpt>
      <trkpt lat="49.46699" lon="0.93936">
        <ele>5</ele>
        <time>2017-01-21T14:56:05Z</time>
      </trkpt>
      <trkpt lat="49.46701" lon="0.93937">
        <ele>5</ele>
        <time>2017-01-21T14:56:05Z</time>
      </trkpt>
      <trkpt lat="49.46706" lon="0.93942">
        <ele>5</ele>
        <time>2017-01-21T14:56:05Z</time>
      </trkpt>
      <trkpt lat="49.46709" lon="0.93949">
        <ele>4</ele>
        <time>2017-01-21T14:56:20Z</time>
      </trkpt>
      <trkpt lat="49.46713" lon="0.93953">
        <ele>4</ele>
        <time>2017-01-21T14:56:20Z</time>
      </trkpt>
      <trkpt lat="49.46716" lon="0.93961">
        <ele>4</ele>
        <time>2017-01-21T14:56:20Z</time>
      </trkpt>
      <trkpt lat="49.46719" lon="0.93967">
        <ele>4</ele>
        <time>2017-01-21T14:56:20Z</time>
      </trkpt>
      <trkpt lat="49.46723" lon="0.93972">
        <ele>4</ele>
        <time>2017-01-21T14:56:37Z</time>
      </trkpt>
      <trkpt lat="49.46726" lon="0.93975">
        <ele>4</ele>
        <time>2017-01-21T14:56:37Z</time>
      </trkpt>
      <trkpt lat="49.46729" lon="0.93982">
        <ele>4</ele>
        <time>2017-01-21T14:56:37Z</time>
      </trkpt>
      <trkpt lat="49.46733" lon="0.93987">
        <ele>4</ele>
        <time>2017-01-21T14:56:37Z</time>
      </trkpt>
      <trkpt lat="49.46734" lon="0.93992">
        <ele>4</ele>
        <time>2017-01-21T14:56:53Z</time>
      </trkpt>
      <trkpt lat="49.46738" lon="0.93998">
        <ele>4</ele>
        <time>2017-01-21T14:56:53Z</time>
      </trkpt>
      <trkpt lat="49.46741" lon="0.94004">
        <ele>4</ele>
        <time>2017-01-21T14:56:53Z</time>
      </trkpt>
      <trkpt lat="49.46745" lon="0.94009">
        <ele>4</ele>
        <time>2017-01-21T14:56:53Z</time>
      </trkpt>
      <trkpt lat="49.46749" lon="0.94017">
        <ele>4</ele>
        <time>2017-01-21T14:57:08Z</time>
      </trkpt>
      <trkpt lat="49.46752" lon="0.94022">
        <ele>4</ele>
        <time>2017-01-21T14:57:08Z</time>
      </trkpt>
      <trkpt lat="49.46753" lon="0.9403">
        <ele>4</ele>
        <time>2017-01-21T14:57:11Z</time>
      </trkpt>
      <trkpt lat="49.46757" lon="0.94036">
        <ele>4</ele>
        <time>2017-01-21T14:57:11Z</time>
      </trkpt>
      <trkpt lat="49.46759" lon="0.94041">
        <ele>4</ele>
        <time>2017-01-21T14:57:24Z</time>
      </trkpt>
      <trkpt lat="49.46763" lon="0.9405">
        <ele>4</ele>
        <time>2017-01-21T14:57:24Z</time>
      </trkpt>
      <trkpt lat="49.46765" lon="0.94057">
        <ele>4</ele>
        <time>2017-01-21T14:57:24Z</time>
      </trkpt>
      <trkpt lat="49.46767" lon="0.94064">
        <ele>4</ele>
        <time>2017-01-21T14:57:24Z</time>
      </trkpt>
      <trkpt lat="49.46768" lon="0.94069">
        <ele>4</ele>
        <time>2017-01-21T14:57:40Z</time>
      </trkpt>
      <trkpt lat="49.4677" lon="0.94075">
        <ele>4</ele>
        <time>2017-01-21T14:57:40Z</time>
      </trkpt>
      <trkpt lat="49.46772" lon="0.94083">
        <ele>4</ele>
        <time>2017-01-21T14:57:40Z</time>
      </trkpt>
      <trkpt lat="49.46774" lon="0.94091">
        <ele>4</ele>
        <time>2017-01-21T14:57:40Z</time>
      </trkpt>
      <trkpt lat="49.46776" lon="0.94097">
        <ele>4</ele>
        <time>2017-01-21T14:57:57Z</time>
      </trkpt>
      <trkpt lat="49.46779" lon="0.94103">
        <ele>4</ele>
        <time>2017-01-21T14:57:57Z</time>
      </trkpt>
      <trkpt lat="49.46781" lon="0.94111">
        <ele>4</ele>
        <time>2017-01-21T14:57:57Z</time>
      </trkpt>
      <trkpt lat="49.46784" lon="0.94118">
        <ele>4</ele>
        <time>2017-01-21T14:57:57Z</time>
      </trkpt>
      <trkpt lat="49.46787" lon="0.94124">
        <ele>4</ele>
        <time>2017-01-21T14:58:13Z</time>
      </trkpt>
      <trkpt lat="49.46791" lon="0.9413">
        <ele>3</ele>
        <time>2017-01-21T14:58:13Z</time>
      </trkpt>
      <trkpt lat="49.46791" lon="0.94133">
        <ele>3</ele>
        <time>2017-01-21T14:58:13Z</time>
      </trkpt>
      <trkpt lat="49.46795" lon="0.94142">
        <ele>6</ele>
        <time>2017-01-21T14:58:13Z</time>
      </trkpt>
      <trkpt lat="49.46797" lon="0.94155">
        <ele>6</ele>
        <time>2017-01-21T14:58:32Z</time>
      </trkpt>
      <trkpt lat="49.468" lon="0.94162">
        <ele>6</ele>
        <time>2017-01-21T14:58:32Z</time>
      </trkpt>
      <trkpt lat="49.46802" lon="0.9417">
        <ele>6</ele>
        <time>2017-01-21T14:58:32Z</time>
      </trkpt>
      <trkpt lat="49.46805" lon="0.94176">
        <ele>6</ele>
        <time>2017-01-21T14:58:32Z</time>
      </trkpt>
      <trkpt lat="49.46808" lon="0.94181">
        <ele>6</ele>
        <time>2017-01-21T14:58:49Z</time>
      </trkpt>
      <trkpt lat="49.46811" lon="0.94186">
        <ele>6</ele>
        <time>2017-01-21T14:58:49Z</time>
      </trkpt>
      <trkpt lat="49.46814" lon="0.9419">
        <ele>6</ele>
        <time>2017-01-21T14:58:49Z</time>
      </trkpt>
      <trkpt lat="49.46817" lon="0.94195">
        <ele>6</ele>
        <time>2017-01-21T14:58:49Z</time>
      </trkpt>
      <trkpt lat="49.4682" lon="0.94201">
        <ele>6</ele>
        <time>2017-01-21T14:59:05Z</time>
      </trkpt>
      <trkpt lat="49.46823" lon="0.94207">
        <ele>6</ele>
        <time>2017-01-21T14:59:05Z</time>
      </trkpt>
      <trkpt lat="49.46825" lon="0.94215">
        <ele>2</ele>
        <time>2017-01-21T14:59:05Z</time>
      </trkpt>
      <trkpt lat="49.46827" lon="0.9422">
        <ele>2</ele>
        <time>2017-01-21T14:59:05Z</time>
      </trkpt>
      <trkpt lat="49.46828" lon="0.94226">
        <ele>2</ele>
        <time>2017-01-21T14:59:21Z</time>
      </trkpt>
      <trkpt lat="49.46832" lon="0.94235">
        <ele>2</ele>
        <time>2017-01-21T14:59:21Z</time>
      </trkpt>
      <trkpt lat="49.46835" lon="0.94242">
        <ele>2</ele>
        <time>2017-01-21T14:59:21Z</time>
      </trkpt>
      <trkpt lat="49.46838" lon="0.94246">
        <ele>2</ele>
        <time>2017-01-21T14:59:21Z</time>
      </trkpt>
      <trkpt lat="49.46841" lon="0.94253">
        <ele>2</ele>
        <time>2017-01-21T14:59:36Z</time>
      </trkpt>
      <trkpt lat="49.46843" lon="0.94259">
        <ele>2</ele>
        <time>2017-01-21T14:59:36Z</time>
      </trkpt>
      <trkpt lat="49.46845" lon="0.94265">
        <ele>2</ele>
        <time>2017-01-21T14:59:36Z</time>
      </trkpt>
      <trkpt lat="49.46848" lon="0.94274">
        <ele>2</ele>
        <time>2017-01-21T14:59:36Z</time>
      </trkpt>
      <trkpt lat="49.4685" lon="0.94281">
        <ele>2</ele>
        <time>2017-01-21T14:59:53Z</time>
      </trkpt>
      <trkpt lat="49.46852" lon="0.94287">
        <ele>2</ele>
        <time>2017-01-21T14:59:53Z</time>
      </trkpt>
      <trkpt lat="49.46855" lon="0.94293">
        <ele>2</ele>
        <time>2017-01-21T14:59:53Z</time>
      </trkpt>
      <trkpt lat="49.46858" lon="0.943">
        <ele>2</ele>
        <time>2017-01-21T14:59:53Z</time>
      </trkpt>
      <trkpt lat="49.46858" lon="0.94302">
        <ele>2</ele>
        <time>2017-01-21T15:00:21Z</time>
      </trkpt>
      <trkpt lat="49.46861" lon="0.94308">
        <ele>2</ele>
        <time>2017-01-21T15:00:22Z</time>
      </trkpt>
      <trkpt lat="49.46862" lon="0.94313">
        <ele>2</ele>
        <time>2017-01-21T15:00:22Z</time>
      </trkpt>
      <trkpt lat="49.46864" lon="0.94319">
        <ele>2</ele>
        <time>2017-01-21T15:00:22Z</time>
      </trkpt>
      <trkpt lat="49.46867" lon="0.94325">
        <ele>2</ele>
        <time>2017-01-21T15:00:22Z</time>
      </trkpt>
      <trkpt lat="49.46872" lon="0.94336">
        <ele>2</ele>
        <time>2017-01-21T15:00:41Z</time>
      </trkpt>
      <trkpt lat="49.46876" lon="0.94342">
        <ele>5</ele>
        <time>2017-01-21T15:00:41Z</time>
      </trkpt>
      <trkpt lat="49.46878" lon="0.94348">
        <ele>5</ele>
        <time>2017-01-21T15:00:41Z</time>
      </trkpt>
      <trkpt lat="49.46879" lon="0.94355">
        <ele>5</ele>
        <time>2017-01-21T15:00:41Z</time>
      </trkpt>
      <trkpt lat="49.46885" lon="0.94367">
        <ele>5</ele>
        <time>2017-01-21T15:01:02Z</time>
      </trkpt>
      <trkpt lat="49.46888" lon="0.94373">
        <ele>5</ele>
        <time>2017-01-21T15:01:02Z</time>
      </trkpt>
      <trkpt lat="49.4689" lon="0.94377">
        <ele>4</ele>
        <time>2017-01-21T15:01:02Z</time>
      </trkpt>
      <trkpt lat="49.46891" lon="0.94385">
        <ele>4</ele>
        <time>2017-01-21T15:01:02Z</time>
      </trkpt>
      <trkpt lat="49.46892" lon="0.94391">
        <ele>4</ele>
        <time>2017-01-21T15:01:17Z</time>
      </trkpt>
      <trkpt lat="49.46893" lon="0.94396">
        <ele>4</ele>
        <time>2017-01-21T15:01:17Z</time>
      </trkpt>
      <trkpt lat="49.46896" lon="0.94403">
        <ele>4</ele>
        <time>2017-01-21T15:01:17Z</time>
      </trkpt>
      <trkpt lat="49.46898" lon="0.94409">
        <ele>4</ele>
        <time>2017-01-21T15:01:17Z</time>
      </trkpt>
      <trkpt lat="49.46902" lon="0.94418">
        <ele>4</ele>
        <time>2017-01-21T15:01:33Z</time>
      </trkpt>
      <trkpt lat="49.46905" lon="0.94422">
        <ele>4</ele>
        <time>2017-01-21T15:01:33Z</time>
      </trkpt>
      <trkpt lat="49.46908" lon="0.9443">
        <ele>4</ele>
        <time>2017-01-21T15:01:33Z</time>
      </trkpt>
      <trkpt lat="49.4691" lon="0.94435">
        <ele>4</ele>
        <time>2017-01-21T15:01:33Z</time>
      </trkpt>
      <trkpt lat="49.46911" lon="0.94442">
        <ele>4</ele>
        <time>2017-01-21T15:01:48Z</time>
      </trkpt>
      <trkpt lat="49.46916" lon="0.94446">
        <ele>4</ele>
        <time>2017-01-21T15:01:48Z</time>
      </trkpt>
      <trkpt lat="49.46918" lon="0.94452">
        <ele>4</ele>
        <time>2017-01-21T15:01:48Z</time>
      </trkpt>
      <trkpt lat="49.46919" lon="0.94456">
        <ele>4</ele>
        <time>2017-01-21T15:01:48Z</time>
      </trkpt>
      <trkpt lat="49.46924" lon="0.9447">
        <ele>5</ele>
        <time>2017-01-21T15:02:08Z</time>
      </trkpt>
      <trkpt lat="49.46927" lon="0.94476">
        <ele>5</ele>
        <time>2017-01-21T15:02:08Z</time>
      </trkpt>
      <trkpt lat="49.4693" lon="0.94486">
        <ele>5</ele>
        <time>2017-01-21T15:02:08Z</time>
      </trkpt>
      <trkpt lat="49.46932" lon="0.94492">
        <ele>5</ele>
        <time>2017-01-21T15:02:08Z</time>
      </trkpt>
      <trkpt lat="49.46934" lon="0.94499">
        <ele>5</ele>
        <time>2017-01-21T15:02:24Z</time>
      </trkpt>
      <trkpt lat="49.46935" lon="0.94506">
        <ele>5</ele>
        <time>2017-01-21T15:02:24Z</time>
      </trkpt>
      <trkpt lat="49.46935" lon="0.94511">
        <ele>5</ele>
        <time>2017-01-21T15:02:24Z</time>
      </trkpt>
      <trkpt lat="49.46937" lon="0.94519">
        <ele>5</ele>
        <time>2017-01-21T15:02:24Z</time>
      </trkpt>
      <trkpt lat="49.46938" lon="0.94524">
        <ele>5</ele>
        <time>2017-01-21T15:02:41Z</time>
      </trkpt>
      <trkpt lat="49.46941" lon="0.9453">
        <ele>5</ele>
        <time>2017-01-21T15:02:41Z</time>
      </trkpt>
      <trkpt lat="49.46945" lon="0.94538">
        <ele>5</ele>
        <time>2017-01-21T15:02:41Z</time>
      </trkpt>
      <trkpt lat="49.46947" lon="0.94544">
        <ele>5</ele>
        <time>2017-01-21T15:02:41Z</time>
      </trkpt>
      <trkpt lat="49.4695" lon="0.94552">
        <ele>5</ele>
        <time>2017-01-21T15:03:00Z</time>
      </trkpt>
      <trkpt lat="49.46953" lon="0.94564">
        <ele>5</ele>
        <time>2017-01-21T15:03:00Z</time>
      </trkpt>
      <trkpt lat="49.46955" lon="0.9457">
        <ele>5</ele>
        <time>2017-01-21T15:03:00Z</time>
      </trkpt>
      <trkpt lat="49.46956" lon="0.94575">
        <ele>5</ele>
        <time>2017-01-21T15:03:00Z</time>
      </trkpt>
      <trkpt lat="49.46959" lon="0.94589">
        <ele>3</ele>
        <time>2017-01-21T15:03:21Z</time>
      </trkpt>
      <trkpt lat="49.46961" lon="0.94599">
        <ele>3</ele>
        <time>2017-01-21T15:03:21Z</time>
      </trkpt>
      <trkpt lat="49.46964" lon="0.94605">
        <ele>3</ele>
        <time>2017-01-21T15:03:21Z</time>
      </trkpt>
      <trkpt lat="49.46966" lon="0.94609">
        <ele>3</ele>
        <time>2017-01-21T15:03:21Z</time>
      </trkpt>
      <trkpt lat="49.46967" lon="0.94616">
        <ele>3</ele>
        <time>2017-01-21T15:03:36Z</time>
      </trkpt>
      <trkpt lat="49.46971" lon="0.94625">
        <ele>3</ele>
        <time>2017-01-21T15:03:36Z</time>
      </trkpt>
      <trkpt lat="49.46973" lon="0.94632">
        <ele>3</ele>
        <time>2017-01-21T15:03:36Z</time>
      </trkpt>
      <trkpt lat="49.46976" lon="0.94637">
        <ele>3</ele>
        <time>2017-01-21T15:03:36Z</time>
      </trkpt>
      <trkpt lat="49.46978" lon="0.94642">
        <ele>3</ele>
        <time>2017-01-21T15:03:52Z</time>
      </trkpt>
      <trkpt lat="49.46981" lon="0.9465">
        <ele>3</ele>
        <time>2017-01-21T15:03:52Z</time>
      </trkpt>
      <trkpt lat="49.46983" lon="0.94655">
        <ele>3</ele>
        <time>2017-01-21T15:03:52Z</time>
      </trkpt>
      <trkpt lat="49.46985" lon="0.94662">
        <ele>3</ele>
        <time>2017-01-21T15:03:52Z</time>
      </trkpt>
      <trkpt lat="49.46988" lon="0.94669">
        <ele>3</ele>
        <time>2017-01-21T15:04:08Z</time>
      </trkpt>
      <trkpt lat="49.46991" lon="0.94675">
        <ele>3</ele>
        <time>2017-01-21T15:04:08Z</time>
      </trkpt>
      <trkpt lat="49.46992" lon="0.94683">
        <ele>3</ele>
        <time>2017-01-21T15:04:08Z</time>
      </trkpt>
      <trkpt lat="49.46993" lon="0.94687">
        <ele>3</ele>
        <time>2017-01-21T15:04:08Z</time>
      </trkpt>
      <trkpt lat="49.46994" lon="0.9469">
        <ele>3</ele>
        <time>2017-01-21T15:04:24Z</time>
      </trkpt>
      <trkpt lat="49.47" lon="0.94702">
        <ele>3</ele>
        <time>2017-01-21T15:04:24Z</time>
      </trkpt>
      <trkpt lat="49.47002" lon="0.94709">
        <ele>3</ele>
        <time>2017-01-21T15:04:24Z</time>
      </trkpt>
      <trkpt lat="49.47005" lon="0.94716">
        <ele>3</ele>
        <time>2017-01-21T15:04:24Z</time>
      </trkpt>
      <trkpt lat="49.4701" lon="0.94732">
        <ele>3</ele>
        <time>2017-01-21T15:04:46Z</time>
      </trkpt>
      <trkpt lat="49.47012" lon="0.94738">
        <ele>3</ele>
        <time>2017-01-21T15:04:46Z</time>
      </trkpt>
      <trkpt lat="49.47015" lon="0.94744">
        <ele>3</ele>
        <time>2017-01-21T15:04:46Z</time>
      </trkpt>
      <trkpt lat="49.47017" lon="0.94749">
        <ele>3</ele>
        <time>2017-01-21T15:04:46Z</time>
      </trkpt>
      <trkpt lat="49.47019" lon="0.94758">
        <ele>3</ele>
        <time>2017-01-21T15:05:00Z</time>
      </trkpt>
      <trkpt lat="49.47021" lon="0.94764">
        <ele>3</ele>
        <time>2017-01-21T15:05:01Z</time>
      </trkpt>
      <trkpt lat="49.47022" lon="0.9477">
        <ele>3</ele>
        <time>2017-01-21T15:05:01Z</time>
      </trkpt>
      <trkpt lat="49.47023" lon="0.94776">
        <ele>3</ele>
        <time>2017-01-21T15:05:01Z</time>
      </trkpt>
      <trkpt lat="49.47022" lon="0.94781">
        <ele>3</ele>
        <time>2017-01-21T15:05:16Z</time>
      </trkpt>
      <trkpt lat="49.47021" lon="0.94787">
        <ele>3</ele>
        <time>2017-01-21T15:05:16Z</time>
      </trkpt>
      <trkpt lat="49.47018" lon="0.94796">
        <ele>5</ele>
        <time>2017-01-21T15:05:16Z</time>
      </trkpt>
      <trkpt lat="49.47014" lon="0.94801">
        <ele>5</ele>
        <time>2017-01-21T15:05:16Z</time>
      </trkpt>
      <trkpt lat="49.47008" lon="0.94808">
        <ele>5</ele>
        <time>2017-01-21T15:05:36Z</time>
      </trkpt>
      <trkpt lat="49.47001" lon="0.94817">
        <ele>5</ele>
        <time>2017-01-21T15:05:36Z</time>
      </trkpt>
      <trkpt lat="49.46999" lon="0.9482">
        <ele>5</ele>
        <time>2017-01-21T15:05:36Z</time>
      </trkpt>
      <trkpt lat="49.46998" lon="0.94827">
        <ele>5</ele>
        <time>2017-01-21T15:05:36Z</time>
      </trkpt>
      <trkpt lat="49.46998" lon="0.94832">
        <ele>5</ele>
        <time>2017-01-21T15:05:52Z</time>
      </trkpt>
      <trkpt lat="49.46999" lon="0.9484">
        <ele>5</ele>
        <time>2017-01-21T15:05:52Z</time>
      </trkpt>
      <trkpt lat="49.47001" lon="0.94847">
        <ele>5</ele>
        <time>2017-01-21T15:05:52Z</time>
      </trkpt>
      <trkpt lat="49.47003" lon="0.94853">
        <ele>5</ele>
        <time>2017-01-21T15:05:52Z</time>
      </trkpt>
      <trkpt lat="49.47005" lon="0.9486">
        <ele>5</ele>
        <time>2017-01-21T15:06:08Z</time>
      </trkpt>
      <trkpt lat="49.47007" lon="0.94867">
        <ele>5</ele>
        <time>2017-01-21T15:06:08Z</time>
      </trkpt>
      <trkpt lat="49.47008" lon="0.94872">
        <ele>5</ele>
        <time>2017-01-21T15:06:08Z</time>
      </trkpt>
      <trkpt lat="49.4701" lon="0.94877">
        <ele>7</ele>
        <time>2017-01-21T15:06:08Z</time>
      </trkpt>
      <trkpt lat="49.47013" lon="0.94883">
        <ele>7</ele>
        <time>2017-01-21T15:06:25Z</time>
      </trkpt>
      <trkpt lat="49.47016" lon="0.9489">
        <ele>7</ele>
        <time>2017-01-21T15:06:25Z</time>
      </trkpt>
      <trkpt lat="49.47018" lon="0.94896">
        <ele>7</ele>
        <time>2017-01-21T15:06:25Z</time>
      </trkpt>
      <trkpt lat="49.47021" lon="0.94903">
        <ele>7</ele>
        <time>2017-01-21T15:06:25Z</time>
      </trkpt>
      <trkpt lat="49.47023" lon="0.94907">
        <ele>7</ele>
        <time>2017-01-21T15:06:42Z</time>
      </trkpt>
      <trkpt lat="49.47025" lon="0.94913">
        <ele>7</ele>
        <time>2017-01-21T15:06:42Z</time>
      </trkpt>
      <trkpt lat="49.4703" lon="0.94917">
        <ele>7</ele>
        <time>2017-01-21T15:06:42Z</time>
      </trkpt>
      <trkpt lat="49.4703" lon="0.94916">
        <ele>7</ele>
        <time>2017-01-21T15:06:42Z</time>
      </trkpt>
      <trkpt lat="49.47033" lon="0.94916">
        <ele>7</ele>
        <time>2017-01-21T15:11:56Z</time>
      </trkpt>
      <trkpt lat="49.47033" lon="0.94916">
        <ele>7</ele>
        <time>2017-01-21T15:11:56Z</time>
      </trkpt>
      <trkpt lat="49.47034" lon="0.94913">
        <ele>7</ele>
        <time>2017-01-21T15:11:56Z</time>
      </trkpt>
      <trkpt lat="49.47037" lon="0.9491">
        <ele>7</ele>
        <time>2017-01-21T15:11:57Z</time>
      </trkpt>
      <trkpt lat="49.47039" lon="0.94908">
        <ele>7</ele>
        <time>2017-01-21T15:11:57Z</time>
      </trkpt>
      <trkpt lat="49.47042" lon="0.94905">
        <ele>11</ele>
        <time>2017-01-21T15:12:12Z</time>
      </trkpt>
      <trkpt lat="49.47047" lon="0.94897">
        <ele>11</ele>
        <time>2017-01-21T15:12:12Z</time>
      </trkpt>
      <trkpt lat="49.4705" lon="0.94891">
        <ele>11</ele>
        <time>2017-01-21T15:12:12Z</time>
      </trkpt>
      <trkpt lat="49.47051" lon="0.94889">
        <ele>11</ele>
        <time>2017-01-21T15:12:12Z</time>
      </trkpt>
      <trkpt lat="49.47055" lon="0.94886">
        <ele>11</ele>
        <time>2017-01-21T15:12:28Z</time>
      </trkpt>
      <trkpt lat="49.47059" lon="0.94881">
        <ele>11</ele>
        <time>2017-01-21T15:12:29Z</time>
      </trkpt>
      <trkpt lat="49.47062" lon="0.94876">
        <ele>11</ele>
        <time>2017-01-21T15:12:30Z</time>
      </trkpt>
      <trkpt lat="49.47066" lon="0.94872">
        <ele>8</ele>
        <time>2017-01-21T15:12:30Z</time>
      </trkpt>
      <trkpt lat="49.4707" lon="0.94868">
        <ele>8</ele>
        <time>2017-01-21T15:12:44Z</time>
      </trkpt>
      <trkpt lat="49.47072" lon="0.94865">
        <ele>8</ele>
        <time>2017-01-21T15:12:44Z</time>
      </trkpt>
      <trkpt lat="49.47076" lon="0.94857">
        <ele>8</ele>
        <time>2017-01-21T15:12:44Z</time>
      </trkpt>
      <trkpt lat="49.47081" lon="0.94851">
        <ele>8</ele>
        <time>2017-01-21T15:12:44Z</time>
      </trkpt>
      <trkpt lat="49.47085" lon="0.94846">
        <ele>8</ele>
        <time>2017-01-21T15:13:00Z</time>
      </trkpt>
      <trkpt lat="49.4709" lon="0.94841">
        <ele>8</ele>
        <time>2017-01-21T15:13:00Z</time>
      </trkpt>
      <trkpt lat="49.47092" lon="0.94836">
        <ele>8</ele>
        <time>2017-01-21T15:13:00Z</time>
      </trkpt>
      <trkpt lat="49.47094" lon="0.94832">
        <ele>8</ele>
        <time>2017-01-21T15:13:00Z</time>
      </trkpt>
      <trkpt lat="49.47099" lon="0.94823">
        <ele>8</ele>
        <time>2017-01-21T15:13:17Z</time>
      </trkpt>
      <trkpt lat="49.47103" lon="0.94817">
        <ele>8</ele>
        <time>2017-01-21T15:13:17Z</time>
      </trkpt>
      <trkpt lat="49.47106" lon="0.94813">
        <ele>8</ele>
        <time>2017-01-21T15:13:17Z</time>
      </trkpt>
      <trkpt lat="49.4711" lon="0.94806">
        <ele>8</ele>
        <time>2017-01-21T15:13:17Z</time>
      </trkpt>
      <trkpt lat="49.47119" lon="0.94796">
        <ele>8</ele>
        <time>2017-01-21T15:13:36Z</time>
      </trkpt>
      <trkpt lat="49.47122" lon="0.94791">
        <ele>6</ele>
        <time>2017-01-21T15:13:36Z</time>
      </trkpt>
      <trkpt lat="49.47126" lon="0.94786">
        <ele>7</ele>
        <time>2017-01-21T15:13:36Z</time>
      </trkpt>
      <trkpt lat="49.47128" lon="0.94781">
        <ele>7</ele>
        <time>2017-01-21T15:13:36Z</time>
      </trkpt>
      <trkpt lat="49.47132" lon="0.94776">
        <ele>7</ele>
        <time>2017-01-21T15:13:54Z</time>
      </trkpt>
      <trkpt lat="49.47135" lon="0.94772">
        <ele>7</ele>
        <time>2017-01-21T15:13:54Z</time>
      </trkpt>
      <trkpt lat="49.47138" lon="0.94768">
        <ele>7</ele>
        <time>2017-01-21T15:13:54Z</time>
      </trkpt>
      <trkpt lat="49.47142" lon="0.94762">
        <ele>7</ele>
        <time>2017-01-21T15:13:54Z</time>
      </trkpt>
      <trkpt lat="49.47145" lon="0.94759">
        <ele>7</ele>
        <time>2017-01-21T15:14:09Z</time>
      </trkpt>
      <trkpt lat="49.4715" lon="0.94753">
        <ele>7</ele>
        <time>2017-01-21T15:14:09Z</time>
      </trkpt>
      <trkpt lat="49.47152" lon="0.94749">
        <ele>7</ele>
        <time>2017-01-21T15:14:09Z</time>
      </trkpt>
      <trkpt lat="49.47157" lon="0.94741">
        <ele>7</ele>
        <time>2017-01-21T15:14:09Z</time>
      </trkpt>
      <trkpt lat="49.47165" lon="0.94731">
        <ele>7</ele>
        <time>2017-01-21T15:14:30Z</time>
      </trkpt>
      <trkpt lat="49.4717" lon="0.94727">
        <ele>7</ele>
        <time>2017-01-21T15:14:30Z</time>
      </trkpt>
      <trkpt lat="49.47172" lon="0.94722">
        <ele>7</ele>
        <time>2017-01-21T15:14:30Z</time>
      </trkpt>
      <trkpt lat="49.47178" lon="0.94716">
        <ele>7</ele>
        <time>2017-01-21T15:14:30Z</time>
      </trkpt>
      <trkpt lat="49.47182" lon="0.94711">
        <ele>7</ele>
        <time>2017-01-21T15:14:44Z</time>
      </trkpt>
      <trkpt lat="49.47184" lon="0.94708">
        <ele>7</ele>
        <time>2017-01-21T15:14:45Z</time>
      </trkpt>
      <trkpt lat="49.47189" lon="0.94702">
        <ele>4</ele>
        <time>2017-01-21T15:14:45Z</time>
      </trkpt>
      <trkpt lat="49.47192" lon="0.94695">
        <ele>4</ele>
        <time>2017-01-21T15:14:45Z</time>
      </trkpt>
      <trkpt lat="49.47201" lon="0.94683">
        <ele>4</ele>
        <time>2017-01-21T15:15:04Z</time>
      </trkpt>
      <trkpt lat="49.47205" lon="0.94679">
        <ele>4</ele>
        <time>2017-01-21T15:15:04Z</time>
      </trkpt>
      <trkpt lat="49.4721" lon="0.94674">
        <ele>6</ele>
        <time>2017-01-21T15:15:04Z</time>
      </trkpt>
      <trkpt lat="49.47213" lon="0.9467">
        <ele>6</ele>
        <time>2017-01-21T15:15:04Z</time>
      </trkpt>
      <trkpt lat="49.47217" lon="0.94667">
        <ele>6</ele>
        <time>2017-01-21T15:15:21Z</time>
      </trkpt>
      <trkpt lat="49.47221" lon="0.94662">
        <ele>6</ele>
        <time>2017-01-21T15:15:21Z</time>
      </trkpt>
      <trkpt lat="49.47224" lon="0.94655">
        <ele>6</ele>
        <time>2017-01-21T15:15:21Z</time>
      </trkpt>
      <trkpt lat="49.47229" lon="0.94652">
        <ele>6</ele>
        <time>2017-01-21T15:15:21Z</time>
      </trkpt>
      <trkpt lat="49.47234" lon="0.94645">
        <ele>6</ele>
        <time>2017-01-21T15:15:36Z</time>
      </trkpt>
      <trkpt lat="49.47237" lon="0.9464">
        <ele>6</ele>
        <time>2017-01-21T15:15:36Z</time>
      </trkpt>
      <trkpt lat="49.47239" lon="0.94635">
        <ele>6</ele>
        <time>2017-01-21T15:15:36Z</time>
      </trkpt>
      <trkpt lat="49.47245" lon="0.94629">
        <ele>6</ele>
        <time>2017-01-21T15:15:36Z</time>
      </trkpt>
      <trkpt lat="49.47249" lon="0.94624">
        <ele>4</ele>
        <time>2017-01-21T15:15:54Z</time>
      </trkpt>
      <trkpt lat="49.47252" lon="0.94618">
        <ele>4</ele>
        <time>2017-01-21T15:15:54Z</time>
      </trkpt>
      <trkpt lat="49.47254" lon="0.94617">
        <ele>4</ele>
        <time>2017-01-21T15:15:54Z</time>
      </trkpt>
      <trkpt lat="49.47261" lon="0.9461">
        <ele>4</ele>
        <time>2017-01-21T15:15:54Z</time>
      </trkpt>
      <trkpt lat="49.47267" lon="0.94603">
        <ele>4</ele>
        <time>2017-01-21T15:16:13Z</time>
      </trkpt>
      <trkpt lat="49.47274" lon="0.94599">
        <ele>4</ele>
        <time>2017-01-21T15:16:13Z</time>
      </trkpt>
      <trkpt lat="49.47278" lon="0.94594">
        <ele>4</ele>
        <time>2017-01-21T15:16:13Z</time>
      </trkpt>
      <trkpt lat="49.47283" lon="0.9459">
        <ele>4</ele>
        <time>2017-01-21T15:16:14Z</time>
      </trkpt>
      <trkpt lat="49.47288" lon="0.94582">
        <ele>4</ele>
        <time>2017-01-21T15:16:32Z</time>
      </trkpt>
      <trkpt lat="49.47294" lon="0.94577">
        <ele>7</ele>
        <time>2017-01-21T15:16:32Z</time>
      </trkpt>
      <trkpt lat="49.47299" lon="0.94572">
        <ele>7</ele>
        <time>2017-01-21T15:16:32Z</time>
      </trkpt>
      <trkpt lat="49.47304" lon="0.94567">
        <ele>7</ele>
        <time>2017-01-21T15:16:32Z</time>
      </trkpt>
      <trkpt lat="49.47307" lon="0.94564">
        <ele>7</ele>
        <time>2017-01-21T15:16:50Z</time>
      </trkpt>
      <trkpt lat="49.47313" lon="0.9456">
        <ele>7</ele>
        <time>2017-01-21T15:16:50Z</time>
      </trkpt>
      <trkpt lat="49.47317" lon="0.94556">
        <ele>7</ele>
        <time>2017-01-21T15:16:50Z</time>
      </trkpt>
      <trkpt lat="49.47321" lon="0.94553">
        <ele>7</ele>
        <time>2017-01-21T15:16:50Z</time>
      </trkpt>
      <trkpt lat="49.47335" lon="0.94539">
        <ele>4</ele>
        <time>2017-01-21T15:17:12Z</time>
      </trkpt>
      <trkpt lat="49.47338" lon="0.94536">
        <ele>4</ele>
        <time>2017-01-21T15:17:13Z</time>
      </trkpt>
      <trkpt lat="49.47341" lon="0.94534">
        <ele>4</ele>
        <time>2017-01-21T15:17:13Z</time>
      </trkpt>
      <trkpt lat="49.47347" lon="0.94529">
        <ele>4</ele>
        <time>2017-01-21T15:17:13Z</time>
      </trkpt>
      <trkpt lat="49.4735" lon="0.94525">
        <ele>4</ele>
        <time>2017-01-21T15:17:28Z</time>
      </trkpt>
      <trkpt lat="49.47356" lon="0.94522">
        <ele>4</ele>
        <time>2017-01-21T15:17:28Z</time>
      </trkpt>
      <trkpt lat="49.47361" lon="0.94518">
        <ele>4</ele>
        <time>2017-01-21T15:17:28Z</time>
      </trkpt>
      <trkpt lat="49.47363" lon="0.94514">
        <ele>4</ele>
        <time>2017-01-21T15:17:28Z</time>
      </trkpt>
      <trkpt lat="49.47368" lon="0.94512">
        <ele>4</ele>
        <time>2017-01-21T15:17:44Z</time>
      </trkpt>
      <trkpt lat="49.47372" lon="0.94508">
        <ele>4</ele>
        <time>2017-01-21T15:17:44Z</time>
      </trkpt>
      <trkpt lat="49.47374" lon="0.94502">
        <ele>4</ele>
        <time>2017-01-21T15:17:44Z</time>
      </trkpt>
      <trkpt lat="49.47379" lon="0.94492">
        <ele>6</ele>
        <time>2017-01-21T15:17:44Z</time>
      </trkpt>
      <trkpt lat="49.47382" lon="0.94487">
        <ele>6</ele>
        <time>2017-01-21T15:18:00Z</time>
      </trkpt>
      <trkpt lat="49.47386" lon="0.94483">
        <ele>6</ele>
        <time>2017-01-21T15:18:00Z</time>
      </trkpt>
      <trkpt lat="49.4739" lon="0.94476">
        <ele>6</ele>
        <time>2017-01-21T15:18:00Z</time>
      </trkpt>
      <trkpt lat="49.47393" lon="0.94471">
        <ele>6</ele>
        <time>2017-01-21T15:18:00Z</time>
      </trkpt>
      <trkpt lat="49.47397" lon="0.94468">
        <ele>6</ele>
        <time>2017-01-21T15:18:17Z</time>
      </trkpt>
      <trkpt lat="49.474" lon="0.94463">
        <ele>6</ele>
        <time>2017-01-21T15:18:17Z</time>
      </trkpt>
      <trkpt lat="49.47403" lon="0.94456">
        <ele>5</ele>
        <time>2017-01-21T15:18:17Z</time>
      </trkpt>
      <trkpt lat="49.47406" lon="0.94449">
        <ele>5</ele>
        <time>2017-01-21T15:18:17Z</time>
      </trkpt>
      <trkpt lat="49.47411" lon="0.94443">
        <ele>5</ele>
        <time>2017-01-21T15:18:33Z</time>
      </trkpt>
      <trkpt lat="49.47414" lon="0.94439">
        <ele>5</ele>
        <time>2017-01-21T15:18:33Z</time>
      </trkpt>
      <trkpt lat="49.47417" lon="0.94431">
        <ele>5</ele>
        <time>2017-01-21T15:18:33Z</time>
      </trkpt>
      <trkpt lat="49.4742" lon="0.94424">
        <ele>5</ele>
        <time>2017-01-21T15:18:33Z</time>
      </trkpt>
      <trkpt lat="49.47425" lon="0.94417">
        <ele>5</ele>
        <time>2017-01-21T15:18:49Z</time>
      </trkpt>
      <trkpt lat="49.47427" lon="0.9441">
        <ele>5</ele>
        <time>2017-01-21T15:18:49Z</time>
      </trkpt>
      <trkpt lat="49.47431" lon="0.94402">
        <ele>5</ele>
        <time>2017-01-21T15:18:49Z</time>
      </trkpt>
      <trkpt lat="49.47432" lon="0.94399">
        <ele>5</ele>
        <time>2017-01-21T15:18:49Z</time>
      </trkpt>
      <trkpt lat="49.47441" lon="0.9438">
        <ele>5</ele>
        <time>2017-01-21T15:19:14Z</time>
      </trkpt>
      <trkpt lat="49.47443" lon="0.94376">
        <ele>5</ele>
        <time>2017-01-21T15:19:14Z</time>
      </trkpt>
      <trkpt lat="49.47446" lon="0.94368">
        <ele>3</ele>
        <time>2017-01-21T15:19:14Z</time>
      </trkpt>
      <trkpt lat="49.47451" lon="0.9436">
        <ele>3</ele>
        <time>2017-01-21T15:19:14Z</time>
      </trkpt>
      <trkpt lat="49.47458" lon="0.94345">
        <ele>3</ele>
        <time>2017-01-21T15:19:36Z</time>
      </trkpt>
      <trkpt lat="49.47464" lon="0.94338">
        <ele>5</ele>
        <time>2017-01-21T15:19:36Z</time>
      </trkpt>
      <trkpt lat="49.47466" lon="0.94333">
        <ele>5</ele>
        <time>2017-01-21T15:19:36Z</time>
      </trkpt>
      <trkpt lat="49.47471" lon="0.94328">
        <ele>5</ele>
        <time>2017-01-21T15:19:36Z</time>
      </trkpt>
      <trkpt lat="49.47476" lon="0.94324">
        <ele>5</ele>
        <time>2017-01-21T15:19:52Z</time>
      </trkpt>
      <trkpt lat="49.47481" lon="0.94322">
        <ele>5</ele>
        <time>2017-01-21T15:19:52Z</time>
      </trkpt>
      <trkpt lat="49.47486" lon="0.94323">
        <ele>5</ele>
        <time>2017-01-21T15:19:52Z</time>
      </trkpt>
      <trkpt lat="49.47489" lon="0.94326">
        <ele>5</ele>
        <time>2017-01-21T15:19:52Z</time>
      </trkpt>
      <trkpt lat="49.47492" lon="0.9433">
        <ele>5</ele>
        <time>2017-01-21T15:20:10Z</time>
      </trkpt>
      <trkpt lat="49.47497" lon="0.94339">
        <ele>5</ele>
        <time>2017-01-21T15:20:10Z</time>
      </trkpt>
      <trkpt lat="49.47501" lon="0.94345">
        <ele>5</ele>
        <time>2017-01-21T15:20:10Z</time>
      </trkpt>
      <trkpt lat="49.47505" lon="0.94352">
        <ele>5</ele>
        <time>2017-01-21T15:20:10Z</time>
      </trkpt>
      <trkpt lat="49.47509" lon="0.94358">
        <ele>5</ele>
        <time>2017-01-21T15:20:29Z</time>
      </trkpt>
      <trkpt lat="49.47512" lon="0.94364">
        <ele>5</ele>
        <time>2017-01-21T15:20:29Z</time>
      </trkpt>
      <trkpt lat="49.47514" lon="0.94369">
        <ele>5</ele>
        <time>2017-01-21T15:20:29Z</time>
      </trkpt>
      <trkpt lat="49.47518" lon="0.94379">
        <ele>6</ele>
        <time>2017-01-21T15:20:29Z</time>
      </trkpt>
      <trkpt lat="49.47528" lon="0.94389">
        <ele>6</ele>
        <time>2017-01-21T15:20:50Z</time>
      </trkpt>
      <trkpt lat="49.47531" lon="0.94394">
        <ele>6</ele>
        <time>2017-01-21T15:20:50Z</time>
      </trkpt>
      <trkpt lat="49.47534" lon="0.94399">
        <ele>6</ele>
        <time>2017-01-21T15:20:50Z</time>
      </trkpt>
      <trkpt lat="49.47536" lon="0.94403">
        <ele>6</ele>
        <time>2017-01-21T15:20:50Z</time>
      </trkpt>
      <trkpt lat="49.47538" lon="0.94406">
        <ele>6</ele>
        <time>2017-01-21T15:21:04Z</time>
      </trkpt>
      <trkpt lat="49.4754" lon="0.94411">
        <ele>6</ele>
        <time>2017-01-21T15:21:04Z</time>
      </trkpt>
      <trkpt lat="49.47544" lon="0.94418">
        <ele>12</ele>
        <time>2017-01-21T15:21:04Z</time>
      </trkpt>
      <trkpt lat="49.47548" lon="0.94422">
        <ele>12</ele>
        <time>2017-01-21T15:21:04Z</time>
      </trkpt>
      <trkpt lat="49.47551" lon="0.94426">
        <ele>12</ele>
        <time>2017-01-21T15:21:20Z</time>
      </trkpt>
      <trkpt lat="49.47554" lon="0.9443">
        <ele>12</ele>
        <time>2017-01-21T15:21:20Z</time>
      </trkpt>
      <trkpt lat="49.47559" lon="0.94435">
        <ele>12</ele>
        <time>2017-01-21T15:21:20Z</time>
      </trkpt>
      <trkpt lat="49.47562" lon="0.94438">
        <ele>12</ele>
        <time>2017-01-21T15:21:20Z</time>
      </trkpt>
      <trkpt lat="49.47564" lon="0.94446">
        <ele>12</ele>
        <time>2017-01-21T15:21:54Z</time>
      </trkpt>
      <trkpt lat="49.47564" lon="0.94446">
        <ele>12</ele>
        <time>2017-01-21T15:21:54Z</time>
      </trkpt>
      <trkpt lat="49.47566" lon="0.94449">
        <ele>12</ele>
        <time>2017-01-21T15:21:54Z</time>
      </trkpt>
      <trkpt lat="49.47568" lon="0.9445">
        <ele>12</ele>
        <time>2017-01-21T15:21:54Z</time>
      </trkpt>
      <trkpt lat="49.47572" lon="0.94455">
        <ele>12</ele>
        <time>2017-01-21T15:21:54Z</time>
      </trkpt>
      <trkpt lat="49.47571" lon="0.94459">
        <ele>16</ele>
        <time>2017-01-21T15:23:16Z</time>
      </trkpt>
      <trkpt lat="49.47579" lon="0.94466">
        <ele>16</ele>
        <time>2017-01-21T15:23:16Z</time>
      </trkpt>
      <trkpt lat="49.47582" lon="0.94468">
        <ele>16</ele>
        <time>2017-01-21T15:23:18Z</time>
      </trkpt>
      <trkpt lat="49.47587" lon="0.94475">
        <ele>16</ele>
        <time>2017-01-21T15:23:18Z</time>
      </trkpt>
      <trkpt lat="49.47589" lon="0.94478">
        <ele>16</ele>
        <time>2017-01-21T15:23:20Z</time>
      </trkpt>
      <trkpt lat="49.47599" lon="0.94488">
        <ele>16</ele>
        <time>2017-01-21T15:23:40Z</time>
      </trkpt>
      <trkpt lat="49.47603" lon="0.94494">
        <ele>16</ele>
        <time>2017-01-21T15:23:40Z</time>
      </trkpt>
      <trkpt lat="49.47606" lon="0.94497">
        <ele>16</ele>
        <time>2017-01-21T15:23:40Z</time>
      </trkpt>
      <trkpt lat="49.47611" lon="0.94502">
        <ele>16</ele>
        <time>2017-01-21T15:23:40Z</time>
      </trkpt>
      <trkpt lat="49.47616" lon="0.9451">
        <ele>16</ele>
        <time>2017-01-21T15:24:04Z</time>
      </trkpt>
      <trkpt lat="49.47618" lon="0.94512">
        <ele>16</ele>
        <time>2017-01-21T15:24:04Z</time>
      </trkpt>
      <trkpt lat="49.47619" lon="0.94518">
        <ele>16</ele>
        <time>2017-01-21T15:24:04Z</time>
      </trkpt>
      <trkpt lat="49.4762" lon="0.9452">
        <ele>16</ele>
        <time>2017-01-21T15:24:04Z</time>
      </trkpt>
      <trkpt lat="49.47623" lon="0.94527">
        <ele>16</ele>
        <time>2017-01-21T15:24:04Z</time>
      </trkpt>
      <trkpt lat="49.47629" lon="0.94542">
        <ele>30</ele>
        <time>2017-01-21T15:24:25Z</time>
      </trkpt>
      <trkpt lat="49.47632" lon="0.94546">
        <ele>30</ele>
        <time>2017-01-21T15:24:25Z</time>
      </trkpt>
      <trkpt lat="49.47636" lon="0.94551">
        <ele>30</ele>
        <time>2017-01-21T15:24:25Z</time>
      </trkpt>
      <trkpt lat="49.47641" lon="0.94557">
        <ele>30</ele>
        <time>2017-01-21T15:24:25Z</time>
      </trkpt>
      <trkpt lat="49.47644" lon="0.94562">
        <ele>30</ele>
        <time>2017-01-21T15:24:41Z</time>
      </trkpt>
      <trkpt lat="49.47648" lon="0.94567">
        <ele>30</ele>
        <time>2017-01-21T15:24:41Z</time>
      </trkpt>
      <trkpt lat="49.47649" lon="0.94571">
        <ele>30</ele>
        <time>2017-01-21T15:24:41Z</time>
      </trkpt>
      <trkpt lat="49.47651" lon="0.94577">
        <ele>30</ele>
        <time>2017-01-21T15:24:41Z</time>
      </trkpt>
      <trkpt lat="49.47657" lon="0.94585">
        <ele>30</ele>
        <time>2017-01-21T15:24:57Z</time>
      </trkpt>
      <trkpt lat="49.47658" lon="0.94588">
        <ele>30</ele>
        <time>2017-01-21T15:24:57Z</time>
      </trkpt>
      <trkpt lat="49.47659" lon="0.94593">
        <ele>30</ele>
        <time>2017-01-21T15:24:57Z</time>
      </trkpt>
      <trkpt lat="49.47664" lon="0.94597">
        <ele>30</ele>
        <time>2017-01-21T15:24:57Z</time>
      </trkpt>
      <trkpt lat="49.47669" lon="0.9461">
        <ele>30</ele>
        <time>2017-01-21T15:25:16Z</time>
      </trkpt>
      <trkpt lat="49.47671" lon="0.94615">
        <ele>30</ele>
        <time>2017-01-21T15:25:16Z</time>
      </trkpt>
      <trkpt lat="49.47673" lon="0.9462">
        <ele>30</ele>
        <time>2017-01-21T15:25:16Z</time>
      </trkpt>
      <trkpt lat="49.47675" lon="0.94628">
        <ele>30</ele>
        <time>2017-01-21T15:25:16Z</time>
      </trkpt>
      <trkpt lat="49.47676" lon="0.94634">
        <ele>30</ele>
        <time>2017-01-21T15:25:33Z</time>
      </trkpt>
      <trkpt lat="49.47679" lon="0.94641">
        <ele>30</ele>
        <time>2017-01-21T15:25:33Z</time>
      </trkpt>
      <trkpt lat="49.47682" lon="0.94647">
        <ele>30</ele>
        <time>2017-01-21T15:25:33Z</time>
      </trkpt>
      <trkpt lat="49.47684" lon="0.94646">
        <ele>30</ele>
        <time>2017-01-21T15:25:33Z</time>
      </trkpt>
      <trkpt lat="49.4769" lon="0.9466">
        <ele>30</ele>
        <time>2017-01-21T15:25:52Z</time>
      </trkpt>
      <trkpt lat="49.47693" lon="0.94666">
        <ele>30</ele>
        <time>2017-01-21T15:25:52Z</time>
      </trkpt>
      <trkpt lat="49.47693" lon="0.94673">
        <ele>30</ele>
        <time>2017-01-21T15:25:52Z</time>
      </trkpt>
      <trkpt lat="49.47695" lon="0.94677">
        <ele>30</ele>
        <time>2017-01-21T15:25:52Z</time>
      </trkpt>
      <trkpt lat="49.47697" lon="0.94686">
        <ele>30</ele>
        <time>2017-01-21T15:26:08Z</time>
      </trkpt>
      <trkpt lat="49.47698" lon="0.94692">
        <ele>30</ele>
        <time>2017-01-21T15:26:08Z</time>
      </trkpt>
      <trkpt lat="49.47701" lon="0.94696">
        <ele>30</ele>
        <time>2017-01-21T15:26:08Z</time>
      </trkpt>
      <trkpt lat="49.47705" lon="0.94698">
        <ele>30</ele>
        <time>2017-01-21T15:26:08Z</time>
      </trkpt>
      <trkpt lat="49.47707" lon="0.94706">
        <ele>30</ele>
        <time>2017-01-21T15:26:25Z</time>
      </trkpt>
      <trkpt lat="49.4771" lon="0.94712">
        <ele>46</ele>
        <time>2017-01-21T15:26:25Z</time>
      </trkpt>
      <trkpt lat="49.47711" lon="0.94713">
        <ele>46</ele>
        <time>2017-01-21T15:26:25Z</time>
      </trkpt>
      <trkpt lat="49.47716" lon="0.94723">
        <ele>46</ele>
        <time>2017-01-21T15:26:25Z</time>
      </trkpt>
      <trkpt lat="49.47721" lon="0.94736">
        <ele>46</ele>
        <time>2017-01-21T15:26:44Z</time>
      </trkpt>
      <trkpt lat="49.47724" lon="0.9474">
        <ele>46</ele>
        <time>2017-01-21T15:26:44Z</time>
      </trkpt>
      <trkpt lat="49.47727" lon="0.94745">
        <ele>46</ele>
        <time>2017-01-21T15:26:44Z</time>
      </trkpt>
      <trkpt lat="49.47728" lon="0.94748">
        <ele>46</ele>
        <time>2017-01-21T15:26:44Z</time>
      </trkpt>
      <trkpt lat="49.4773" lon="0.94756">
        <ele>46</ele>
        <time>2017-01-21T15:27:01Z</time>
      </trkpt>
      <trkpt lat="49.47733" lon="0.94763">
        <ele>46</ele>
        <time>2017-01-21T15:27:01Z</time>
      </trkpt>
      <trkpt lat="49.47736" lon="0.94767">
        <ele>46</ele>
        <time>2017-01-21T15:27:01Z</time>
      </trkpt>
      <trkpt lat="49.4774" lon="0.94775">
        <ele>46</ele>
        <time>2017-01-21T15:27:01Z</time>
      </trkpt>
      <trkpt lat="49.47742" lon="0.94778">
        <ele>46</ele>
        <time>2017-01-21T15:27:16Z</time>
      </trkpt>
      <trkpt lat="49.47744" lon="0.94784">
        <ele>46</ele>
        <time>2017-01-21T15:27:16Z</time>
      </trkpt>
      <trkpt lat="49.47745" lon="0.94787">
        <ele>46</ele>
        <time>2017-01-21T15:27:16Z</time>
      </trkpt>
      <trkpt lat="49.47749" lon="0.94792">
        <ele>47</ele>
        <time>2017-01-21T15:27:16Z</time>
      </trkpt>
      <trkpt lat="49.47749" lon="0.948">
        <ele>47</ele>
        <time>2017-01-21T15:27:32Z</time>
      </trkpt>
      <trkpt lat="49.47751" lon="0.94805">
        <ele>47</ele>
        <time>2017-01-21T15:27:32Z</time>
      </trkpt>
      <trkpt lat="49.47752" lon="0.94811">
        <ele>47</ele>
        <time>2017-01-21T15:27:32Z</time>
      </trkpt>
      <trkpt lat="49.47755" lon="0.94817">
        <ele>47</ele>
        <time>2017-01-21T15:27:32Z</time>
      </trkpt>
      <trkpt lat="49.47757" lon="0.94825">
        <ele>47</ele>
        <time>2017-01-21T15:27:48Z</time>
      </trkpt>
      <trkpt lat="49.47757" lon="0.9483">
        <ele>47</ele>
        <time>2017-01-21T15:27:49Z</time>
      </trkpt>
      <trkpt lat="49.4776" lon="0.94837">
        <ele>47</ele>
        <time>2017-01-21T15:27:49Z</time>
      </trkpt>
      <trkpt lat="49.47763" lon="0.94845">
        <ele>47</ele>
        <time>2017-01-21T15:27:49Z</time>
      </trkpt>
      <trkpt lat="49.47765" lon="0.94862">
        <ele>47</ele>
        <time>2017-01-21T15:28:13Z</time>
      </trkpt>
      <trkpt lat="49.47768" lon="0.9487">
        <ele>47</ele>
        <time>2017-01-21T15:28:13Z</time>
      </trkpt>
      <trkpt lat="49.4777" lon="0.94875">
        <ele>52</ele>
        <time>2017-01-21T15:28:13Z</time>
      </trkpt>
      <trkpt lat="49.47771" lon="0.94879">
        <ele>52</ele>
        <time>2017-01-21T15:28:13Z</time>
      </trkpt>
      <trkpt lat="49.47772" lon="0.94884">
        <ele>52</ele>
        <time>2017-01-21T15:28:32Z</time>
      </trkpt>
      <trkpt lat="49.47772" lon="0.9489">
        <ele>52</ele>
        <time>2017-01-21T15:28:32Z</time>
      </trkpt>
      <trkpt lat="49.47773" lon="0.94897">
        <ele>52</ele>
        <time>2017-01-21T15:28:32Z</time>
      </trkpt>
      <trkpt lat="49.47775" lon="0.94907">
        <ele>52</ele>
        <time>2017-01-21T15:28:32Z</time>
      </trkpt>
      <trkpt lat="49.47778" lon="0.94922">
        <ele>52</ele>
        <time>2017-01-21T15:28:48Z</time>
      </trkpt>
      <trkpt lat="49.47778" lon="0.94923">
        <ele>52</ele>
        <time>2017-01-21T15:28:48Z</time>
      </trkpt>
      <trkpt lat="49.47781" lon="0.94933">
        <ele>52</ele>
        <time>2017-01-21T15:28:48Z</time>
      </trkpt>
      <trkpt lat="49.4778" lon="0.94941">
        <ele>52</ele>
        <time>2017-01-21T15:28:48Z</time>
      </trkpt>
      <trkpt lat="49.47782" lon="0.94952">
        <ele>52</ele>
        <time>2017-01-21T15:29:08Z</time>
      </trkpt>
      <trkpt lat="49.47783" lon="0.94957">
        <ele>52</ele>
        <time>2017-01-21T15:29:08Z</time>
      </trkpt>
      <trkpt lat="49.47783" lon="0.94967">
        <ele>60</ele>
        <time>2017-01-21T15:29:08Z</time>
      </trkpt>
      <trkpt lat="49.47783" lon="0.94974">
        <ele>60</ele>
        <time>2017-01-21T15:29:08Z</time>
      </trkpt>
      <trkpt lat="49.47783" lon="0.9498">
        <ele>60</ele>
        <time>2017-01-21T15:29:25Z</time>
      </trkpt>
      <trkpt lat="49.47783" lon="0.94986">
        <ele>60</ele>
        <time>2017-01-21T15:29:25Z</time>
      </trkpt>
      <trkpt lat="49.47784" lon="0.9499">
        <ele>60</ele>
        <time>2017-01-21T15:29:25Z</time>
      </trkpt>
      <trkpt lat="49.47786" lon="0.94996">
        <ele>60</ele>
        <time>2017-01-21T15:29:25Z</time>
      </trkpt>
      <trkpt lat="49.47786" lon="0.95002">
        <ele>60</ele>
        <time>2017-01-21T15:29:41Z</time>
      </trkpt>
      <trkpt lat="49.47787" lon="0.95007">
        <ele>60</ele>
        <time>2017-01-21T15:29:41Z</time>
      </trkpt>
      <trkpt lat="49.47785" lon="0.95016">
        <ele>60</ele>
        <time>2017-01-21T15:29:41Z</time>
      </trkpt>
      <trkpt lat="49.47785" lon="0.95021">
        <ele>60</ele>
        <time>2017-01-21T15:29:41Z</time>
      </trkpt>
      <trkpt lat="49.47788" lon="0.95043">
        <ele>68</ele>
        <time>2017-01-21T15:30:04Z</time>
      </trkpt>
      <trkpt lat="49.47789" lon="0.95048">
        <ele>68</ele>
        <time>2017-01-21T15:30:04Z</time>
      </trkpt>
      <trkpt lat="49.47786" lon="0.95056">
        <ele>68</ele>
        <time>2017-01-21T15:30:04Z</time>
      </trkpt>
      <trkpt lat="49.47788" lon="0.9506">
        <ele>68</ele>
        <time>2017-01-21T15:30:04Z</time>
      </trkpt>
      <trkpt lat="49.47789" lon="0.95062">
        <ele>68</ele>
        <time>2017-01-21T15:30:20Z</time>
      </trkpt>
      <trkpt lat="49.47789" lon="0.9507">
        <ele>68</ele>
        <time>2017-01-21T15:30:21Z</time>
      </trkpt>
      <trkpt lat="49.47786" lon="0.95079">
        <ele>68</ele>
        <time>2017-01-21T15:30:21Z</time>
      </trkpt>
      <trkpt lat="49.47783" lon="0.95089">
        <ele>68</ele>
        <time>2017-01-21T15:30:22Z</time>
      </trkpt>
      <trkpt lat="49.47783" lon="0.95093">
        <ele>68</ele>
        <time>2017-01-21T15:30:37Z</time>
      </trkpt>
      <trkpt lat="49.4778" lon="0.951">
        <ele>68</ele>
        <time>2017-01-21T15:30:37Z</time>
      </trkpt>
      <trkpt lat="49.47779" lon="0.95105">
        <ele>68</ele>
        <time>2017-01-21T15:30:37Z</time>
      </trkpt>
      <trkpt lat="49.47777" lon="0.95111">
        <ele>68</ele>
        <time>2017-01-21T15:30:37Z</time>
      </trkpt>
      <trkpt lat="49.47776" lon="0.95114">
        <ele>68</ele>
        <time>2017-01-21T15:30:52Z</time>
      </trkpt>
      <trkpt lat="49.47773" lon="0.95123">
        <ele>68</ele>
        <time>2017-01-21T15:30:52Z</time>
      </trkpt>
      <trkpt lat="49.47771" lon="0.95128">
        <ele>73</ele>
        <time>2017-01-21T15:30:53Z</time>
      </trkpt>
      <trkpt lat="49.47771" lon="0.95131">
        <ele>73</ele>
        <time>2017-01-21T15:30:53Z</time>
      </trkpt>
      <trkpt lat="49.47769" lon="0.95136">
        <ele>73</ele>
        <time>2017-01-21T15:31:08Z</time>
      </trkpt>
      <trkpt lat="49.47764" lon="0.95141">
        <ele>73</ele>
        <time>2017-01-21T15:31:08Z</time>
      </trkpt>
      <trkpt lat="49.4776" lon="0.95148">
        <ele>73</ele>
        <time>2017-01-21T15:31:08Z</time>
      </trkpt>
      <trkpt lat="49.47756" lon="0.95156">
        <ele>73</ele>
        <time>2017-01-21T15:31:08Z</time>
      </trkpt>
      <trkpt lat="49.47754" lon="0.9516">
        <ele>73</ele>
        <time>2017-01-21T15:31:24Z</time>
      </trkpt>
      <trkpt lat="49.47753" lon="0.95163">
        <ele>73</ele>
        <time>2017-01-21T15:31:24Z</time>
      </trkpt>
      <trkpt lat="49.47754" lon="0.95165">
        <ele>73</ele>
        <time>2017-01-21T15:31:24Z</time>
      </trkpt>
      <trkpt lat="49.47749" lon="0.95173">
        <ele>73</ele>
        <time>2017-01-21T15:31:24Z</time>
      </trkpt>
      <trkpt lat="49.47747" lon="0.95178">
        <ele>73</ele>
        <time>2017-01-21T15:31:40Z</time>
      </trkpt>
      <trkpt lat="49.47745" lon="0.95183">
        <ele>73</ele>
        <time>2017-01-21T15:31:40Z</time>
      </trkpt>
      <trkpt lat="49.47742" lon="0.95188">
        <ele>73</ele>
        <time>2017-01-21T15:31:40Z</time>
      </trkpt>
      <trkpt lat="49.47742" lon="0.95192">
        <ele>73</ele>
        <time>2017-01-21T15:31:40Z</time>
      </trkpt>
      <trkpt lat="49.47741" lon="0.95197">
        <ele>73</ele>
        <time>2017-01-21T15:31:56Z</time>
      </trkpt>
      <trkpt lat="49.47737" lon="0.95204">
        <ele>73</ele>
        <time>2017-01-21T15:31:56Z</time>
      </trkpt>
      <trkpt lat="49.47734" lon="0.95212">
        <ele>78</ele>
        <time>2017-01-21T15:31:56Z</time>
      </trkpt>
      <trkpt lat="49.47733" lon="0.95218">
        <ele>78</ele>
        <time>2017-01-21T15:31:56Z</time>
      </trkpt>
      <trkpt lat="49.47727" lon="0.95227">
        <ele>78</ele>
        <time>2017-01-21T15:32:18Z</time>
      </trkpt>
      <trkpt lat="49.47725" lon="0.9523">
        <ele>78</ele>
        <time>2017-01-21T15:32:18Z</time>
      </trkpt>
      <trkpt lat="49.47724" lon="0.95235">
        <ele>78</ele>
        <time>2017-01-21T15:32:18Z</time>
      </trkpt>
      <trkpt lat="49.47722" lon="0.95242">
        <ele>78</ele>
        <time>2017-01-21T15:32:18Z</time>
      </trkpt>
      <trkpt lat="49.47714" lon="0.9525">
        <ele>78</ele>
        <time>2017-01-21T15:32:41Z</time>
      </trkpt>
      <trkpt lat="49.47715" lon="0.95253">
        <ele>78</ele>
        <time>2017-01-21T15:32:41Z</time>
      </trkpt>
      <trkpt lat="49.4771" lon="0.95256">
        <ele>78</ele>
        <time>2017-01-21T15:32:41Z</time>
      </trkpt>
      <trkpt lat="49.47709" lon="0.9526">
        <ele>78</ele>
        <time>2017-01-21T15:32:41Z</time>
      </trkpt>
      <trkpt lat="49.47706" lon="0.95265">
        <ele>89</ele>
        <time>2017-01-21T15:32:41Z</time>
      </trkpt>
      <trkpt lat="49.47704" lon="0.95269">
        <ele>89</ele>
        <time>2017-01-21T15:32:58Z</time>
      </trkpt>
      <trkpt lat="49.47701" lon="0.95273">
        <ele>89</ele>
        <time>2017-01-21T15:32:58Z</time>
      </trkpt>
      <trkpt lat="49.47698" lon="0.9528">
        <ele>89</ele>
        <time>2017-01-21T15:32:58Z</time>
      </trkpt>
      <trkpt lat="49.47696" lon="0.95285">
        <ele>89</ele>
        <time>2017-01-21T15:32:58Z</time>
      </trkpt>
      <trkpt lat="49.47694" lon="0.95288">
        <ele>89</ele>
        <time>2017-01-21T15:33:12Z</time>
      </trkpt>
      <trkpt lat="49.4769" lon="0.95294">
        <ele>87</ele>
        <time>2017-01-21T15:33:12Z</time>
      </trkpt>
      <trkpt lat="49.47689" lon="0.95298">
        <ele>87</ele>
        <time>2017-01-21T15:33:12Z</time>
      </trkpt>
      <trkpt lat="49.47687" lon="0.95301">
        <ele>87</ele>
        <time>2017-01-21T15:33:12Z</time>
      </trkpt>
      <trkpt lat="49.47683" lon="0.95305">
        <ele>87</ele>
        <time>2017-01-21T15:33:32Z</time>
      </trkpt>
      <trkpt lat="49.4768" lon="0.95307">
        <ele>87</ele>
        <time>2017-01-21T15:33:32Z</time>
      </trkpt>
      <trkpt lat="49.4768" lon="0.9531">
        <ele>87</ele>
        <time>2017-01-21T15:33:32Z</time>
      </trkpt>
      <trkpt lat="49.47676" lon="0.95311">
        <ele>87</ele>
        <time>2017-01-21T15:33:32Z</time>
      </trkpt>
      <trkpt lat="49.4767" lon="0.95316">
        <ele>87</ele>
        <time>2017-01-21T15:33:32Z</time>
      </trkpt>
      <trkpt lat="49.47666" lon="0.9532">
        <ele>87</ele>
        <time>2017-01-21T15:33:49Z</time>
      </trkpt>
      <trkpt lat="49.47663" lon="0.95324">
        <ele>87</ele>
        <time>2017-01-21T15:33:49Z</time>
      </trkpt>
      <trkpt lat="49.47662" lon="0.95325">
        <ele>87</ele>
        <time>2017-01-21T15:33:49Z</time>
      </trkpt>
      <trkpt lat="49.47656" lon="0.95329">
        <ele>87</ele>
        <time>2017-01-21T15:33:49Z</time>
      </trkpt>
      <trkpt lat="49.47649" lon="0.95338">
        <ele>87</ele>
        <time>2017-01-21T15:34:10Z</time>
      </trkpt>
      <trkpt lat="49.47645" lon="0.95335">
        <ele>87</ele>
        <time>2017-01-21T15:34:10Z</time>
      </trkpt>
      <trkpt lat="49.47639" lon="0.95337">
        <ele>87</ele>
        <time>2017-01-21T15:34:10Z</time>
      </trkpt>
      <trkpt lat="49.47635" lon="0.95336">
        <ele>87</ele>
        <time>2017-01-21T15:34:10Z</time>
      </trkpt>
      <trkpt lat="49.47633" lon="0.95337">
        <ele>87</ele>
        <time>2017-01-21T15:34:24Z</time>
      </trkpt>
      <trkpt lat="49.47628" lon="0.95338">
        <ele>87</ele>
        <time>2017-01-21T15:34:25Z</time>
      </trkpt>
      <trkpt lat="49.47624" lon="0.95342">
        <ele>96</ele>
        <time>2017-01-21T15:34:25Z</time>
      </trkpt>
      <trkpt lat="49.47619" lon="0.95349">
        <ele>96</ele>
        <time>2017-01-21T15:34:25Z</time>
      </trkpt>
      <trkpt lat="49.47616" lon="0.95354">
        <ele>96</ele>
        <time>2017-01-21T15:34:41Z</time>
      </trkpt>
      <trkpt lat="49.47613" lon="0.95355">
        <ele>96</ele>
        <time>2017-01-21T15:34:41Z</time>
      </trkpt>
      <trkpt lat="49.47609" lon="0.95356">
        <ele>96</ele>
        <time>2017-01-21T15:34:41Z</time>
      </trkpt>
      <trkpt lat="49.47605" lon="0.95357">
        <ele>96</ele>
        <time>2017-01-21T15:34:41Z</time>
      </trkpt>
      <trkpt lat="49.47598" lon="0.95365">
        <ele>96</ele>
        <time>2017-01-21T15:35:01Z</time>
      </trkpt>
      <trkpt lat="49.47595" lon="0.95364">
        <ele>96</ele>
        <time>2017-01-21T15:35:01Z</time>
      </trkpt>
      <trkpt lat="49.4759" lon="0.95369">
        <ele>96</ele>
        <time>2017-01-21T15:35:01Z</time>
      </trkpt>
      <trkpt lat="49.47586" lon="0.95372">
        <ele>96</ele>
        <time>2017-01-21T15:35:01Z</time>
      </trkpt>
      <trkpt lat="49.47582" lon="0.95375">
        <ele>100</ele>
        <time>2017-01-21T15:35:16Z</time>
      </trkpt>
      <trkpt lat="49.47581" lon="0.95374">
        <ele>96</ele>
        <time>2017-01-21T15:35:16Z</time>
      </trkpt>
      <trkpt lat="49.47577" lon="0.9538">
        <ele>100</ele>
        <time>2017-01-21T15:35:16Z</time>
      </trkpt>
      <trkpt lat="49.47572" lon="0.95382">
        <ele>100</ele>
        <time>2017-01-21T15:35:16Z</time>
      </trkpt>
      <trkpt lat="49.47553" lon="0.954">
        <ele>100</ele>
        <time>2017-01-21T15:36:00Z</time>
      </trkpt>
      <trkpt lat="49.47553" lon="0.954">
        <ele>100</ele>
        <time>2017-01-21T15:36:00Z</time>
      </trkpt>
      <trkpt lat="49.47547" lon="0.95404">
        <ele>100</ele>
        <time>2017-01-21T15:36:00Z</time>
      </trkpt>
      <trkpt lat="49.47548" lon="0.95408">
        <ele>100</ele>
        <time>2017-01-21T15:36:00Z</time>
      </trkpt>
      <trkpt lat="49.47542" lon="0.95417">
        <ele>100</ele>
        <time>2017-01-21T15:36:00Z</time>
      </trkpt>
      <trkpt lat="49.47539" lon="0.9542">
        <ele>110</ele>
        <time>2017-01-21T15:36:16Z</time>
      </trkpt>
      <trkpt lat="49.47537" lon="0.95424">
        <ele>110</ele>
        <time>2017-01-21T15:36:16Z</time>
      </trkpt>
      <trkpt lat="49.47532" lon="0.95431">
        <ele>110</ele>
        <time>2017-01-21T15:36:16Z</time>
      </trkpt>
      <trkpt lat="49.47531" lon="0.95432">
        <ele>110</ele>
        <time>2017-01-21T15:36:16Z</time>
      </trkpt>
      <trkpt lat="49.47526" lon="0.95439">
        <ele>110</ele>
        <time>2017-01-21T15:36:32Z</time>
      </trkpt>
      <trkpt lat="49.47523" lon="0.95443">
        <ele>110</ele>
        <time>2017-01-21T15:36:33Z</time>
      </trkpt>
      <trkpt lat="49.4752" lon="0.95446">
        <ele>110</ele>
        <time>2017-01-21T15:36:33Z</time>
      </trkpt>
      <trkpt lat="49.47518" lon="0.95449">
        <ele>110</ele>
        <time>2017-01-21T15:36:33Z</time>
      </trkpt>
      <trkpt lat="49.47515" lon="0.95453">
        <ele>110</ele>
        <time>2017-01-21T15:36:50Z</time>
      </trkpt>
      <trkpt lat="49.4751" lon="0.95457">
        <ele>110</ele>
        <time>2017-01-21T15:36:50Z</time>
      </trkpt>
      <trkpt lat="49.47507" lon="0.95462">
        <ele>111</ele>
        <time>2017-01-21T15:36:50Z</time>
      </trkpt>
      <trkpt lat="49.47504" lon="0.95468">
        <ele>111</ele>
        <time>2017-01-21T15:36:50Z</time>
      </trkpt>
      <trkpt lat="49.47501" lon="0.9547">
        <ele>111</ele>
        <time>2017-01-21T15:37:26Z</time>
      </trkpt>
      <trkpt lat="49.475" lon="0.95471">
        <ele>111</ele>
        <time>2017-01-21T15:37:26Z</time>
      </trkpt>
      <trkpt lat="49.47499" lon="0.95468">
        <ele>111</ele>
        <time>2017-01-21T15:37:26Z</time>
      </trkpt>
      <trkpt lat="49.47499" lon="0.95465">
        <ele>111</ele>
        <time>2017-01-21T15:37:26Z</time>
      </trkpt>
      <trkpt lat="49.47494" lon="0.95478">
        <ele>111</ele>
        <time>2017-01-21T15:37:26Z</time>
      </trkpt>
      <trkpt lat="49.47492" lon="0.95483">
        <ele>111</ele>
        <time>2017-01-21T15:37:40Z</time>
      </trkpt>
      <trkpt lat="49.47488" lon="0.95485">
        <ele>111</ele>
        <time>2017-01-21T15:37:40Z</time>
      </trkpt>
      <trkpt lat="49.47486" lon="0.9549">
        <ele>111</ele>
        <time>2017-01-21T15:37:40Z</time>
      </trkpt>
      <trkpt lat="49.47482" lon="0.95497">
        <ele>111</ele>
        <time>2017-01-21T15:37:40Z</time>
      </trkpt>
      <trkpt lat="49.47471" lon="0.95519">
        <ele>111</ele>
        <time>2017-01-21T15:38:04Z</time>
      </trkpt>
      <trkpt lat="49.47468" lon="0.95525">
        <ele>111</ele>
        <time>2017-01-21T15:38:06Z</time>
      </trkpt>
      <trkpt lat="49.47463" lon="0.95532">
        <ele>111</ele>
        <time>2017-01-21T15:38:06Z</time>
      </trkpt>
      <trkpt lat="49.47459" lon="0.95537">
        <ele>111</ele>
        <time>2017-01-21T15:38:06Z</time>
      </trkpt>
      <trkpt lat="49.47458" lon="0.95548">
        <ele>125</ele>
        <time>2017-01-21T15:38:25Z</time>
      </trkpt>
      <trkpt lat="49.47457" lon="0.95552">
        <ele>125</ele>
        <time>2017-01-21T15:38:25Z</time>
      </trkpt>
      <trkpt lat="49.47456" lon="0.95559">
        <ele>125</ele>
        <time>2017-01-21T15:38:25Z</time>
      </trkpt>
      <trkpt lat="49.47454" lon="0.95565">
        <ele>125</ele>
        <time>2017-01-21T15:38:25Z</time>
      </trkpt>
      <trkpt lat="49.4745" lon="0.95571">
        <ele>125</ele>
        <time>2017-01-21T15:38:40Z</time>
      </trkpt>
      <trkpt lat="49.47448" lon="0.95576">
        <ele>125</ele>
        <time>2017-01-21T15:38:40Z</time>
      </trkpt>
      <trkpt lat="49.47445" lon="0.95583">
        <ele>125</ele>
        <time>2017-01-21T15:38:40Z</time>
      </trkpt>
      <trkpt lat="49.47444" lon="0.95587">
        <ele>125</ele>
        <time>2017-01-21T15:38:40Z</time>
      </trkpt>
      <trkpt lat="49.47441" lon="0.95594">
        <ele>125</ele>
        <time>2017-01-21T15:38:56Z</time>
      </trkpt>
      <trkpt lat="49.4744" lon="0.95602">
        <ele>125</ele>
        <time>2017-01-21T15:38:56Z</time>
      </trkpt>
      <trkpt lat="49.47441" lon="0.95606">
        <ele>125</ele>
        <time>2017-01-21T15:38:56Z</time>
      </trkpt>
      <trkpt lat="49.47439" lon="0.95613">
        <ele>125</ele>
        <time>2017-01-21T15:38:56Z</time>
      </trkpt>
      <trkpt lat="49.47438" lon="0.95622">
        <ele>125</ele>
        <time>2017-01-21T15:39:13Z</time>
      </trkpt>
      <trkpt lat="49.47437" lon="0.95629">
        <ele>126</ele>
        <time>2017-01-21T15:39:13Z</time>
      </trkpt>
      <trkpt lat="49.47439" lon="0.95635">
        <ele>126</ele>
        <time>2017-01-21T15:39:13Z</time>
      </trkpt>
      <trkpt lat="49.47439" lon="0.95638">
        <ele>126</ele>
        <time>2017-01-21T15:39:13Z</time>
      </trkpt>
      <trkpt lat="49.47439" lon="0.95642">
        <ele>126</ele>
        <time>2017-01-21T15:39:29Z</time>
      </trkpt>
      <trkpt lat="49.47441" lon="0.95653">
        <ele>126</ele>
        <time>2017-01-21T15:39:29Z</time>
      </trkpt>
      <trkpt lat="49.47442" lon="0.95658">
        <ele>126</ele>
        <time>2017-01-21T15:39:29Z</time>
      </trkpt>
      <trkpt lat="49.47438" lon="0.95661">
        <ele>126</ele>
        <time>2017-01-21T15:39:29Z</time>
      </trkpt>
      <trkpt lat="49.47437" lon="0.95667">
        <ele>126</ele>
        <time>2017-01-21T15:39:44Z</time>
      </trkpt>
      <trkpt lat="49.47436" lon="0.95674">
        <ele>126</ele>
        <time>2017-01-21T15:39:44Z</time>
      </trkpt>
      <trkpt lat="49.47438" lon="0.95681">
        <ele>126</ele>
        <time>2017-01-21T15:39:44Z</time>
      </trkpt>
      <trkpt lat="49.47447" lon="0.95689">
        <ele>126</ele>
        <time>2017-01-21T15:39:44Z</time>
      </trkpt>
      <trkpt lat="49.47441" lon="0.95695">
        <ele>126</ele>
        <time>2017-01-21T15:40:01Z</time>
      </trkpt>
      <trkpt lat="49.47437" lon="0.95702">
        <ele>126</ele>
        <time>2017-01-21T15:40:01Z</time>
      </trkpt>
      <trkpt lat="49.47436" lon="0.95711">
        <ele>125</ele>
        <time>2017-01-21T15:40:01Z</time>
      </trkpt>
      <trkpt lat="49.47436" lon="0.95713">
        <ele>125</ele>
        <time>2017-01-21T15:40:01Z</time>
      </trkpt>
      <trkpt lat="49.47435" lon="0.95718">
        <ele>125</ele>
        <time>2017-01-21T15:40:16Z</time>
      </trkpt>
      <trkpt lat="49.47438" lon="0.95724">
        <ele>125</ele>
        <time>2017-01-21T15:40:16Z</time>
      </trkpt>
      <trkpt lat="49.47439" lon="0.95727">
        <ele>125</ele>
        <time>2017-01-21T15:40:16Z</time>
      </trkpt>
      <trkpt lat="49.47439" lon="0.95732">
        <ele>125</ele>
        <time>2017-01-21T15:40:16Z</time>
      </trkpt>
      <trkpt lat="49.4744" lon="0.95738">
        <ele>125</ele>
        <time>2017-01-21T15:40:32Z</time>
      </trkpt>
      <trkpt lat="49.4744" lon="0.95741">
        <ele>125</ele>
        <time>2017-01-21T15:40:32Z</time>
      </trkpt>
      <trkpt lat="49.47442" lon="0.95751">
        <ele>125</ele>
        <time>2017-01-21T15:40:32Z</time>
      </trkpt>
      <trkpt lat="49.47444" lon="0.95758">
        <ele>125</ele>
        <time>2017-01-21T15:40:32Z</time>
      </trkpt>
      <trkpt lat="49.47445" lon="0.95764">
        <ele>125</ele>
        <time>2017-01-21T15:40:49Z</time>
      </trkpt>
      <trkpt lat="49.47446" lon="0.9577">
        <ele>125</ele>
        <time>2017-01-21T15:40:49Z</time>
      </trkpt>
      <trkpt lat="49.47446" lon="0.95775">
        <ele>125</ele>
        <time>2017-01-21T15:40:49Z</time>
      </trkpt>
      <trkpt lat="49.47446" lon="0.95781">
        <ele>125</ele>
        <time>2017-01-21T15:40:49Z</time>
      </trkpt>
      <trkpt lat="49.47442" lon="0.95788">
        <ele>125</ele>
        <time>2017-01-21T15:47:12Z</time>
      </trkpt>
      <trkpt lat="49.47441" lon="0.95787">
        <ele>125</ele>
        <time>2017-01-21T15:47:12Z</time>
      </trkpt>
      <trkpt lat="49.4744" lon="0.95786">
        <ele>125</ele>
        <time>2017-01-21T15:47:12Z</time>
      </trkpt>
      <trkpt lat="49.4744" lon="0.95779">
        <ele>125</ele>
        <time>2017-01-21T15:47:12Z</time>
      </trkpt>
      <trkpt lat="49.47438" lon="0.95768">
        <ele>125</ele>
        <time>2017-01-21T15:47:12Z</time>
      </trkpt>
      <trkpt lat="49.47435" lon="0.95761">
        <ele>125</ele>
        <time>2017-01-21T15:47:29Z</time>
      </trkpt>
      <trkpt lat="49.4743" lon="0.95754">
        <ele>125</ele>
        <time>2017-01-21T15:47:29Z</time>
      </trkpt>
      <trkpt lat="49.47429" lon="0.95746">
        <ele>125</ele>
        <time>2017-01-21T15:47:29Z</time>
      </trkpt>
      <trkpt lat="49.47423" lon="0.95742">
        <ele>125</ele>
        <time>2017-01-21T15:47:29Z</time>
      </trkpt>
      <trkpt lat="49.4742" lon="0.95737">
        <ele>125</ele>
        <time>2017-01-21T15:47:48Z</time>
      </trkpt>
      <trkpt lat="49.47419" lon="0.95735">
        <ele>125</ele>
        <time>2017-01-21T15:47:48Z</time>
      </trkpt>
      <trkpt lat="49.47416" lon="0.9573">
        <ele>125</ele>
        <time>2017-01-21T15:47:48Z</time>
      </trkpt>
      <trkpt lat="49.47413" lon="0.95726">
        <ele>125</ele>
        <time>2017-01-21T15:47:48Z</time>
      </trkpt>
      <trkpt lat="49.4741" lon="0.95716">
        <ele>125</ele>
        <time>2017-01-21T15:48:12Z</time>
      </trkpt>
      <trkpt lat="49.47409" lon="0.95713">
        <ele>125</ele>
        <time>2017-01-21T15:48:12Z</time>
      </trkpt>
      <trkpt lat="49.47408" lon="0.95713">
        <ele>125</ele>
        <time>2017-01-21T15:48:12Z</time>
      </trkpt>
      <trkpt lat="49.47407" lon="0.95711">
        <ele>125</ele>
        <time>2017-01-21T15:48:12Z</time>
      </trkpt>
      <trkpt lat="49.47407" lon="0.95709">
        <ele>125</ele>
        <time>2017-01-21T15:48:12Z</time>
      </trkpt>
      <trkpt lat="49.47407" lon="0.95708">
        <ele>126</ele>
        <time>2017-01-21T15:48:29Z</time>
      </trkpt>
      <trkpt lat="49.47405" lon="0.957">
        <ele>126</ele>
        <time>2017-01-21T15:48:29Z</time>
      </trkpt>
      <trkpt lat="49.47404" lon="0.95693">
        <ele>126</ele>
        <time>2017-01-21T15:48:29Z</time>
      </trkpt>
      <trkpt lat="49.47401" lon="0.95685">
        <ele>126</ele>
        <time>2017-01-21T15:48:29Z</time>
      </trkpt>
      <trkpt lat="49.47402" lon="0.95682">
        <ele>126</ele>
        <time>2017-01-21T15:48:44Z</time>
      </trkpt>
      <trkpt lat="49.47399" lon="0.95671">
        <ele>126</ele>
        <time>2017-01-21T15:48:44Z</time>
      </trkpt>
      <trkpt lat="49.47399" lon="0.95668">
        <ele>126</ele>
        <time>2017-01-21T15:48:44Z</time>
      </trkpt>
      <trkpt lat="49.47397" lon="0.95657">
        <ele>126</ele>
        <time>2017-01-21T15:48:44Z</time>
      </trkpt>
      <trkpt lat="49.47396" lon="0.95646">
        <ele>126</ele>
        <time>2017-01-21T15:49:04Z</time>
      </trkpt>
      <trkpt lat="49.47397" lon="0.9564">
        <ele>126</ele>
        <time>2017-01-21T15:49:04Z</time>
      </trkpt>
      <trkpt lat="49.47396" lon="0.95631">
        <ele>126</ele>
        <time>2017-01-21T15:49:04Z</time>
      </trkpt>
      <trkpt lat="49.47395" lon="0.95619">
        <ele>125</ele>
        <time>2017-01-21T15:49:04Z</time>
      </trkpt>
      <trkpt lat="49.47396" lon="0.95606">
        <ele>125</ele>
        <time>2017-01-21T15:49:26Z</time>
      </trkpt>
      <trkpt lat="49.47398" lon="0.95601">
        <ele>125</ele>
        <time>2017-01-21T15:49:26Z</time>
      </trkpt>
      <trkpt lat="49.47397" lon="0.95589">
        <ele>125</ele>
        <time>2017-01-21T15:49:26Z</time>
      </trkpt>
      <trkpt lat="49.47397" lon="0.95583">
        <ele>125</ele>
        <time>2017-01-21T15:49:26Z</time>
      </trkpt>
      <trkpt lat="49.47397" lon="0.95581">
        <ele>125</ele>
        <time>2017-01-21T15:49:41Z</time>
      </trkpt>
      <trkpt lat="49.47394" lon="0.95568">
        <ele>125</ele>
        <time>2017-01-21T15:49:41Z</time>
      </trkpt>
      <trkpt lat="49.47394" lon="0.95561">
        <ele>125</ele>
        <time>2017-01-21T15:49:41Z</time>
      </trkpt>
      <trkpt lat="49.47394" lon="0.95554">
        <ele>125</ele>
        <time>2017-01-21T15:49:41Z</time>
      </trkpt>
      <trkpt lat="49.47391" lon="0.95542">
        <ele>125</ele>
        <time>2017-01-21T15:50:00Z</time>
      </trkpt>
      <trkpt lat="49.4739" lon="0.95532">
        <ele>126</ele>
        <time>2017-01-21T15:50:00Z</time>
      </trkpt>
      <trkpt lat="49.47389" lon="0.95528">
        <ele>126</ele>
        <time>2017-01-21T15:50:00Z</time>
      </trkpt>
      <trkpt lat="49.47387" lon="0.9552">
        <ele>126</ele>
        <time>2017-01-21T15:50:00Z</time>
      </trkpt>
      <trkpt lat="49.47385" lon="0.95511">
        <ele>126</ele>
        <time>2017-01-21T15:50:16Z</time>
      </trkpt>
      <trkpt lat="49.47382" lon="0.95506">
        <ele>126</ele>
        <time>2017-01-21T15:50:16Z</time>
      </trkpt>
      <trkpt lat="49.47382" lon="0.955">
        <ele>126</ele>
        <time>2017-01-21T15:50:16Z</time>
      </trkpt>
      <trkpt lat="49.47379" lon="0.95492">
        <ele>126</ele>
        <time>2017-01-21T15:50:16Z</time>
      </trkpt>
      <trkpt lat="49.4738" lon="0.95485">
        <ele>126</ele>
        <time>2017-01-21T15:50:33Z</time>
      </trkpt>
      <trkpt lat="49.47378" lon="0.95483">
        <ele>126</ele>
        <time>2017-01-21T15:50:33Z</time>
      </trkpt>
      <trkpt lat="49.47376" lon="0.95477">
        <ele>126</ele>
        <time>2017-01-21T15:50:33Z</time>
      </trkpt>
      <trkpt lat="49.47375" lon="0.95471">
        <ele>126</ele>
        <time>2017-01-21T15:50:33Z</time>
      </trkpt>
      <trkpt lat="49.47372" lon="0.95462">
        <ele>131</ele>
        <time>2017-01-21T15:50:49Z</time>
      </trkpt>
      <trkpt lat="49.47372" lon="0.95459">
        <ele>131</ele>
        <time>2017-01-21T15:50:49Z</time>
      </trkpt>
      <trkpt lat="49.4737" lon="0.9545">
        <ele>130</ele>
        <time>2017-01-21T15:50:49Z</time>
      </trkpt>
      <trkpt lat="49.47368" lon="0.9544">
        <ele>130</ele>
        <time>2017-01-21T15:50:49Z</time>
      </trkpt>
      <trkpt lat="49.47367" lon="0.95435">
        <ele>130</ele>
        <time>2017-01-21T15:51:04Z</time>
      </trkpt>
      <trkpt lat="49.47365" lon="0.95428">
        <ele>130</ele>
        <time>2017-01-21T15:51:04Z</time>
      </trkpt>
      <trkpt lat="49.47364" lon="0.95423">
        <ele>130</ele>
        <time>2017-01-21T15:51:04Z</time>
      </trkpt>
      <trkpt lat="49.47361" lon="0.95417">
        <ele>130</ele>
        <time>2017-01-21T15:51:04Z</time>
      </trkpt>
      <trkpt lat="49.4736" lon="0.95411">
        <ele>130</ele>
        <time>2017-01-21T15:51:20Z</time>
      </trkpt>
      <trkpt lat="49.47352" lon="0.95401">
        <ele>130</ele>
        <time>2017-01-21T15:51:20Z</time>
      </trkpt>
      <trkpt lat="49.47348" lon="0.95397">
        <ele>130</ele>
        <time>2017-01-21T15:51:20Z</time>
      </trkpt>
      <trkpt lat="49.47344" lon="0.95392">
        <ele>130</ele>
        <time>2017-01-21T15:51:20Z</time>
      </trkpt>
      <trkpt lat="49.4734" lon="0.95393">
        <ele>130</ele>
        <time>2017-01-21T15:51:41Z</time>
      </trkpt>
      <trkpt lat="49.47337" lon="0.95396">
        <ele>130</ele>
        <time>2017-01-21T15:51:41Z</time>
      </trkpt>
      <trkpt lat="49.47336" lon="0.95396">
        <ele>130</ele>
        <time>2017-01-21T15:51:41Z</time>
      </trkpt>
      <trkpt lat="49.47329" lon="0.95399">
        <ele>130</ele>
        <time>2017-01-21T15:51:41Z</time>
      </trkpt>
      <trkpt lat="49.4732" lon="0.954">
        <ele>130</ele>
        <time>2017-01-21T15:52:00Z</time>
      </trkpt>
      <trkpt lat="49.47316" lon="0.95399">
        <ele>130</ele>
        <time>2017-01-21T15:52:00Z</time>
      </trkpt>
      <trkpt lat="49.47312" lon="0.95401">
        <ele>130</ele>
        <time>2017-01-21T15:52:00Z</time>
      </trkpt>
      <trkpt lat="49.47308" lon="0.95402">
        <ele>130</ele>
        <time>2017-01-21T15:52:00Z</time>
      </trkpt>
      <trkpt lat="49.47305" lon="0.95404">
        <ele>130</ele>
        <time>2017-01-21T15:52:16Z</time>
      </trkpt>
      <trkpt lat="49.473" lon="0.95407">
        <ele>130</ele>
        <time>2017-01-21T15:52:16Z</time>
      </trkpt>
      <trkpt lat="49.47297" lon="0.95416">
        <ele>130</ele>
        <time>2017-01-21T15:52:16Z</time>
      </trkpt>
      <trkpt lat="49.47297" lon="0.95419">
        <ele>130</ele>
        <time>2017-01-21T15:52:16Z</time>
      </trkpt>
      <trkpt lat="49.47296" lon="0.95421">
        <ele>130</ele>
        <time>2017-01-21T15:52:33Z</time>
      </trkpt>
      <trkpt lat="49.47294" lon="0.95426">
        <ele>130</ele>
        <time>2017-01-21T15:52:33Z</time>
      </trkpt>
      <trkpt lat="49.47289" lon="0.95432">
        <ele>122</ele>
        <time>2017-01-21T15:52:33Z</time>
      </trkpt>
      <trkpt lat="49.47287" lon="0.95436">
        <ele>122</ele>
        <time>2017-01-21T15:52:33Z</time>
      </trkpt>
      <trkpt lat="49.47283" lon="0.95445">
        <ele>122</ele>
        <time>2017-01-21T15:52:48Z</time>
      </trkpt>
      <trkpt lat="49.47279" lon="0.95451">
        <ele>122</ele>
        <time>2017-01-21T15:52:48Z</time>
      </trkpt>
      <trkpt lat="49.47275" lon="0.95456">
        <ele>122</ele>
        <time>2017-01-21T15:52:48Z</time>
      </trkpt>
      <trkpt lat="49.4727" lon="0.95464">
        <ele>129</ele>
        <time>2017-01-21T15:52:48Z</time>
      </trkpt>
      <trkpt lat="49.47268" lon="0.95469">
        <ele>129</ele>
        <time>2017-01-21T15:53:04Z</time>
      </trkpt>
      <trkpt lat="49.47265" lon="0.95473">
        <ele>129</ele>
        <time>2017-01-21T15:53:04Z</time>
      </trkpt>
      <trkpt lat="49.47263" lon="0.95482">
        <ele>129</ele>
        <time>2017-01-21T15:53:04Z</time>
      </trkpt>
      <trkpt lat="49.47262" lon="0.95485">
        <ele>129</ele>
        <time>2017-01-21T15:53:04Z</time>
      </trkpt>
      <trkpt lat="49.4726" lon="0.95491">
        <ele>129</ele>
        <time>2017-01-21T15:53:20Z</time>
      </trkpt>
      <trkpt lat="49.47257" lon="0.95499">
        <ele>129</ele>
        <time>2017-01-21T15:53:21Z</time>
      </trkpt>
      <trkpt lat="49.47256" lon="0.95505">
        <ele>129</ele>
        <time>2017-01-21T15:53:21Z</time>
      </trkpt>
      <trkpt lat="49.47253" lon="0.95513">
        <ele>129</ele>
        <time>2017-01-21T15:53:21Z</time>
      </trkpt>
      <trkpt lat="49.47253" lon="0.9552">
        <ele>129</ele>
        <time>2017-01-21T15:53:46Z</time>
      </trkpt>
      <trkpt lat="49.4725" lon="0.95522">
        <ele>129</ele>
        <time>2017-01-21T15:53:46Z</time>
      </trkpt>
      <trkpt lat="49.47249" lon="0.95526">
        <ele>129</ele>
        <time>2017-01-21T15:53:46Z</time>
      </trkpt>
      <trkpt lat="49.47249" lon="0.95528">
        <ele>129</ele>
        <time>2017-01-21T15:53:46Z</time>
      </trkpt>
      <trkpt lat="49.47249" lon="0.9553">
        <ele>129</ele>
        <time>2017-01-21T15:53:46Z</time>
      </trkpt>
      <trkpt lat="49.47246" lon="0.95536">
        <ele>129</ele>
        <time>2017-01-21T15:54:01Z</time>
      </trkpt>
      <trkpt lat="49.47245" lon="0.95546">
        <ele>129</ele>
        <time>2017-01-21T15:54:01Z</time>
      </trkpt>
      <trkpt lat="49.47241" lon="0.95555">
        <ele>129</ele>
        <time>2017-01-21T15:54:01Z</time>
      </trkpt>
      <trkpt lat="49.47242" lon="0.95563">
        <ele>129</ele>
        <time>2017-01-21T15:54:01Z</time>
      </trkpt>
      <trkpt lat="49.47239" lon="0.95572">
        <ele>129</ele>
        <time>2017-01-21T15:54:16Z</time>
      </trkpt>
      <trkpt lat="49.47236" lon="0.95583">
        <ele>129</ele>
        <time>2017-01-21T15:54:16Z</time>
      </trkpt>
      <trkpt lat="49.47232" lon="0.9559">
        <ele>129</ele>
        <time>2017-01-21T15:54:16Z</time>
      </trkpt>
      <trkpt lat="49.47232" lon="0.95598">
        <ele>129</ele>
        <time>2017-01-21T15:54:16Z</time>
      </trkpt>
      <trkpt lat="49.47231" lon="0.95602">
        <ele>129</ele>
        <time>2017-01-21T15:54:33Z</time>
      </trkpt>
      <trkpt lat="49.47229" lon="0.95606">
        <ele>129</ele>
        <time>2017-01-21T15:54:33Z</time>
      </trkpt>
      <trkpt lat="49.47225" lon="0.95616">
        <ele>129</ele>
        <time>2017-01-21T15:54:33Z</time>
      </trkpt>
      <trkpt lat="49.47224" lon="0.95619">
        <ele>129</ele>
        <time>2017-01-21T15:54:33Z</time>
      </trkpt>
      <trkpt lat="49.47223" lon="0.95628">
        <ele>130</ele>
        <time>2017-01-21T15:54:50Z</time>
      </trkpt>
      <trkpt lat="49.47221" lon="0.95632">
        <ele>130</ele>
        <time>2017-01-21T15:54:50Z</time>
      </trkpt>
      <trkpt lat="49.47217" lon="0.95643">
        <ele>130</ele>
        <time>2017-01-21T15:54:50Z</time>
      </trkpt>
      <trkpt lat="49.47215" lon="0.95648">
        <ele>130</ele>
        <time>2017-01-21T15:54:50Z</time>
      </trkpt>
      <trkpt lat="49.47213" lon="0.95655">
        <ele>130</ele>
        <time>2017-01-21T15:55:05Z</time>
      </trkpt>
      <trkpt lat="49.47209" lon="0.95663">
        <ele>130</ele>
        <time>2017-01-21T15:55:05Z</time>
      </trkpt>
      <trkpt lat="49.47204" lon="0.95672">
        <ele>128</ele>
        <time>2017-01-21T15:55:05Z</time>
      </trkpt>
      <trkpt lat="49.47203" lon="0.95673">
        <ele>128</ele>
        <time>2017-01-21T15:55:05Z</time>
      </trkpt>
      <trkpt lat="49.47197" lon="0.95681">
        <ele>128</ele>
        <time>2017-01-21T15:55:24Z</time>
      </trkpt>
      <trkpt lat="49.47194" lon="0.95684">
        <ele>128</ele>
        <time>2017-01-21T15:55:24Z</time>
      </trkpt>
      <trkpt lat="49.47192" lon="0.95691">
        <ele>128</ele>
        <time>2017-01-21T15:55:24Z</time>
      </trkpt>
      <trkpt lat="49.47186" lon="0.95702">
        <ele>128</ele>
        <time>2017-01-21T15:55:24Z</time>
      </trkpt>
      <trkpt lat="49.47183" lon="0.9571">
        <ele>135</ele>
        <time>2017-01-21T15:55:40Z</time>
      </trkpt>
      <trkpt lat="49.4718" lon="0.95716">
        <ele>135</ele>
        <time>2017-01-21T15:55:40Z</time>
      </trkpt>
      <trkpt lat="49.47177" lon="0.9572">
        <ele>135</ele>
        <time>2017-01-21T15:55:40Z</time>
      </trkpt>
      <trkpt lat="49.47176" lon="0.95723">
        <ele>135</ele>
        <time>2017-01-21T15:55:40Z</time>
      </trkpt>
      <trkpt lat="49.47173" lon="0.95727">
        <ele>135</ele>
        <time>2017-01-21T15:55:57Z</time>
      </trkpt>
      <trkpt lat="49.4717" lon="0.95732">
        <ele>135</ele>
        <time>2017-01-21T15:55:57Z</time>
      </trkpt>
      <trkpt lat="49.47167" lon="0.95736">
        <ele>135</ele>
        <time>2017-01-21T15:55:57Z</time>
      </trkpt>
      <trkpt lat="49.47164" lon="0.9574">
        <ele>135</ele>
        <time>2017-01-21T15:55:57Z</time>
      </trkpt>
      <trkpt lat="49.4716" lon="0.95744">
        <ele>135</ele>
        <time>2017-01-21T15:56:12Z</time>
      </trkpt>
      <trkpt lat="49.47156" lon="0.95747">
        <ele>135</ele>
        <time>2017-01-21T15:56:12Z</time>
      </trkpt>
      <trkpt lat="49.47152" lon="0.95752">
        <ele>135</ele>
        <time>2017-01-21T15:56:12Z</time>
      </trkpt>
      <trkpt lat="49.4715" lon="0.95753">
        <ele>135</ele>
        <time>2017-01-21T15:56:12Z</time>
      </trkpt>
      <trkpt lat="49.47146" lon="0.95755">
        <ele>135</ele>
        <time>2017-01-21T15:56:29Z</time>
      </trkpt>
      <trkpt lat="49.47138" lon="0.95759">
        <ele>135</ele>
        <time>2017-01-21T15:56:29Z</time>
      </trkpt>
      <trkpt lat="49.47133" lon="0.95762">
        <ele>135</ele>
        <time>2017-01-21T15:56:29Z</time>
      </trkpt>
      <trkpt lat="49.47131" lon="0.95764">
        <ele>135</ele>
        <time>2017-01-21T15:56:29Z</time>
      </trkpt>
      <trkpt lat="49.47127" lon="0.95764">
        <ele>135</ele>
        <time>2017-01-21T15:56:45Z</time>
      </trkpt>
      <trkpt lat="49.47122" lon="0.95766">
        <ele>134</ele>
        <time>2017-01-21T15:56:45Z</time>
      </trkpt>
      <trkpt lat="49.47118" lon="0.95769">
        <ele>134</ele>
        <time>2017-01-21T15:56:45Z</time>
      </trkpt>
      <trkpt lat="49.47111" lon="0.95771">
        <ele>134</ele>
        <time>2017-01-21T15:56:45Z</time>
      </trkpt>
      <trkpt lat="49.47105" lon="0.95774">
        <ele>134</ele>
        <time>2017-01-21T15:57:00Z</time>
      </trkpt>
      <trkpt lat="49.47099" lon="0.95775">
        <ele>134</ele>
        <time>2017-01-21T15:57:00Z</time>
      </trkpt>
      <trkpt lat="49.47095" lon="0.95778">
        <ele>134</ele>
        <time>2017-01-21T15:57:01Z</time>
      </trkpt>
      <trkpt lat="49.47092" lon="0.9578">
        <ele>134</ele>
        <time>2017-01-21T15:57:01Z</time>
      </trkpt>
      <trkpt lat="49.47089" lon="0.9578">
        <ele>134</ele>
        <time>2017-01-21T15:57:16Z</time>
      </trkpt>
      <trkpt lat="49.47085" lon="0.95779">
        <ele>134</ele>
        <time>2017-01-21T15:57:16Z</time>
      </trkpt>
      <trkpt lat="49.47083" lon="0.95784">
        <ele>134</ele>
        <time>2017-01-21T15:57:16Z</time>
      </trkpt>
      <trkpt lat="49.4708" lon="0.95786">
        <ele>134</ele>
        <time>2017-01-21T15:57:16Z</time>
      </trkpt>
      <trkpt lat="49.47074" lon="0.9579">
        <ele>134</ele>
        <time>2017-01-21T15:57:36Z</time>
      </trkpt>
      <trkpt lat="49.47074" lon="0.95793">
        <ele>136</ele>
        <time>2017-01-21T15:57:36Z</time>
      </trkpt>
      <trkpt lat="49.47071" lon="0.95794">
        <ele>136</ele>
        <time>2017-01-21T15:57:37Z</time>
      </trkpt>
      <trkpt lat="49.47069" lon="0.95795">
        <ele>136</ele>
        <time>2017-01-21T15:57:37Z</time>
      </trkpt>
      <trkpt lat="49.47062" lon="0.95805">
        <ele>136</ele>
        <time>2017-01-21T15:57:37Z</time>
      </trkpt>
      <trkpt lat="49.47056" lon="0.95817">
        <ele>136</ele>
        <time>2017-01-21T16:01:00Z</time>
      </trkpt>
      <trkpt lat="49.47055" lon="0.95818">
        <ele>136</ele>
        <time>2017-01-21T16:01:00Z</time>
      </trkpt>
      <trkpt lat="49.47055" lon="0.95818">
        <ele>136</ele>
        <time>2017-01-21T16:01:00Z</time>
      </trkpt>
      <trkpt lat="49.47055" lon="0.95819">
        <ele>136</ele>
        <time>2017-01-21T16:01:00Z</time>
      </trkpt>
      <trkpt lat="49.47055" lon="0.95819">
        <ele>136</ele>
        <time>2017-01-21T16:01:00Z</time>
      </trkpt>
      <trkpt lat="49.47051" lon="0.95818">
        <ele>136</ele>
        <time>2017-01-21T16:02:16Z</time>
      </trkpt>
      <trkpt lat="49.47046" lon="0.95824">
        <ele>136</ele>
        <time>2017-01-21T16:02:16Z</time>
      </trkpt>
      <trkpt lat="49.47046" lon="0.95827">
        <ele>136</ele>
        <time>2017-01-21T16:02:16Z</time>
      </trkpt>
      <trkpt lat="49.47045" lon="0.95828">
        <ele>136</ele>
        <time>2017-01-21T16:02:16Z</time>
      </trkpt>
      <trkpt lat="49.47044" lon="0.95829">
        <ele>136</ele>
        <time>2017-01-21T16:02:17Z</time>
      </trkpt>
      <trkpt lat="49.47042" lon="0.95831">
        <ele>136</ele>
        <time>2017-01-21T16:02:33Z</time>
      </trkpt>
      <trkpt lat="49.47034" lon="0.95834">
        <ele>137</ele>
        <time>2017-01-21T16:02:33Z</time>
      </trkpt>
      <trkpt lat="49.4703" lon="0.95838">
        <ele>137</ele>
        <time>2017-01-21T16:02:33Z</time>
      </trkpt>
      <trkpt lat="49.47025" lon="0.9584">
        <ele>137</ele>
        <time>2017-01-21T16:02:33Z</time>
      </trkpt>
      <trkpt lat="49.4701" lon="0.95842">
        <ele>137</ele>
        <time>2017-01-21T16:02:53Z</time>
      </trkpt>
      <trkpt lat="49.47006" lon="0.95842">
        <ele>137</ele>
        <time>2017-01-21T16:02:53Z</time>
      </trkpt>
      <trkpt lat="49.47" lon="0.95843">
        <ele>137</ele>
        <time>2017-01-21T16:02:53Z</time>
      </trkpt>
      <trkpt lat="49.46996" lon="0.95844">
        <ele>137</ele>
        <time>2017-01-21T16:02:53Z</time>
      </trkpt>
      <trkpt lat="49.46978" lon="0.95848">
        <ele>137</ele>
        <time>2017-01-21T16:03:16Z</time>
      </trkpt>
      <trkpt lat="49.46973" lon="0.95847">
        <ele>137</ele>
        <time>2017-01-21T16:03:16Z</time>
      </trkpt>
      <trkpt lat="49.4697" lon="0.95847">
        <ele>137</ele>
        <time>2017-01-21T16:03:16Z</time>
      </trkpt>
      <trkpt lat="49.46966" lon="0.9585">
        <ele>137</ele>
        <time>2017-01-21T16:03:16Z</time>
      </trkpt>
      <trkpt lat="49.46963" lon="0.95854">
        <ele>137</ele>
        <time>2017-01-21T16:03:32Z</time>
      </trkpt>
      <trkpt lat="49.46957" lon="0.95858">
        <ele>128</ele>
        <time>2017-01-21T16:03:32Z</time>
      </trkpt>
      <trkpt lat="49.46952" lon="0.95864">
        <ele>128</ele>
        <time>2017-01-21T16:03:32Z</time>
      </trkpt>
      <trkpt lat="49.46949" lon="0.95865">
        <ele>128</ele>
        <time>2017-01-21T16:03:32Z</time>
      </trkpt>
      <trkpt lat="49.46946" lon="0.95868">
        <ele>128</ele>
        <time>2017-01-21T16:03:48Z</time>
      </trkpt>
      <trkpt lat="49.46941" lon="0.95872">
        <ele>128</ele>
        <time>2017-01-21T16:03:49Z</time>
      </trkpt>
      <trkpt lat="49.46937" lon="0.95873">
        <ele>128</ele>
        <time>2017-01-21T16:03:49Z</time>
      </trkpt>
      <trkpt lat="49.46936" lon="0.95877">
        <ele>137</ele>
        <time>2017-01-21T16:03:49Z</time>
      </trkpt>
      <trkpt lat="49.46927" lon="0.95891">
        <ele>137</ele>
        <time>2017-01-21T16:04:08Z</time>
      </trkpt>
      <trkpt lat="49.46926" lon="0.95894">
        <ele>137</ele>
        <time>2017-01-21T16:04:08Z</time>
      </trkpt>
      <trkpt lat="49.46921" lon="0.95897">
        <ele>137</ele>
        <time>2017-01-21T16:04:08Z</time>
      </trkpt>
      <trkpt lat="49.46916" lon="0.95897">
        <ele>137</ele>
        <time>2017-01-21T16:04:08Z</time>
      </trkpt>
      <trkpt lat="49.46912" lon="0.95896">
        <ele>137</ele>
        <time>2017-01-21T16:04:30Z</time>
      </trkpt>
      <trkpt lat="49.46908" lon="0.95899">
        <ele>137</ele>
        <time>2017-01-21T16:04:30Z</time>
      </trkpt>
      <trkpt lat="49.46904" lon="0.959">
        <ele>137</ele>
        <time>2017-01-21T16:04:30Z</time>
      </trkpt>
      <trkpt lat="49.46903" lon="0.95901">
        <ele>137</ele>
        <time>2017-01-21T16:04:30Z</time>
      </trkpt>
      <trkpt lat="49.46899" lon="0.95905">
        <ele>137</ele>
        <time>2017-01-21T16:04:30Z</time>
      </trkpt>
      <trkpt lat="49.46895" lon="0.95904">
        <ele>137</ele>
        <time>2017-01-21T16:04:45Z</time>
      </trkpt>
      <trkpt lat="49.4689" lon="0.95907">
        <ele>137</ele>
        <time>2017-01-21T16:04:45Z</time>
      </trkpt>
      <trkpt lat="49.46886" lon="0.95911">
        <ele>137</ele>
        <time>2017-01-21T16:04:45Z</time>
      </trkpt>
      <trkpt lat="49.46883" lon="0.95916">
        <ele>137</ele>
        <time>2017-01-21T16:04:45Z</time>
      </trkpt>
      <trkpt lat="49.46877" lon="0.95919">
        <ele>137</ele>
        <time>2017-01-21T16:05:02Z</time>
      </trkpt>
      <trkpt lat="49.46872" lon="0.95923">
        <ele>132</ele>
        <time>2017-01-21T16:05:02Z</time>
      </trkpt>
      <trkpt lat="49.46868" lon="0.95926">
        <ele>132</ele>
        <time>2017-01-21T16:05:02Z</time>
      </trkpt>
      <trkpt lat="49.46863" lon="0.95928">
        <ele>132</ele>
        <time>2017-01-21T16:05:02Z</time>
      </trkpt>
      <trkpt lat="49.46855" lon="0.95931">
        <ele>132</ele>
        <time>2017-01-21T16:05:21Z</time>
      </trkpt>
      <trkpt lat="49.46851" lon="0.95928">
        <ele>132</ele>
        <time>2017-01-21T16:05:21Z</time>
      </trkpt>
      <trkpt lat="49.46844" lon="0.95926">
        <ele>132</ele>
        <time>2017-01-21T16:05:21Z</time>
      </trkpt>
      <trkpt lat="49.4684" lon="0.95928">
        <ele>132</ele>
        <time>2017-01-21T16:05:21Z</time>
      </trkpt>
      <trkpt lat="49.46835" lon="0.95927">
        <ele>132</ele>
        <time>2017-01-21T16:05:36Z</time>
      </trkpt>
      <trkpt lat="49.46831" lon="0.95928">
        <ele>132</ele>
        <time>2017-01-21T16:05:36Z</time>
      </trkpt>
      <trkpt lat="49.46827" lon="0.95926">
        <ele>132</ele>
        <time>2017-01-21T16:05:36Z</time>
      </trkpt>
      <trkpt lat="49.46821" lon="0.95928">
        <ele>132</ele>
        <time>2017-01-21T16:05:36Z</time>
      </trkpt>
      <trkpt lat="49.46816" lon="0.95929">
        <ele>132</ele>
        <time>2017-01-21T16:05:53Z</time>
      </trkpt>
      <trkpt lat="49.46813" lon="0.95934">
        <ele>132</ele>
        <time>2017-01-21T16:05:53Z</time>
      </trkpt>
      <trkpt lat="49.46806" lon="0.95936">
        <ele>132</ele>
        <time>2017-01-21T16:05:53Z</time>
      </trkpt>
      <trkpt lat="49.46803" lon="0.95938">
        <ele>132</ele>
        <time>2017-01-21T16:05:53Z</time>
      </trkpt>
      <trkpt lat="49.46799" lon="0.95936">
        <ele>132</ele>
        <time>2017-01-21T16:06:48Z</time>
      </trkpt>
      <trkpt lat="49.46797" lon="0.95936">
        <ele>132</ele>
        <time>2017-01-21T16:06:48Z</time>
      </trkpt>
      <trkpt lat="49.46786" lon="0.95941">
        <ele>129</ele>
        <time>2017-01-21T16:06:48Z</time>
      </trkpt>
      <trkpt lat="49.46781" lon="0.95943">
        <ele>129</ele>
        <time>2017-01-21T16:06:48Z</time>
      </trkpt>
      <trkpt lat="49.46781" lon="0.95941">
        <ele>129</ele>
        <time>2017-01-21T16:06:48Z</time>
      </trkpt>
      <trkpt lat="49.46778" lon="0.95943">
        <ele>129</ele>
        <time>2017-01-21T16:07:12Z</time>
      </trkpt>
      <trkpt lat="49.46769" lon="0.95947">
        <ele>129</ele>
        <time>2017-01-21T16:07:12Z</time>
      </trkpt>
      <trkpt lat="49.46765" lon="0.95948">
        <ele>129</ele>
        <time>2017-01-21T16:07:12Z</time>
      </trkpt>
      <trkpt lat="49.46761" lon="0.95952">
        <ele>129</ele>
        <time>2017-01-21T16:07:12Z</time>
      </trkpt>
      <trkpt lat="49.46756" lon="0.95964">
        <ele>133</ele>
        <time>2017-01-21T16:07:40Z</time>
      </trkpt>
      <trkpt lat="49.4675" lon="0.95969">
        <ele>133</ele>
        <time>2017-01-21T16:07:40Z</time>
      </trkpt>
      <trkpt lat="49.46744" lon="0.95973">
        <ele>133</ele>
        <time>2017-01-21T16:07:40Z</time>
      </trkpt>
      <trkpt lat="49.4674" lon="0.95974">
        <ele>133</ele>
        <time>2017-01-21T16:07:40Z</time>
      </trkpt>
      <trkpt lat="49.46737" lon="0.95976">
        <ele>133</ele>
        <time>2017-01-21T16:07:40Z</time>
      </trkpt>
      <trkpt lat="49.46731" lon="0.95979">
        <ele>133</ele>
        <time>2017-01-21T16:07:57Z</time>
      </trkpt>
      <trkpt lat="49.46726" lon="0.95981">
        <ele>133</ele>
        <time>2017-01-21T16:07:57Z</time>
      </trkpt>
      <trkpt lat="49.46721" lon="0.95982">
        <ele>133</ele>
        <time>2017-01-21T16:07:57Z</time>
      </trkpt>
      <trkpt lat="49.46716" lon="0.95986">
        <ele>133</ele>
        <time>2017-01-21T16:07:57Z</time>
      </trkpt>
      <trkpt lat="49.46706" lon="0.95994">
        <ele>131</ele>
        <time>2017-01-21T16:08:16Z</time>
      </trkpt>
      <trkpt lat="49.46702" lon="0.95995">
        <ele>131</ele>
        <time>2017-01-21T16:08:16Z</time>
      </trkpt>
      <trkpt lat="49.46696" lon="0.95997">
        <ele>131</ele>
        <time>2017-01-21T16:08:16Z</time>
      </trkpt>
      <trkpt lat="49.46693" lon="0.95998">
        <ele>131</ele>
        <time>2017-01-21T16:08:17Z</time>
      </trkpt>
      <trkpt lat="49.46681" lon="0.96003">
        <ele>131</ele>
        <time>2017-01-21T16:08:36Z</time>
      </trkpt>
      <trkpt lat="49.46675" lon="0.96007">
        <ele>131</ele>
        <time>2017-01-21T16:08:36Z</time>
      </trkpt>
      <trkpt lat="49.4667" lon="0.96008">
        <ele>131</ele>
        <time>2017-01-21T16:08:36Z</time>
      </trkpt>
      <trkpt lat="49.46665" lon="0.96014">
        <ele>131</ele>
        <time>2017-01-21T16:08:36Z</time>
      </trkpt>
      <trkpt lat="49.46657" lon="0.96018">
        <ele>131</ele>
        <time>2017-01-21T16:08:57Z</time>
      </trkpt>
      <trkpt lat="49.46652" lon="0.96022">
        <ele>131</ele>
        <time>2017-01-21T16:08:57Z</time>
      </trkpt>
      <trkpt lat="49.46648" lon="0.96024">
        <ele>131</ele>
        <time>2017-01-21T16:08:57Z</time>
      </trkpt>
      <trkpt lat="49.46644" lon="0.96025">
        <ele>131</ele>
        <time>2017-01-21T16:08:57Z</time>
      </trkpt>
      <trkpt lat="49.46635" lon="0.96037">
        <ele>131</ele>
        <time>2017-01-21T16:09:20Z</time>
      </trkpt>
      <trkpt lat="49.4663" lon="0.9604">
        <ele>131</ele>
        <time>2017-01-21T16:09:20Z</time>
      </trkpt>
      <trkpt lat="49.46626" lon="0.96046">
        <ele>134</ele>
        <time>2017-01-21T16:09:20Z</time>
      </trkpt>
      <trkpt lat="49.4662" lon="0.96052">
        <ele>133</ele>
        <time>2017-01-21T16:09:20Z</time>
      </trkpt>
      <trkpt lat="49.46617" lon="0.96056">
        <ele>133</ele>
        <time>2017-01-21T16:09:41Z</time>
      </trkpt>
      <trkpt lat="49.46615" lon="0.9606">
        <ele>133</ele>
        <time>2017-01-21T16:09:41Z</time>
      </trkpt>
      <trkpt lat="49.46612" lon="0.96063">
        <ele>133</ele>
        <time>2017-01-21T16:09:41Z</time>
      </trkpt>
      <trkpt lat="49.46611" lon="0.96065">
        <ele>133</ele>
        <time>2017-01-21T16:09:41Z</time>
      </trkpt>
      <trkpt lat="49.46605" lon="0.9607">
        <ele>133</ele>
        <time>2017-01-21T16:09:41Z</time>
      </trkpt>
      <trkpt lat="49.46603" lon="0.96072">
        <ele>133</ele>
        <time>2017-01-21T16:09:56Z</time>
      </trkpt>
      <trkpt lat="49.466" lon="0.96074">
        <ele>133</ele>
        <time>2017-01-21T16:09:56Z</time>
      </trkpt>
      <trkpt lat="49.46595" lon="0.96079">
        <ele>133</ele>
        <time>2017-01-21T16:09:56Z</time>
      </trkpt>
      <trkpt lat="49.46593" lon="0.96083">
        <ele>133</ele>
        <time>2017-01-21T16:09:56Z</time>
      </trkpt>
      <trkpt lat="49.46592" lon="0.96086">
        <ele>133</ele>
        <time>2017-01-21T16:10:12Z</time>
      </trkpt>
      <trkpt lat="49.46591" lon="0.96088">
        <ele>133</ele>
        <time>2017-01-21T16:10:12Z</time>
      </trkpt>
      <trkpt lat="49.46588" lon="0.96092">
        <ele>133</ele>
        <time>2017-01-21T16:10:12Z</time>
      </trkpt>
      <trkpt lat="49.46585" lon="0.96098">
        <ele>133</ele>
        <time>2017-01-21T16:10:12Z</time>
      </trkpt>
      <trkpt lat="49.46582" lon="0.96102">
        <ele>133</ele>
        <time>2017-01-21T16:10:40Z</time>
      </trkpt>
      <trkpt lat="49.4658" lon="0.96105">
        <ele>133</ele>
        <time>2017-01-21T16:10:40Z</time>
      </trkpt>
      <trkpt lat="49.4656" lon="0.96134">
        <ele>134</ele>
        <time>2017-01-21T16:10:40Z</time>
      </trkpt>
      <trkpt lat="49.46553" lon="0.96141">
        <ele>134</ele>
        <time>2017-01-21T16:10:40Z</time>
      </trkpt>
      <trkpt lat="49.46547" lon="0.96145">
        <ele>134</ele>
        <time>2017-01-21T16:11:12Z</time>
      </trkpt>
      <trkpt lat="49.46543" lon="0.96147">
        <ele>134</ele>
        <time>2017-01-21T16:11:12Z</time>
      </trkpt>
      <trkpt lat="49.46541" lon="0.96147">
        <ele>133</ele>
        <time>2017-01-21T16:11:12Z</time>
      </trkpt>
      <trkpt lat="49.46535" lon="0.96149">
        <ele>133</ele>
        <time>2017-01-21T16:11:12Z</time>
      </trkpt>
      <trkpt lat="49.46527" lon="0.96149">
        <ele>133</ele>
        <time>2017-01-21T16:11:12Z</time>
      </trkpt>
      <trkpt lat="49.4652" lon="0.96151">
        <ele>133</ele>
        <time>2017-01-21T16:11:29Z</time>
      </trkpt>
      <trkpt lat="49.46514" lon="0.96152">
        <ele>133</ele>
        <time>2017-01-21T16:11:29Z</time>
      </trkpt>
      <trkpt lat="49.46511" lon="0.96154">
        <ele>133</ele>
        <time>2017-01-21T16:11:29Z</time>
      </trkpt>
      <trkpt lat="49.46501" lon="0.96159">
        <ele>133</ele>
        <time>2017-01-21T16:11:29Z</time>
      </trkpt>
      <trkpt lat="49.46496" lon="0.96162">
        <ele>133</ele>
        <time>2017-01-21T16:11:44Z</time>
      </trkpt>
      <trkpt lat="49.46493" lon="0.96164">
        <ele>133</ele>
        <time>2017-01-21T16:11:44Z</time>
      </trkpt>
      <trkpt lat="49.46488" lon="0.96166">
        <ele>133</ele>
        <time>2017-01-21T16:11:44Z</time>
      </trkpt>
      <trkpt lat="49.46485" lon="0.96169">
        <ele>133</ele>
        <time>2017-01-21T16:11:44Z</time>
      </trkpt>
      <trkpt lat="49.46479" lon="0.96172">
        <ele>133</ele>
        <time>2017-01-21T16:12:04Z</time>
      </trkpt>
      <trkpt lat="49.46475" lon="0.96174">
        <ele>133</ele>
        <time>2017-01-21T16:12:04Z</time>
      </trkpt>
      <trkpt lat="49.46471" lon="0.96177">
        <ele>133</ele>
        <time>2017-01-21T16:12:04Z</time>
      </trkpt>
      <trkpt lat="49.46468" lon="0.96181">
        <ele>133</ele>
        <time>2017-01-21T16:12:04Z</time>
      </trkpt>
      <trkpt lat="49.46463" lon="0.96186">
        <ele>133</ele>
        <time>2017-01-21T16:12:21Z</time>
      </trkpt>
      <trkpt lat="49.46459" lon="0.96189">
        <ele>133</ele>
        <time>2017-01-21T16:12:21Z</time>
      </trkpt>
      <trkpt lat="49.46455" lon="0.96192">
        <ele>125</ele>
        <time>2017-01-21T16:12:21Z</time>
      </trkpt>
      <trkpt lat="49.46449" lon="0.96198">
        <ele>125</ele>
        <time>2017-01-21T16:12:21Z</time>
      </trkpt>
      <trkpt lat="49.4644" lon="0.96203">
        <ele>125</ele>
        <time>2017-01-21T16:12:36Z</time>
      </trkpt>
      <trkpt lat="49.46436" lon="0.96208">
        <ele>125</ele>
        <time>2017-01-21T16:12:36Z</time>
      </trkpt>
      <trkpt lat="49.46433" lon="0.9621">
        <ele>134</ele>
        <time>2017-01-21T16:12:36Z</time>
      </trkpt>
      <trkpt lat="49.46428" lon="0.96214">
        <ele>134</ele>
        <time>2017-01-21T16:12:36Z</time>
      </trkpt>
      <trkpt lat="49.46428" lon="0.96219">
        <ele>134</ele>
        <time>2017-01-21T16:12:54Z</time>
      </trkpt>
      <trkpt lat="49.46426" lon="0.96225">
        <ele>134</ele>
        <time>2017-01-21T16:12:54Z</time>
      </trkpt>
      <trkpt lat="49.46425" lon="0.9623">
        <ele>134</ele>
        <time>2017-01-21T16:12:54Z</time>
      </trkpt>
      <trkpt lat="49.46422" lon="0.96235">
        <ele>134</ele>
        <time>2017-01-21T16:12:54Z</time>
      </trkpt>
      <trkpt lat="49.46415" lon="0.96248">
        <ele>134</ele>
        <time>2017-01-21T16:13:16Z</time>
      </trkpt>
      <trkpt lat="49.46413" lon="0.96252">
        <ele>134</ele>
        <time>2017-01-21T16:13:16Z</time>
      </trkpt>
      <trkpt lat="49.46409" lon="0.96261">
        <ele>134</ele>
        <time>2017-01-21T16:13:16Z</time>
      </trkpt>
      <trkpt lat="49.46406" lon="0.9627">
        <ele>134</ele>
        <time>2017-01-21T16:13:16Z</time>
      </trkpt>
      <trkpt lat="49.46405" lon="0.9627">
        <ele>134</ele>
        <time>2017-01-21T16:13:46Z</time>
      </trkpt>
      <trkpt lat="49.46403" lon="0.96275">
        <ele>134</ele>
        <time>2017-01-21T16:13:46Z</time>
      </trkpt>
      <trkpt lat="49.46401" lon="0.96277">
        <ele>134</ele>
        <time>2017-01-21T16:13:46Z</time>
      </trkpt>
      <trkpt lat="49.46399" lon="0.96278">
        <ele>134</ele>
        <time>2017-01-21T16:13:46Z</time>
      </trkpt>
      <trkpt lat="49.46395" lon="0.96282">
        <ele>134</ele>
        <time>2017-01-21T16:13:46Z</time>
      </trkpt>
      <trkpt lat="49.46391" lon="0.96284">
        <ele>134</ele>
        <time>2017-01-21T16:14:02Z</time>
      </trkpt>
      <trkpt lat="49.46387" lon="0.96288">
        <ele>134</ele>
        <time>2017-01-21T16:14:02Z</time>
      </trkpt>
      <trkpt lat="49.46384" lon="0.96289">
        <ele>134</ele>
        <time>2017-01-21T16:14:02Z</time>
      </trkpt>
      <trkpt lat="49.46378" lon="0.96292">
        <ele>131</ele>
        <time>2017-01-21T16:14:03Z</time>
      </trkpt>
      <trkpt lat="49.46377" lon="0.96293">
        <ele>131</ele>
        <time>2017-01-21T16:14:16Z</time>
      </trkpt>
      <trkpt lat="49.46375" lon="0.96295">
        <ele>121</ele>
        <time>2017-01-21T16:14:16Z</time>
      </trkpt>
      <trkpt lat="49.46366" lon="0.96303">
        <ele>121</ele>
        <time>2017-01-21T16:14:16Z</time>
      </trkpt>
      <trkpt lat="49.46364" lon="0.96304">
        <ele>121</ele>
        <time>2017-01-21T16:14:16Z</time>
      </trkpt>
      <trkpt lat="49.46358" lon="0.96306">
        <ele>121</ele>
        <time>2017-01-21T16:14:33Z</time>
      </trkpt>
      <trkpt lat="49.46356" lon="0.96305">
        <ele>121</ele>
        <time>2017-01-21T16:14:33Z</time>
      </trkpt>
      <trkpt lat="49.46349" lon="0.96307">
        <ele>121</ele>
        <time>2017-01-21T16:14:33Z</time>
      </trkpt>
      <trkpt lat="49.46347" lon="0.96308">
        <ele>121</ele>
        <time>2017-01-21T16:14:33Z</time>
      </trkpt>
      <trkpt lat="49.4634" lon="0.96308">
        <ele>121</ele>
        <time>2017-01-21T16:14:52Z</time>
      </trkpt>
      <trkpt lat="49.46333" lon="0.96308">
        <ele>121</ele>
        <time>2017-01-21T16:14:52Z</time>
      </trkpt>
      <trkpt lat="49.4633" lon="0.96308">
        <ele>121</ele>
        <time>2017-01-21T16:14:52Z</time>
      </trkpt>
      <trkpt lat="49.46326" lon="0.96308">
        <ele>121</ele>
        <time>2017-01-21T16:14:52Z</time>
      </trkpt>
      <trkpt lat="49.46324" lon="0.96307">
        <ele>121</ele>
        <time>2017-01-21T16:15:08Z</time>
      </trkpt>
      <trkpt lat="49.46319" lon="0.96306">
        <ele>121</ele>
        <time>2017-01-21T16:15:08Z</time>
      </trkpt>
      <trkpt lat="49.46314" lon="0.96305">
        <ele>121</ele>
        <time>2017-01-21T16:15:08Z</time>
      </trkpt>
      <trkpt lat="49.4631" lon="0.96304">
        <ele>121</ele>
        <time>2017-01-21T16:15:08Z</time>
      </trkpt>
      <trkpt lat="49.46307" lon="0.96303">
        <ele>121</ele>
        <time>2017-01-21T16:15:28Z</time>
      </trkpt>
      <trkpt lat="49.46304" lon="0.96304">
        <ele>121</ele>
        <time>2017-01-21T16:15:28Z</time>
      </trkpt>
      <trkpt lat="49.46299" lon="0.96305">
        <ele>121</ele>
        <time>2017-01-21T16:15:28Z</time>
      </trkpt>
      <trkpt lat="49.46299" lon="0.96304">
        <ele>121</ele>
        <time>2017-01-21T16:15:28Z</time>
      </trkpt>
      <trkpt lat="49.46295" lon="0.96303">
        <ele>121</ele>
        <time>2017-01-21T16:15:28Z</time>
      </trkpt>
      <trkpt lat="49.4629" lon="0.96303">
        <ele>106</ele>
        <time>2017-01-21T16:15:45Z</time>
      </trkpt>
      <trkpt lat="49.46287" lon="0.96303">
        <ele>106</ele>
        <time>2017-01-21T16:15:45Z</time>
      </trkpt>
      <trkpt lat="49.46283" lon="0.96303">
        <ele>106</ele>
        <time>2017-01-21T16:15:45Z</time>
      </trkpt>
      <trkpt lat="49.4628" lon="0.96301">
        <ele>106</ele>
        <time>2017-01-21T16:15:45Z</time>
      </trkpt>
      <trkpt lat="49.46278" lon="0.96297">
        <ele>106</ele>
        <time>2017-01-21T16:16:00Z</time>
      </trkpt>
      <trkpt lat="49.46275" lon="0.96295">
        <ele>106</ele>
        <time>2017-01-21T16:16:00Z</time>
      </trkpt>
      <trkpt lat="49.46271" lon="0.96296">
        <ele>106</ele>
        <time>2017-01-21T16:16:00Z</time>
      </trkpt>
      <trkpt lat="49.46268" lon="0.96295">
        <ele>106</ele>
        <time>2017-01-21T16:16:00Z</time>
      </trkpt>
      <trkpt lat="49.46265" lon="0.96295">
        <ele>106</ele>
        <time>2017-01-21T16:16:20Z</time>
      </trkpt>
      <trkpt lat="49.46262" lon="0.96294">
        <ele>106</ele>
        <time>2017-01-21T16:16:21Z</time>
      </trkpt>
      <trkpt lat="49.4626" lon="0.9629">
        <ele>110</ele>
        <time>2017-01-21T16:16:21Z</time>
      </trkpt>
      <trkpt lat="49.4626" lon="0.96289">
        <ele>110</ele>
        <time>2017-01-21T16:16:22Z</time>
      </trkpt>
      <trkpt lat="49.46255" lon="0.96286">
        <ele>110</ele>
        <time>2017-01-21T16:16:22Z</time>
      </trkpt>
      <trkpt lat="49.46252" lon="0.96284">
        <ele>110</ele>
        <time>2017-01-21T16:16:36Z</time>
      </trkpt>
      <trkpt lat="49.4625" lon="0.96284">
        <ele>110</ele>
        <time>2017-01-21T16:16:36Z</time>
      </trkpt>
      <trkpt lat="49.46245" lon="0.96282">
        <ele>110</ele>
        <time>2017-01-21T16:16:36Z</time>
      </trkpt>
      <trkpt lat="49.4624" lon="0.9628">
        <ele>110</ele>
        <time>2017-01-21T16:16:36Z</time>
      </trkpt>
      <trkpt lat="49.46237" lon="0.96278">
        <ele>110</ele>
        <time>2017-01-21T16:16:52Z</time>
      </trkpt>
      <trkpt lat="49.46232" lon="0.96277">
        <ele>110</ele>
        <time>2017-01-21T16:16:53Z</time>
      </trkpt>
      <trkpt lat="49.46229" lon="0.96275">
        <ele>110</ele>
        <time>2017-01-21T16:16:53Z</time>
      </trkpt>
      <trkpt lat="49.46225" lon="0.96275">
        <ele>110</ele>
        <time>2017-01-21T16:16:53Z</time>
      </trkpt>
      <trkpt lat="49.46217" lon="0.96273">
        <ele>110</ele>
        <time>2017-01-21T16:17:14Z</time>
      </trkpt>
      <trkpt lat="49.46212" lon="0.96272">
        <ele>110</ele>
        <time>2017-01-21T16:17:14Z</time>
      </trkpt>
      <trkpt lat="49.46207" lon="0.96273">
        <ele>93</ele>
        <time>2017-01-21T16:17:14Z</time>
      </trkpt>
      <trkpt lat="49.46202" lon="0.96272">
        <ele>93</ele>
        <time>2017-01-21T16:17:14Z</time>
      </trkpt>
      <trkpt lat="49.46203" lon="0.96271">
        <ele>93</ele>
        <time>2017-01-21T16:17:33Z</time>
      </trkpt>
      <trkpt lat="49.46202" lon="0.96271">
        <ele>93</ele>
        <time>2017-01-21T16:17:33Z</time>
      </trkpt>
      <trkpt lat="49.462" lon="0.96272">
        <ele>93</ele>
        <time>2017-01-21T16:17:33Z</time>
      </trkpt>
      <trkpt lat="49.46195" lon="0.96273">
        <ele>93</ele>
        <time>2017-01-21T16:17:33Z</time>
      </trkpt>
      <trkpt lat="49.46191" lon="0.96275">
        <ele>93</ele>
        <time>2017-01-21T16:17:33Z</time>
      </trkpt>
      <trkpt lat="49.46179" lon="0.96276">
        <ele>93</ele>
        <time>2017-01-21T16:17:53Z</time>
      </trkpt>
      <trkpt lat="49.46176" lon="0.96277">
        <ele>93</ele>
        <time>2017-01-21T16:17:53Z</time>
      </trkpt>
      <trkpt lat="49.46171" lon="0.96278">
        <ele>93</ele>
        <time>2017-01-21T16:17:53Z</time>
      </trkpt>
      <trkpt lat="49.46168" lon="0.96278">
        <ele>93</ele>
        <time>2017-01-21T16:17:53Z</time>
      </trkpt>
      <trkpt lat="49.46164" lon="0.96275">
        <ele>93</ele>
        <time>2017-01-21T16:18:09Z</time>
      </trkpt>
      <trkpt lat="49.46157" lon="0.96275">
        <ele>93</ele>
        <time>2017-01-21T16:18:09Z</time>
      </trkpt>
      <trkpt lat="49.46156" lon="0.96275">
        <ele>93</ele>
        <time>2017-01-21T16:18:09Z</time>
      </trkpt>
      <trkpt lat="49.46153" lon="0.96276">
        <ele>93</ele>
        <time>2017-01-21T16:18:09Z</time>
      </trkpt>
      <trkpt lat="49.46144" lon="0.96281">
        <ele>93</ele>
        <time>2017-01-21T16:18:30Z</time>
      </trkpt>
      <trkpt lat="49.46141" lon="0.96281">
        <ele>93</ele>
        <time>2017-01-21T16:18:30Z</time>
      </trkpt>
      <trkpt lat="49.46134" lon="0.96284">
        <ele>93</ele>
        <time>2017-01-21T16:18:30Z</time>
      </trkpt>
      <trkpt lat="49.46129" lon="0.96287">
        <ele>93</ele>
        <time>2017-01-21T16:18:30Z</time>
      </trkpt>
      <trkpt lat="49.46124" lon="0.96288">
        <ele>80</ele>
        <time>2017-01-21T16:18:49Z</time>
      </trkpt>
      <trkpt lat="49.4612" lon="0.96288">
        <ele>80</ele>
        <time>2017-01-21T16:18:49Z</time>
      </trkpt>
      <trkpt lat="49.46117" lon="0.96289">
        <ele>80</ele>
        <time>2017-01-21T16:18:49Z</time>
      </trkpt>
      <trkpt lat="49.46114" lon="0.9629">
        <ele>80</ele>
        <time>2017-01-21T16:18:49Z</time>
      </trkpt>
      <trkpt lat="49.46107" lon="0.96291">
        <ele>80</ele>
        <time>2017-01-21T16:19:08Z</time>
      </trkpt>
      <trkpt lat="49.46102" lon="0.96296">
        <ele>87</ele>
        <time>2017-01-21T16:19:08Z</time>
      </trkpt>
      <trkpt lat="49.46097" lon="0.96297">
        <ele>87</ele>
        <time>2017-01-21T16:19:08Z</time>
      </trkpt>
      <trkpt lat="49.46096" lon="0.96297">
        <ele>87</ele>
        <time>2017-01-21T16:19:08Z</time>
      </trkpt>
      <trkpt lat="49.46093" lon="0.963">
        <ele>87</ele>
        <time>2017-01-21T16:19:24Z</time>
      </trkpt>
      <trkpt lat="49.46088" lon="0.96302">
        <ele>87</ele>
        <time>2017-01-21T16:19:24Z</time>
      </trkpt>
      <trkpt lat="49.46081" lon="0.96304">
        <ele>87</ele>
        <time>2017-01-21T16:19:24Z</time>
      </trkpt>
      <trkpt lat="49.46077" lon="0.96308">
        <ele>87</ele>
        <time>2017-01-21T16:19:24Z</time>
      </trkpt>
      <trkpt lat="49.46074" lon="0.96309">
        <ele>87</ele>
        <time>2017-01-21T16:19:45Z</time>
      </trkpt>
      <trkpt lat="49.46069" lon="0.9631">
        <ele>87</ele>
        <time>2017-01-21T16:19:45Z</time>
      </trkpt>
      <trkpt lat="49.46068" lon="0.96309">
        <ele>87</ele>
        <time>2017-01-21T16:19:45Z</time>
      </trkpt>
      <trkpt lat="49.46066" lon="0.96312">
        <ele>87</ele>
        <time>2017-01-21T16:19:45Z</time>
      </trkpt>
      <trkpt lat="49.46065" lon="0.96313">
        <ele>87</ele>
        <time>2017-01-21T16:19:45Z</time>
      </trkpt>
      <trkpt lat="49.46058" lon="0.96314">
        <ele>87</ele>
        <time>2017-01-21T16:20:04Z</time>
      </trkpt>
      <trkpt lat="49.46054" lon="0.96317">
        <ele>87</ele>
        <time>2017-01-21T16:20:04Z</time>
      </trkpt>
      <trkpt lat="49.4605" lon="0.96319">
        <ele>87</ele>
        <time>2017-01-21T16:20:04Z</time>
      </trkpt>
      <trkpt lat="49.46047" lon="0.96319">
        <ele>87</ele>
        <time>2017-01-21T16:20:04Z</time>
      </trkpt>
      <trkpt lat="49.46047" lon="0.96318">
        <ele>87</ele>
        <time>2017-01-21T16:20:21Z</time>
      </trkpt>
      <trkpt lat="49.46043" lon="0.96318">
        <ele>87</ele>
        <time>2017-01-21T16:20:21Z</time>
      </trkpt>
      <trkpt lat="49.46039" lon="0.9632">
        <ele>83</ele>
        <time>2017-01-21T16:20:21Z</time>
      </trkpt>
      <trkpt lat="49.46035" lon="0.96322">
        <ele>83</ele>
        <time>2017-01-21T16:20:21Z</time>
      </trkpt>
      <trkpt lat="49.46028" lon="0.96324">
        <ele>83</ele>
        <time>2017-01-21T16:20:36Z</time>
      </trkpt>
      <trkpt lat="49.46026" lon="0.96324">
        <ele>83</ele>
        <time>2017-01-21T16:20:36Z</time>
      </trkpt>
      <trkpt lat="49.46021" lon="0.96325">
        <ele>83</ele>
        <time>2017-01-21T16:20:36Z</time>
      </trkpt>
      <trkpt lat="49.46015" lon="0.96329">
        <ele>83</ele>
        <time>2017-01-21T16:20:36Z</time>
      </trkpt>
      <trkpt lat="49.46015" lon="0.96328">
        <ele>83</ele>
        <time>2017-01-21T16:21:02Z</time>
      </trkpt>
      <trkpt lat="49.46008" lon="0.96329">
        <ele>83</ele>
        <time>2017-01-21T16:21:02Z</time>
      </trkpt>
      <trkpt lat="49.46002" lon="0.96331">
        <ele>83</ele>
        <time>2017-01-21T16:21:02Z</time>
      </trkpt>
      <trkpt lat="49.45989" lon="0.96338">
        <ele>83</ele>
        <time>2017-01-21T16:21:02Z</time>
      </trkpt>
      <trkpt lat="49.45985" lon="0.9634">
        <ele>83</ele>
        <time>2017-01-21T16:21:16Z</time>
      </trkpt>
      <trkpt lat="49.45983" lon="0.96343">
        <ele>83</ele>
        <time>2017-01-21T16:21:16Z</time>
      </trkpt>
      <trkpt lat="49.45979" lon="0.9635">
        <ele>83</ele>
        <time>2017-01-21T16:21:16Z</time>
      </trkpt>
      <trkpt lat="49.45976" lon="0.96353">
        <ele>83</ele>
        <time>2017-01-21T16:21:16Z</time>
      </trkpt>
      <trkpt lat="49.45973" lon="0.96358">
        <ele>83</ele>
        <time>2017-01-21T16:21:41Z</time>
      </trkpt>
      <trkpt lat="49.45973" lon="0.96359">
        <ele>83</ele>
        <time>2017-01-21T16:21:41Z</time>
      </trkpt>
      <trkpt lat="49.45973" lon="0.96359">
        <ele>83</ele>
        <time>2017-01-21T16:21:41Z</time>
      </trkpt>
      <trkpt lat="49.45968" lon="0.96364">
        <ele>83</ele>
        <time>2017-01-21T16:21:41Z</time>
      </trkpt>
      <trkpt lat="49.45965" lon="0.9637">
        <ele>83</ele>
        <time>2017-01-21T16:21:41Z</time>
      </trkpt>
      <trkpt lat="49.45956" lon="0.96378">
        <ele>82</ele>
        <time>2017-01-21T16:22:02Z</time>
      </trkpt>
      <trkpt lat="49.45952" lon="0.96382">
        <ele>82</ele>
        <time>2017-01-21T16:22:02Z</time>
      </trkpt>
      <trkpt lat="49.45947" lon="0.96384">
        <ele>82</ele>
        <time>2017-01-21T16:22:02Z</time>
      </trkpt>
      <trkpt lat="49.45942" lon="0.96384">
        <ele>82</ele>
        <time>2017-01-21T16:22:02Z</time>
      </trkpt>
      <trkpt lat="49.45939" lon="0.96385">
        <ele>82</ele>
        <time>2017-01-21T16:22:17Z</time>
      </trkpt>
      <trkpt lat="49.45933" lon="0.96387">
        <ele>82</ele>
        <time>2017-01-21T16:22:17Z</time>
      </trkpt>
      <trkpt lat="49.45928" lon="0.96387">
        <ele>82</ele>
        <time>2017-01-21T16:22:17Z</time>
      </trkpt>
      <trkpt lat="49.45924" lon="0.96388">
        <ele>82</ele>
        <time>2017-01-21T16:22:17Z</time>
      </trkpt>
      <trkpt lat="49.4592" lon="0.96389">
        <ele>82</ele>
        <time>2017-01-21T16:22:34Z</time>
      </trkpt>
      <trkpt lat="49.45918" lon="0.96388">
        <ele>82</ele>
        <time>2017-01-21T16:22:34Z</time>
      </trkpt>
      <trkpt lat="49.45915" lon="0.96392">
        <ele>82</ele>
        <time>2017-01-21T16:22:34Z</time>
      </trkpt>
      <trkpt lat="49.45911" lon="0.96394">
        <ele>82</ele>
        <time>2017-01-21T16:22:34Z</time>
      </trkpt>
      <trkpt lat="49.45904" lon="0.96397">
        <ele>82</ele>
        <time>2017-01-21T16:22:53Z</time>
      </trkpt>
      <trkpt lat="49.45899" lon="0.96399">
        <ele>82</ele>
        <time>2017-01-21T16:22:53Z</time>
      </trkpt>
      <trkpt lat="49.45896" lon="0.96401">
        <ele>82</ele>
        <time>2017-01-21T16:22:53Z</time>
      </trkpt>
      <trkpt lat="49.45893" lon="0.96402">
        <ele>82</ele>
        <time>2017-01-21T16:22:53Z</time>
      </trkpt>
      <trkpt lat="49.45883" lon="0.96404">
        <ele>82</ele>
        <time>2017-01-21T16:23:14Z</time>
      </trkpt>
      <trkpt lat="49.4588" lon="0.96406">
        <ele>82</ele>
        <time>2017-01-21T16:23:14Z</time>
      </trkpt>
      <trkpt lat="49.45874" lon="0.96409">
        <ele>72</ele>
        <time>2017-01-21T16:23:14Z</time>
      </trkpt>
      <trkpt lat="49.45871" lon="0.96412">
        <ele>72</ele>
        <time>2017-01-21T16:23:14Z</time>
      </trkpt>
      <trkpt lat="49.45858" lon="0.96417">
        <ele>72</ele>
        <time>2017-01-21T16:23:36Z</time>
      </trkpt>
      <trkpt lat="49.45855" lon="0.96419">
        <ele>72</ele>
        <time>2017-01-21T16:23:36Z</time>
      </trkpt>
      <trkpt lat="49.4585" lon="0.9642">
        <ele>72</ele>
        <time>2017-01-21T16:23:36Z</time>
      </trkpt>
      <trkpt lat="49.45844" lon="0.96419">
        <ele>72</ele>
        <time>2017-01-21T16:23:36Z</time>
      </trkpt>
      <trkpt lat="49.45839" lon="0.96418">
        <ele>72</ele>
        <time>2017-01-21T16:23:52Z</time>
      </trkpt>
      <trkpt lat="49.45833" lon="0.96417">
        <ele>72</ele>
        <time>2017-01-21T16:23:52Z</time>
      </trkpt>
      <trkpt lat="49.45829" lon="0.96417">
        <ele>72</ele>
        <time>2017-01-21T16:23:52Z</time>
      </trkpt>
      <trkpt lat="49.45826" lon="0.96417">
        <ele>72</ele>
        <time>2017-01-21T16:23:52Z</time>
      </trkpt>
      <trkpt lat="49.45821" lon="0.96417">
        <ele>72</ele>
        <time>2017-01-21T16:24:08Z</time>
      </trkpt>
      <trkpt lat="49.45818" lon="0.96418">
        <ele>72</ele>
        <time>2017-01-21T16:24:08Z</time>
      </trkpt>
      <trkpt lat="49.45815" lon="0.96418">
        <ele>72</ele>
        <time>2017-01-21T16:24:08Z</time>
      </trkpt>
      <trkpt lat="49.45811" lon="0.96418">
        <ele>72</ele>
        <time>2017-01-21T16:24:08Z</time>
      </trkpt>
      <trkpt lat="49.45807" lon="0.96418">
        <ele>72</ele>
        <time>2017-01-21T16:24:24Z</time>
      </trkpt>
      <trkpt lat="49.45804" lon="0.96417">
        <ele>72</ele>
        <time>2017-01-21T16:24:24Z</time>
      </trkpt>
      <trkpt lat="49.45799" lon="0.96417">
        <ele>72</ele>
        <time>2017-01-21T16:24:24Z</time>
      </trkpt>
      <trkpt lat="49.45795" lon="0.96419">
        <ele>72</ele>
        <time>2017-01-21T16:24:24Z</time>
      </trkpt>
      <trkpt lat="49.45791" lon="0.96418">
        <ele>61</ele>
        <time>2017-01-21T16:24:40Z</time>
      </trkpt>
      <trkpt lat="49.45786" lon="0.96419">
        <ele>61</ele>
        <time>2017-01-21T16:24:40Z</time>
      </trkpt>
      <trkpt lat="49.45783" lon="0.96419">
        <ele>61</ele>
        <time>2017-01-21T16:24:40Z</time>
      </trkpt>
      <trkpt lat="49.45779" lon="0.96421">
        <ele>61</ele>
        <time>2017-01-21T16:24:40Z</time>
      </trkpt>
      <trkpt lat="49.45774" lon="0.96421">
        <ele>61</ele>
        <time>2017-01-21T16:24:57Z</time>
      </trkpt>
      <trkpt lat="49.45769" lon="0.96422">
        <ele>61</ele>
        <time>2017-01-21T16:24:57Z</time>
      </trkpt>
      <trkpt lat="49.45765" lon="0.96423">
        <ele>61</ele>
        <time>2017-01-21T16:24:57Z</time>
      </trkpt>
      <trkpt lat="49.45761" lon="0.96424">
        <ele>61</ele>
        <time>2017-01-21T16:24:57Z</time>
      </trkpt>
      <trkpt lat="49.45751" lon="0.96429">
        <ele>61</ele>
        <time>2017-01-21T16:25:16Z</time>
      </trkpt>
      <trkpt lat="49.45746" lon="0.96431">
        <ele>61</ele>
        <time>2017-01-21T16:25:16Z</time>
      </trkpt>
      <trkpt lat="49.45741" lon="0.96433">
        <ele>61</ele>
        <time>2017-01-21T16:25:17Z</time>
      </trkpt>
      <trkpt lat="49.45737" lon="0.96435">
        <ele>61</ele>
        <time>2017-01-21T16:25:17Z</time>
      </trkpt>
      <trkpt lat="49.45734" lon="0.96439">
        <ele>61</ele>
        <time>2017-01-21T16:25:32Z</time>
      </trkpt>
      <trkpt lat="49.4573" lon="0.9644">
        <ele>61</ele>
        <time>2017-01-21T16:25:33Z</time>
      </trkpt>
      <trkpt lat="49.45726" lon="0.96442">
        <ele>61</ele>
        <time>2017-01-21T16:25:33Z</time>
      </trkpt>
      <trkpt lat="49.45722" lon="0.96442">
        <ele>61</ele>
        <time>2017-01-21T16:25:33Z</time>
      </trkpt>
      <trkpt lat="49.4572" lon="0.96442">
        <ele>61</ele>
        <time>2017-01-21T16:25:49Z</time>
      </trkpt>
      <trkpt lat="49.45714" lon="0.96444">
        <ele>61</ele>
        <time>2017-01-21T16:25:49Z</time>
      </trkpt>
      <trkpt lat="49.45709" lon="0.96443">
        <ele>61</ele>
        <time>2017-01-21T16:25:49Z</time>
      </trkpt>
      <trkpt lat="49.45704" lon="0.96443">
        <ele>54</ele>
        <time>2017-01-21T16:25:49Z</time>
      </trkpt>
      <trkpt lat="49.457" lon="0.96442">
        <ele>54</ele>
        <time>2017-01-21T16:26:09Z</time>
      </trkpt>
      <trkpt lat="49.45695" lon="0.9644">
        <ele>54</ele>
        <time>2017-01-21T16:26:09Z</time>
      </trkpt>
      <trkpt lat="49.45692" lon="0.96439">
        <ele>54</ele>
        <time>2017-01-21T16:26:09Z</time>
      </trkpt>
      <trkpt lat="49.45682" lon="0.96438">
        <ele>54</ele>
        <time>2017-01-21T16:26:09Z</time>
      </trkpt>
      <trkpt lat="49.45676" lon="0.96436">
        <ele>54</ele>
        <time>2017-01-21T16:26:24Z</time>
      </trkpt>
      <trkpt lat="49.45673" lon="0.96436">
        <ele>54</ele>
        <time>2017-01-21T16:26:24Z</time>
      </trkpt>
      <trkpt lat="49.4567" lon="0.96436">
        <ele>54</ele>
        <time>2017-01-21T16:26:24Z</time>
      </trkpt>
      <trkpt lat="49.45667" lon="0.96434">
        <ele>54</ele>
        <time>2017-01-21T16:26:24Z</time>
      </trkpt>
      <trkpt lat="49.45661" lon="0.9643">
        <ele>54</ele>
        <time>2017-01-21T16:26:41Z</time>
      </trkpt>
      <trkpt lat="49.45657" lon="0.9643">
        <ele>54</ele>
        <time>2017-01-21T16:26:41Z</time>
      </trkpt>
      <trkpt lat="49.45652" lon="0.96428">
        <ele>54</ele>
        <time>2017-01-21T16:26:41Z</time>
      </trkpt>
      <trkpt lat="49.45646" lon="0.96425">
        <ele>54</ele>
        <time>2017-01-21T16:26:41Z</time>
      </trkpt>
      <trkpt lat="49.45643" lon="0.96424">
        <ele>54</ele>
        <time>2017-01-21T16:26:57Z</time>
      </trkpt>
      <trkpt lat="49.45639" lon="0.96424">
        <ele>54</ele>
        <time>2017-01-21T16:26:57Z</time>
      </trkpt>
      <trkpt lat="49.45636" lon="0.96422">
        <ele>54</ele>
        <time>2017-01-21T16:26:57Z</time>
      </trkpt>
      <trkpt lat="49.45634" lon="0.96421">
        <ele>54</ele>
        <time>2017-01-21T16:26:57Z</time>
      </trkpt>
      <trkpt lat="49.45628" lon="0.9642">
        <ele>54</ele>
        <time>2017-01-21T16:27:13Z</time>
      </trkpt>
      <trkpt lat="49.45624" lon="0.96418">
        <ele>47</ele>
        <time>2017-01-21T16:27:13Z</time>
      </trkpt>
      <trkpt lat="49.4562" lon="0.96418">
        <ele>47</ele>
        <time>2017-01-21T16:27:13Z</time>
      </trkpt>
      <trkpt lat="49.45614" lon="0.96416">
        <ele>47</ele>
        <time>2017-01-21T16:27:13Z</time>
      </trkpt>
      <trkpt lat="49.45612" lon="0.96416">
        <ele>47</ele>
        <time>2017-01-21T16:27:28Z</time>
      </trkpt>
      <trkpt lat="49.45606" lon="0.96413">
        <ele>47</ele>
        <time>2017-01-21T16:27:28Z</time>
      </trkpt>
      <trkpt lat="49.45602" lon="0.96412">
        <ele>47</ele>
        <time>2017-01-21T16:27:28Z</time>
      </trkpt>
      <trkpt lat="49.45597" lon="0.96409">
        <ele>47</ele>
        <time>2017-01-21T16:27:28Z</time>
      </trkpt>
      <trkpt lat="49.45594" lon="0.96405">
        <ele>47</ele>
        <time>2017-01-21T16:27:44Z</time>
      </trkpt>
      <trkpt lat="49.4559" lon="0.96402">
        <ele>47</ele>
        <time>2017-01-21T16:27:44Z</time>
      </trkpt>
      <trkpt lat="49.45585" lon="0.96399">
        <ele>47</ele>
        <time>2017-01-21T16:27:44Z</time>
      </trkpt>
      <trkpt lat="49.45581" lon="0.96395">
        <ele>47</ele>
        <time>2017-01-21T16:27:44Z</time>
      </trkpt>
      <trkpt lat="49.45575" lon="0.96392">
        <ele>47</ele>
        <time>2017-01-21T16:28:01Z</time>
      </trkpt>
      <trkpt lat="49.45572" lon="0.96389">
        <ele>47</ele>
        <time>2017-01-21T16:28:02Z</time>
      </trkpt>
      <trkpt lat="49.45566" lon="0.96385">
        <ele>47</ele>
        <time>2017-01-21T16:28:02Z</time>
      </trkpt>
      <trkpt lat="49.45561" lon="0.96383">
        <ele>47</ele>
        <time>2017-01-21T16:28:02Z</time>
      </trkpt>
      <trkpt lat="49.45558" lon="0.96381">
        <ele>47</ele>
        <time>2017-01-21T16:28:16Z</time>
      </trkpt>
      <trkpt lat="49.45552" lon="0.96379">
        <ele>47</ele>
        <time>2017-01-21T16:28:16Z</time>
      </trkpt>
      <trkpt lat="49.45546" lon="0.96375">
        <ele>47</ele>
        <time>2017-01-21T16:28:16Z</time>
      </trkpt>
      <trkpt lat="49.45542" lon="0.96371">
        <ele>37</ele>
        <time>2017-01-21T16:28:16Z</time>
      </trkpt>
      <trkpt lat="49.45539" lon="0.96366">
        <ele>32</ele>
        <time>2017-01-21T16:28:33Z</time>
      </trkpt>
      <trkpt lat="49.45535" lon="0.96362">
        <ele>32</ele>
        <time>2017-01-21T16:28:34Z</time>
      </trkpt>
      <trkpt lat="49.4553" lon="0.96359">
        <ele>32</ele>
        <time>2017-01-21T16:28:34Z</time>
      </trkpt>
      <trkpt lat="49.45527" lon="0.96356">
        <ele>32</ele>
        <time>2017-01-21T16:28:34Z</time>
      </trkpt>
      <trkpt lat="49.45527" lon="0.96355">
        <ele>32</ele>
        <time>2017-01-21T16:28:49Z</time>
      </trkpt>
      <trkpt lat="49.45525" lon="0.96353">
        <ele>32</ele>
        <time>2017-01-21T16:28:49Z</time>
      </trkpt>
      <trkpt lat="49.45522" lon="0.96349">
        <ele>32</ele>
        <time>2017-01-21T16:28:49Z</time>
      </trkpt>
      <trkpt lat="49.45521" lon="0.96345">
        <ele>32</ele>
        <time>2017-01-21T16:28:49Z</time>
      </trkpt>
      <trkpt lat="49.45519" lon="0.96342">
        <ele>32</ele>
        <time>2017-01-21T16:29:04Z</time>
      </trkpt>
      <trkpt lat="49.45514" lon="0.96335">
        <ele>32</ele>
        <time>2017-01-21T16:29:04Z</time>
      </trkpt>
      <trkpt lat="49.45511" lon="0.96332">
        <ele>32</ele>
        <time>2017-01-21T16:29:04Z</time>
      </trkpt>
      <trkpt lat="49.45509" lon="0.96328">
        <ele>32</ele>
        <time>2017-01-21T16:29:05Z</time>
      </trkpt>
      <trkpt lat="49.45504" lon="0.96321">
        <ele>32</ele>
        <time>2017-01-21T16:29:21Z</time>
      </trkpt>
      <trkpt lat="49.455" lon="0.96315">
        <ele>32</ele>
        <time>2017-01-21T16:29:21Z</time>
      </trkpt>
      <trkpt lat="49.45498" lon="0.96313">
        <ele>32</ele>
        <time>2017-01-21T16:29:21Z</time>
      </trkpt>
      <trkpt lat="49.45494" lon="0.9631">
        <ele>32</ele>
        <time>2017-01-21T16:29:21Z</time>
      </trkpt>
      <trkpt lat="49.45492" lon="0.96304">
        <ele>32</ele>
        <time>2017-01-21T16:29:36Z</time>
      </trkpt>
      <trkpt lat="49.45489" lon="0.96299">
        <ele>32</ele>
        <time>2017-01-21T16:29:37Z</time>
      </trkpt>
      <trkpt lat="49.45487" lon="0.96294">
        <ele>32</ele>
        <time>2017-01-21T16:29:37Z</time>
      </trkpt>
      <trkpt lat="49.45485" lon="0.96292">
        <ele>32</ele>
        <time>2017-01-21T16:29:37Z</time>
      </trkpt>
      <trkpt lat="49.45479" lon="0.96287">
        <ele>23</ele>
        <time>2017-01-21T16:29:52Z</time>
      </trkpt>
      <trkpt lat="49.45477" lon="0.96283">
        <ele>23</ele>
        <time>2017-01-21T16:29:52Z</time>
      </trkpt>
      <trkpt lat="49.45473" lon="0.9628">
        <ele>23</ele>
        <time>2017-01-21T16:29:52Z</time>
      </trkpt>
      <trkpt lat="49.4547" lon="0.96279">
        <ele>23</ele>
        <time>2017-01-21T16:29:52Z</time>
      </trkpt>
      <trkpt lat="49.45464" lon="0.96275">
        <ele>23</ele>
        <time>2017-01-21T16:30:09Z</time>
      </trkpt>
      <trkpt lat="49.45459" lon="0.96274">
        <ele>23</ele>
        <time>2017-01-21T16:30:09Z</time>
      </trkpt>
      <trkpt lat="49.45454" lon="0.9627">
        <ele>18</ele>
        <time>2017-01-21T16:30:09Z</time>
      </trkpt>
      <trkpt lat="49.4545" lon="0.96268">
        <ele>18</ele>
        <time>2017-01-21T16:30:09Z</time>
      </trkpt>
      <trkpt lat="49.45446" lon="0.96264">
        <ele>18</ele>
        <time>2017-01-21T16:30:26Z</time>
      </trkpt>
      <trkpt lat="49.45443" lon="0.96263">
        <ele>18</ele>
        <time>2017-01-21T16:30:26Z</time>
      </trkpt>
      <trkpt lat="49.45437" lon="0.96258">
        <ele>18</ele>
        <time>2017-01-21T16:30:26Z</time>
      </trkpt>
      <trkpt lat="49.45433" lon="0.96253">
        <ele>18</ele>
        <time>2017-01-21T16:30:26Z</time>
      </trkpt>
      <trkpt lat="49.4543" lon="0.9625">
        <ele>18</ele>
        <time>2017-01-21T16:30:41Z</time>
      </trkpt>
      <trkpt lat="49.45425" lon="0.96246">
        <ele>18</ele>
        <time>2017-01-21T16:30:41Z</time>
      </trkpt>
      <trkpt lat="49.4542" lon="0.96242">
        <ele>18</ele>
        <time>2017-01-21T16:30:41Z</time>
      </trkpt>
      <trkpt lat="49.45414" lon="0.96239">
        <ele>18</ele>
        <time>2017-01-21T16:30:42Z</time>
      </trkpt>
      <trkpt lat="49.45411" lon="0.96237">
        <ele>18</ele>
        <time>2017-01-21T16:30:57Z</time>
      </trkpt>
      <trkpt lat="49.45406" lon="0.96233">
        <ele>18</ele>
        <time>2017-01-21T16:30:57Z</time>
      </trkpt>
      <trkpt lat="49.45401" lon="0.96231">
        <ele>18</ele>
        <time>2017-01-21T16:30:57Z</time>
      </trkpt>
      <trkpt lat="49.45397" lon="0.96228">
        <ele>18</ele>
        <time>2017-01-21T16:30:57Z</time>
      </trkpt>
      <trkpt lat="49.45395" lon="0.96226">
        <ele>18</ele>
        <time>2017-01-21T16:31:36Z</time>
      </trkpt>
      <trkpt lat="49.45391" lon="0.96223">
        <ele>18</ele>
        <time>2017-01-21T16:31:36Z</time>
      </trkpt>
      <trkpt lat="49.45384" lon="0.96219">
        <ele>18</ele>
        <time>2017-01-21T16:31:36Z</time>
      </trkpt>
      <trkpt lat="49.45379" lon="0.96215">
        <ele>18</ele>
        <time>2017-01-21T16:31:36Z</time>
      </trkpt>
      <trkpt lat="49.45376" lon="0.96214">
        <ele>18</ele>
        <time>2017-01-21T16:31:36Z</time>
      </trkpt>
      <trkpt lat="49.45366" lon="0.96207">
        <ele>10</ele>
        <time>2017-01-21T16:32:17Z</time>
      </trkpt>
      <trkpt lat="49.45365" lon="0.96207">
        <ele>10</ele>
        <time>2017-01-21T16:32:17Z</time>
      </trkpt>
      <trkpt lat="49.45364" lon="0.96205">
        <ele>10</ele>
        <time>2017-01-21T16:32:17Z</time>
      </trkpt>
      <trkpt lat="49.45357" lon="0.96201">
        <ele>10</ele>
        <time>2017-01-21T16:32:17Z</time>
      </trkpt>
      <trkpt lat="49.45353" lon="0.962">
        <ele>10</ele>
        <time>2017-01-21T16:32:17Z</time>
      </trkpt>
      <trkpt lat="49.45347" lon="0.96196">
        <ele>10</ele>
        <time>2017-01-21T16:32:32Z</time>
      </trkpt>
      <trkpt lat="49.45342" lon="0.96192">
        <ele>10</ele>
        <time>2017-01-21T16:32:32Z</time>
      </trkpt>
      <trkpt lat="49.45337" lon="0.96188">
        <ele>10</ele>
        <time>2017-01-21T16:32:32Z</time>
      </trkpt>
      <trkpt lat="49.45332" lon="0.96186">
        <ele>10</ele>
        <time>2017-01-21T16:32:32Z</time>
      </trkpt>
      <trkpt lat="49.45328" lon="0.96183">
        <ele>10</ele>
        <time>2017-01-21T16:32:48Z</time>
      </trkpt>
      <trkpt lat="49.45324" lon="0.96181">
        <ele>10</ele>
        <time>2017-01-21T16:32:49Z</time>
      </trkpt>
      <trkpt lat="49.45321" lon="0.9618">
        <ele>10</ele>
        <time>2017-01-21T16:32:49Z</time>
      </trkpt>
      <trkpt lat="49.45315" lon="0.96176">
        <ele>10</ele>
        <time>2017-01-21T16:32:49Z</time>
      </trkpt>
      <trkpt lat="49.45305" lon="0.96169">
        <ele>10</ele>
        <time>2017-01-21T16:33:10Z</time>
      </trkpt>
      <trkpt lat="49.453" lon="0.96171">
        <ele>10</ele>
        <time>2017-01-21T16:33:10Z</time>
      </trkpt>
      <trkpt lat="49.45295" lon="0.96175">
        <ele>10</ele>
        <time>2017-01-21T16:33:10Z</time>
      </trkpt>
      <trkpt lat="49.45292" lon="0.96177">
        <ele>8</ele>
        <time>2017-01-21T16:33:10Z</time>
      </trkpt>
      <trkpt lat="49.45288" lon="0.96179">
        <ele>8</ele>
        <time>2017-01-21T16:33:25Z</time>
      </trkpt>
      <trkpt lat="49.45283" lon="0.96183">
        <ele>8</ele>
        <time>2017-01-21T16:33:25Z</time>
      </trkpt>
      <trkpt lat="49.45279" lon="0.96186">
        <ele>8</ele>
        <time>2017-01-21T16:33:25Z</time>
      </trkpt>
      <trkpt lat="49.45274" lon="0.96189">
        <ele>8</ele>
        <time>2017-01-21T16:33:25Z</time>
      </trkpt>
      <trkpt lat="49.4527" lon="0.96192">
        <ele>8</ele>
        <time>2017-01-21T16:33:41Z</time>
      </trkpt>
      <trkpt lat="49.45265" lon="0.96195">
        <ele>8</ele>
        <time>2017-01-21T16:33:41Z</time>
      </trkpt>
      <trkpt lat="49.4526" lon="0.96198">
        <ele>8</ele>
        <time>2017-01-21T16:33:41Z</time>
      </trkpt>
      <trkpt lat="49.45256" lon="0.96199">
        <ele>8</ele>
        <time>2017-01-21T16:33:41Z</time>
      </trkpt>
      <trkpt lat="49.45242" lon="0.96208">
        <ele>8</ele>
        <time>2017-01-21T16:34:05Z</time>
      </trkpt>
      <trkpt lat="49.45236" lon="0.9621">
        <ele>10</ele>
        <time>2017-01-21T16:34:06Z</time>
      </trkpt>
      <trkpt lat="49.45231" lon="0.96214">
        <ele>10</ele>
        <time>2017-01-21T16:34:06Z</time>
      </trkpt>
      <trkpt lat="49.45227" lon="0.96213">
        <ele>10</ele>
        <time>2017-01-21T16:34:06Z</time>
      </trkpt>
      <trkpt lat="49.45224" lon="0.96215">
        <ele>10</ele>
        <time>2017-01-21T16:34:21Z</time>
      </trkpt>
      <trkpt lat="49.45218" lon="0.96219">
        <ele>10</ele>
        <time>2017-01-21T16:34:21Z</time>
      </trkpt>
      <trkpt lat="49.45212" lon="0.96221">
        <ele>10</ele>
        <time>2017-01-21T16:34:21Z</time>
      </trkpt>
      <trkpt lat="49.45206" lon="0.96226">
        <ele>9</ele>
        <time>2017-01-21T16:34:21Z</time>
      </trkpt>
      <trkpt lat="49.45202" lon="0.96228">
        <ele>9</ele>
        <time>2017-01-21T16:34:36Z</time>
      </trkpt>
      <trkpt lat="49.45197" lon="0.96231">
        <ele>9</ele>
        <time>2017-01-21T16:34:36Z</time>
      </trkpt>
      <trkpt lat="49.45193" lon="0.96233">
        <ele>9</ele>
        <time>2017-01-21T16:34:36Z</time>
      </trkpt>
      <trkpt lat="49.45188" lon="0.96235">
        <ele>9</ele>
        <time>2017-01-21T16:34:36Z</time>
      </trkpt>
      <trkpt lat="49.45184" lon="0.96238">
        <ele>9</ele>
        <time>2017-01-21T16:34:53Z</time>
      </trkpt>
      <trkpt lat="49.45178" lon="0.96243">
        <ele>9</ele>
        <time>2017-01-21T16:34:53Z</time>
      </trkpt>
      <trkpt lat="49.45174" lon="0.96245">
        <ele>9</ele>
        <time>2017-01-21T16:34:53Z</time>
      </trkpt>
      <trkpt lat="49.45167" lon="0.96249">
        <ele>9</ele>
        <time>2017-01-21T16:34:53Z</time>
      </trkpt>
      <trkpt lat="49.45163" lon="0.96252">
        <ele>9</ele>
        <time>2017-01-21T16:35:12Z</time>
      </trkpt>
      <trkpt lat="49.4516" lon="0.96255">
        <ele>9</ele>
        <time>2017-01-21T16:35:12Z</time>
      </trkpt>
      <trkpt lat="49.45149" lon="0.96263">
        <ele>9</ele>
        <time>2017-01-21T16:35:12Z</time>
      </trkpt>
      <trkpt lat="49.45147" lon="0.96264">
        <ele>9</ele>
        <time>2017-01-21T16:35:13Z</time>
      </trkpt>
      <trkpt lat="49.4514" lon="0.96269">
        <ele>9</ele>
        <time>2017-01-21T16:35:29Z</time>
      </trkpt>
      <trkpt lat="49.45136" lon="0.96273">
        <ele>9</ele>
        <time>2017-01-21T16:35:29Z</time>
      </trkpt>
      <trkpt lat="49.45131" lon="0.96277">
        <ele>9</ele>
        <time>2017-01-21T16:35:29Z</time>
      </trkpt>
      <trkpt lat="49.45126" lon="0.9628">
        <ele>9</ele>
        <time>2017-01-21T16:35:30Z</time>
      </trkpt>
      <trkpt lat="49.45122" lon="0.96282">
        <ele>7</ele>
        <time>2017-01-21T16:35:44Z</time>
      </trkpt>
      <trkpt lat="49.45118" lon="0.96285">
        <ele>7</ele>
        <time>2017-01-21T16:35:45Z</time>
      </trkpt>
      <trkpt lat="49.45113" lon="0.96291">
        <ele>7</ele>
        <time>2017-01-21T16:35:45Z</time>
      </trkpt>
      <trkpt lat="49.45111" lon="0.96293">
        <ele>10</ele>
        <time>2017-01-21T16:35:45Z</time>
      </trkpt>
      <trkpt lat="49.45089" lon="0.96313">
        <ele>10</ele>
        <time>2017-01-21T16:36:17Z</time>
      </trkpt>
      <trkpt lat="49.45085" lon="0.96316">
        <ele>10</ele>
        <time>2017-01-21T16:36:17Z</time>
      </trkpt>
      <trkpt lat="49.45079" lon="0.96321">
        <ele>10</ele>
        <time>2017-01-21T16:36:17Z</time>
      </trkpt>
      <trkpt lat="49.45077" lon="0.96323">
        <ele>10</ele>
        <time>2017-01-21T16:36:17Z</time>
      </trkpt>
      <trkpt lat="49.45074" lon="0.96325">
        <ele>10</ele>
        <time>2017-01-21T16:36:32Z</time>
      </trkpt>
      <trkpt lat="49.45069" lon="0.9633">
        <ele>10</ele>
        <time>2017-01-21T16:36:32Z</time>
      </trkpt>
      <trkpt lat="49.45065" lon="0.96332">
        <ele>10</ele>
        <time>2017-01-21T16:36:32Z</time>
      </trkpt>
      <trkpt lat="49.45061" lon="0.96334">
        <ele>10</ele>
        <time>2017-01-21T16:36:32Z</time>
      </trkpt>
      <trkpt lat="49.45054" lon="0.96336">
        <ele>10</ele>
        <time>2017-01-21T16:37:01Z</time>
      </trkpt>
      <trkpt lat="49.45055" lon="0.96338">
        <ele>10</ele>
        <time>2017-01-21T16:37:01Z</time>
      </trkpt>
      <trkpt lat="49.45054" lon="0.96338">
        <ele>10</ele>
        <time>2017-01-21T16:37:01Z</time>
      </trkpt>
      <trkpt lat="49.45047" lon="0.96344">
        <ele>10</ele>
        <time>2017-01-21T16:37:01Z</time>
      </trkpt>
      <trkpt lat="49.45043" lon="0.96347">
        <ele>10</ele>
        <time>2017-01-21T16:37:01Z</time>
      </trkpt>
      <trkpt lat="49.45045" lon="0.96354">
        <ele>10</ele>
        <time>2017-01-21T16:38:00Z</time>
      </trkpt>
      <trkpt lat="49.45046" lon="0.96353">
        <ele>10</ele>
        <time>2017-01-21T16:38:00Z</time>
      </trkpt>
      <trkpt lat="49.45043" lon="0.96356">
        <ele>10</ele>
        <time>2017-01-21T16:38:00Z</time>
      </trkpt>
      <trkpt lat="49.45037" lon="0.96358">
        <ele>8</ele>
        <time>2017-01-21T16:38:00Z</time>
      </trkpt>
      <trkpt lat="49.45032" lon="0.9636">
        <ele>8</ele>
        <time>2017-01-21T16:38:00Z</time>
      </trkpt>
      <trkpt lat="49.45028" lon="0.96366">
        <ele>8</ele>
        <time>2017-01-21T16:38:17Z</time>
      </trkpt>
      <trkpt lat="49.45021" lon="0.96369">
        <ele>8</ele>
        <time>2017-01-21T16:38:17Z</time>
      </trkpt>
      <trkpt lat="49.45017" lon="0.96374">
        <ele>8</ele>
        <time>2017-01-21T16:38:17Z</time>
      </trkpt>
      <trkpt lat="49.45012" lon="0.96377">
        <ele>10</ele>
        <time>2017-01-21T16:38:17Z</time>
      </trkpt>
      <trkpt lat="49.4501" lon="0.96379">
        <ele>10</ele>
        <time>2017-01-21T16:38:33Z</time>
      </trkpt>
      <trkpt lat="49.45003" lon="0.96383">
        <ele>10</ele>
        <time>2017-01-21T16:38:33Z</time>
      </trkpt>
      <trkpt lat="49.45001" lon="0.96385">
        <ele>10</ele>
        <time>2017-01-21T16:38:33Z</time>
      </trkpt>
      <trkpt lat="49.44996" lon="0.96392">
        <ele>10</ele>
        <time>2017-01-21T16:38:33Z</time>
      </trkpt>
      <trkpt lat="49.44994" lon="0.96393">
        <ele>10</ele>
        <time>2017-01-21T16:38:49Z</time>
      </trkpt>
      <trkpt lat="49.44992" lon="0.96396">
        <ele>10</ele>
        <time>2017-01-21T16:38:49Z</time>
      </trkpt>
      <trkpt lat="49.44987" lon="0.96402">
        <ele>10</ele>
        <time>2017-01-21T16:38:49Z</time>
      </trkpt>
      <trkpt lat="49.44982" lon="0.9641">
        <ele>10</ele>
        <time>2017-01-21T16:38:49Z</time>
      </trkpt>
      <trkpt lat="49.4498" lon="0.96414">
        <ele>10</ele>
        <time>2017-01-21T16:39:04Z</time>
      </trkpt>
      <trkpt lat="49.44974" lon="0.96418">
        <ele>10</ele>
        <time>2017-01-21T16:39:05Z</time>
      </trkpt>
      <trkpt lat="49.44969" lon="0.96424">
        <ele>10</ele>
        <time>2017-01-21T16:39:05Z</time>
      </trkpt>
      <trkpt lat="49.44965" lon="0.96429">
        <ele>10</ele>
        <time>2017-01-21T16:39:05Z</time>
      </trkpt>
      <trkpt lat="49.44958" lon="0.96435">
        <ele>6</ele>
        <time>2017-01-21T16:39:21Z</time>
      </trkpt>
      <trkpt lat="49.44956" lon="0.96439">
        <ele>6</ele>
        <time>2017-01-21T16:39:21Z</time>
      </trkpt>
      <trkpt lat="49.44952" lon="0.96446">
        <ele>6</ele>
        <time>2017-01-21T16:39:21Z</time>
      </trkpt>
      <trkpt lat="49.44949" lon="0.96447">
        <ele>6</ele>
        <time>2017-01-21T16:39:21Z</time>
      </trkpt>
      <trkpt lat="49.44944" lon="0.96453">
        <ele>6</ele>
        <time>2017-01-21T16:39:36Z</time>
      </trkpt>
      <trkpt lat="49.44939" lon="0.9646">
        <ele>11</ele>
        <time>2017-01-21T16:39:36Z</time>
      </trkpt>
      <trkpt lat="49.44936" lon="0.96465">
        <ele>11</ele>
        <time>2017-01-21T16:39:36Z</time>
      </trkpt>
      <trkpt lat="49.44931" lon="0.96472">
        <ele>11</ele>
        <time>2017-01-21T16:39:36Z</time>
      </trkpt>
      <trkpt lat="49.44926" lon="0.96475">
        <ele>11</ele>
        <time>2017-01-21T16:39:53Z</time>
      </trkpt>
      <trkpt lat="49.44924" lon="0.96477">
        <ele>11</ele>
        <time>2017-01-21T16:39:53Z</time>
      </trkpt>
      <trkpt lat="49.4492" lon="0.96479">
        <ele>11</ele>
        <time>2017-01-21T16:39:53Z</time>
      </trkpt>
      <trkpt lat="49.44913" lon="0.9648">
        <ele>11</ele>
        <time>2017-01-21T16:39:53Z</time>
      </trkpt>
      <trkpt lat="49.44908" lon="0.96479">
        <ele>11</ele>
        <time>2017-01-21T16:40:10Z</time>
      </trkpt>
      <trkpt lat="49.44905" lon="0.96478">
        <ele>11</ele>
        <time>2017-01-21T16:40:10Z</time>
      </trkpt>
      <trkpt lat="49.44898" lon="0.96476">
        <ele>11</ele>
        <time>2017-01-21T16:40:10Z</time>
      </trkpt>
      <trkpt lat="49.44893" lon="0.96473">
        <ele>11</ele>
        <time>2017-01-21T16:40:10Z</time>
      </trkpt>
      <trkpt lat="49.44888" lon="0.96471">
        <ele>11</ele>
        <time>2017-01-21T16:40:25Z</time>
      </trkpt>
      <trkpt lat="49.44883" lon="0.96468">
        <ele>11</ele>
        <time>2017-01-21T16:40:25Z</time>
      </trkpt>
      <trkpt lat="49.44879" lon="0.96466">
        <ele>11</ele>
        <time>2017-01-21T16:40:25Z</time>
      </trkpt>
      <trkpt lat="49.44873" lon="0.96464">
        <ele>8</ele>
        <time>2017-01-21T16:40:25Z</time>
      </trkpt>
      <trkpt lat="49.44869" lon="0.96462">
        <ele>8</ele>
        <time>2017-01-21T16:40:41Z</time>
      </trkpt>
      <trkpt lat="49.44863" lon="0.9646">
        <ele>8</ele>
        <time>2017-01-21T16:40:41Z</time>
      </trkpt>
      <trkpt lat="49.4486" lon="0.96458">
        <ele>6</ele>
        <time>2017-01-21T16:40:41Z</time>
      </trkpt>
      <trkpt lat="49.44852" lon="0.96456">
        <ele>6</ele>
        <time>2017-01-21T16:40:41Z</time>
      </trkpt>
      <trkpt lat="49.44844" lon="0.96452">
        <ele>6</ele>
        <time>2017-01-21T16:41:01Z</time>
      </trkpt>
      <trkpt lat="49.4484" lon="0.9645">
        <ele>6</ele>
        <time>2017-01-21T16:41:01Z</time>
      </trkpt>
      <trkpt lat="49.44832" lon="0.96449">
        <ele>6</ele>
        <time>2017-01-21T16:41:01Z</time>
      </trkpt>
      <trkpt lat="49.44827" lon="0.96448">
        <ele>6</ele>
        <time>2017-01-21T16:41:01Z</time>
      </trkpt>
      <trkpt lat="49.44823" lon="0.96446">
        <ele>6</ele>
        <time>2017-01-21T16:41:18Z</time>
      </trkpt>
      <trkpt lat="49.44817" lon="0.96445">
        <ele>6</ele>
        <time>2017-01-21T16:41:18Z</time>
      </trkpt>
      <trkpt lat="49.44812" lon="0.96442">
        <ele>6</ele>
        <time>2017-01-21T16:41:18Z</time>
      </trkpt>
      <trkpt lat="49.44808" lon="0.9644">
        <ele>6</ele>
        <time>2017-01-21T16:41:18Z</time>
      </trkpt>
      <trkpt lat="49.44799" lon="0.96438">
        <ele>6</ele>
        <time>2017-01-21T16:41:37Z</time>
      </trkpt>
      <trkpt lat="49.44793" lon="0.9644">
        <ele>6</ele>
        <time>2017-01-21T16:41:37Z</time>
      </trkpt>
      <trkpt lat="49.44788" lon="0.9644">
        <ele>7</ele>
        <time>2017-01-21T16:41:37Z</time>
      </trkpt>
      <trkpt lat="49.44782" lon="0.96441">
        <ele>7</ele>
        <time>2017-01-21T16:41:37Z</time>
      </trkpt>
      <trkpt lat="49.44777" lon="0.96441">
        <ele>7</ele>
        <time>2017-01-21T16:41:53Z</time>
      </trkpt>
      <trkpt lat="49.44773" lon="0.96442">
        <ele>7</ele>
        <time>2017-01-21T16:41:53Z</time>
      </trkpt>
      <trkpt lat="49.44769" lon="0.96448">
        <ele>7</ele>
        <time>2017-01-21T16:41:53Z</time>
      </trkpt>
      <trkpt lat="49.44765" lon="0.96453">
        <ele>7</ele>
        <time>2017-01-21T16:41:53Z</time>
      </trkpt>
      <trkpt lat="49.44761" lon="0.96458">
        <ele>7</ele>
        <time>2017-01-21T16:42:09Z</time>
      </trkpt>
      <trkpt lat="49.44758" lon="0.96461">
        <ele>8</ele>
        <time>2017-01-21T16:42:09Z</time>
      </trkpt>
      <trkpt lat="49.44753" lon="0.96468">
        <ele>8</ele>
        <time>2017-01-21T16:42:09Z</time>
      </trkpt>
      <trkpt lat="49.44749" lon="0.96472">
        <ele>8</ele>
        <time>2017-01-21T16:42:09Z</time>
      </trkpt>
      <trkpt lat="49.44747" lon="0.96473">
        <ele>8</ele>
        <time>2017-01-21T16:42:25Z</time>
      </trkpt>
      <trkpt lat="49.44743" lon="0.96478">
        <ele>8</ele>
        <time>2017-01-21T16:42:25Z</time>
      </trkpt>
      <trkpt lat="49.44738" lon="0.9648">
        <ele>8</ele>
        <time>2017-01-21T16:42:25Z</time>
      </trkpt>
      <trkpt lat="49.44737" lon="0.96481">
        <ele>8</ele>
        <time>2017-01-21T16:42:25Z</time>
      </trkpt>
      <trkpt lat="49.44729" lon="0.9648">
        <ele>8</ele>
        <time>2017-01-21T16:42:44Z</time>
      </trkpt>
      <trkpt lat="49.44722" lon="0.96483">
        <ele>8</ele>
        <time>2017-01-21T16:42:44Z</time>
      </trkpt>
      <trkpt lat="49.4472" lon="0.96479">
        <ele>8</ele>
        <time>2017-01-21T16:42:44Z</time>
      </trkpt>
      <trkpt lat="49.44715" lon="0.96476">
        <ele>8</ele>
        <time>2017-01-21T16:42:44Z</time>
      </trkpt>
      <trkpt lat="49.44709" lon="0.96474">
        <ele>8</ele>
        <time>2017-01-21T16:43:01Z</time>
      </trkpt>
      <trkpt lat="49.44705" lon="0.96473">
        <ele>9</ele>
        <time>2017-01-21T16:43:01Z</time>
      </trkpt>
      <trkpt lat="49.44698" lon="0.96474">
        <ele>9</ele>
        <time>2017-01-21T16:43:01Z</time>
      </trkpt>
      <trkpt lat="49.44697" lon="0.96473">
        <ele>9</ele>
        <time>2017-01-21T16:43:01Z</time>
      </trkpt>
      <trkpt lat="49.44691" lon="0.96471">
        <ele>9</ele>
        <time>2017-01-21T16:43:17Z</time>
      </trkpt>
      <trkpt lat="49.44685" lon="0.96469">
        <ele>9</ele>
        <time>2017-01-21T16:43:17Z</time>
      </trkpt>
      <trkpt lat="49.44682" lon="0.96467">
        <ele>9</ele>
        <time>2017-01-21T16:43:17Z</time>
      </trkpt>
      <trkpt lat="49.44677" lon="0.96465">
        <ele>9</ele>
        <time>2017-01-21T16:43:18Z</time>
      </trkpt>
      <trkpt lat="49.44673" lon="0.96463">
        <ele>9</ele>
        <time>2017-01-21T16:43:33Z</time>
      </trkpt>
      <trkpt lat="49.44669" lon="0.96461">
        <ele>9</ele>
        <time>2017-01-21T16:43:33Z</time>
      </trkpt>
      <trkpt lat="49.44663" lon="0.9646">
        <ele>9</ele>
        <time>2017-01-21T16:43:33Z</time>
      </trkpt>
      <trkpt lat="49.4466" lon="0.96459">
        <ele>9</ele>
        <time>2017-01-21T16:43:33Z</time>
      </trkpt>
      <trkpt lat="49.44647" lon="0.96455">
        <ele>8</ele>
        <time>2017-01-21T16:43:57Z</time>
      </trkpt>
      <trkpt lat="49.44646" lon="0.96455">
        <ele>8</ele>
        <time>2017-01-21T16:43:57Z</time>
      </trkpt>
      <trkpt lat="49.44638" lon="0.96453">
        <ele>8</ele>
        <time>2017-01-21T16:43:57Z</time>
      </trkpt>
      <trkpt lat="49.44632" lon="0.9645">
        <ele>8</ele>
        <time>2017-01-21T16:43:57Z</time>
      </trkpt>
      <trkpt lat="49.44632" lon="0.96449">
        <ele>8</ele>
        <time>2017-01-21T16:44:13Z</time>
      </trkpt>
      <trkpt lat="49.44626" lon="0.96442">
        <ele>8</ele>
        <time>2017-01-21T16:44:14Z</time>
      </trkpt>
      <trkpt lat="49.44623" lon="0.96441">
        <ele>12</ele>
        <time>2017-01-21T16:44:14Z</time>
      </trkpt>
      <trkpt lat="49.44619" lon="0.96438">
        <ele>12</ele>
        <time>2017-01-21T16:44:14Z</time>
      </trkpt>
      <trkpt lat="49.44615" lon="0.96436">
        <ele>12</ele>
        <time>2017-01-21T16:44:29Z</time>
      </trkpt>
      <trkpt lat="49.44608" lon="0.96432">
        <ele>12</ele>
        <time>2017-01-21T16:44:30Z</time>
      </trkpt>
      <trkpt lat="49.44606" lon="0.96431">
        <ele>12</ele>
        <time>2017-01-21T16:44:30Z</time>
      </trkpt>
      <trkpt lat="49.44602" lon="0.96427">
        <ele>12</ele>
        <time>2017-01-21T16:44:30Z</time>
      </trkpt>
      <trkpt lat="49.44597" lon="0.96425">
        <ele>12</ele>
        <time>2017-01-21T16:44:45Z</time>
      </trkpt>
      <trkpt lat="49.44593" lon="0.96423">
        <ele>12</ele>
        <time>2017-01-21T16:44:45Z</time>
      </trkpt>
      <trkpt lat="49.44588" lon="0.9642">
        <ele>12</ele>
        <time>2017-01-21T16:44:45Z</time>
      </trkpt>
      <trkpt lat="49.44585" lon="0.96416">
        <ele>12</ele>
        <time>2017-01-21T16:44:45Z</time>
      </trkpt>
      <trkpt lat="49.44578" lon="0.9641">
        <ele>12</ele>
        <time>2017-01-21T16:45:00Z</time>
      </trkpt>
      <trkpt lat="49.44575" lon="0.96407">
        <ele>12</ele>
        <time>2017-01-21T16:45:01Z</time>
      </trkpt>
      <trkpt lat="49.44573" lon="0.96404">
        <ele>12</ele>
        <time>2017-01-21T16:45:03Z</time>
      </trkpt>
      <trkpt lat="49.44568" lon="0.964">
        <ele>12</ele>
        <time>2017-01-21T16:45:03Z</time>
      </trkpt>
      <trkpt lat="49.44567" lon="0.96399">
        <ele>12</ele>
        <time>2017-01-21T16:45:19Z</time>
      </trkpt>
      <trkpt lat="49.44561" lon="0.96392">
        <ele>12</ele>
        <time>2017-01-21T16:45:19Z</time>
      </trkpt>
      <trkpt lat="49.44557" lon="0.96391">
        <ele>12</ele>
        <time>2017-01-21T16:45:19Z</time>
      </trkpt>
      <trkpt lat="49.44553" lon="0.96387">
        <ele>12</ele>
        <time>2017-01-21T16:45:19Z</time>
      </trkpt>
      <trkpt lat="49.44536" lon="0.96371">
        <ele>11</ele>
        <time>2017-01-21T16:45:46Z</time>
      </trkpt>
      <trkpt lat="49.44535" lon="0.9637">
        <ele>11</ele>
        <time>2017-01-21T16:45:46Z</time>
      </trkpt>
      <trkpt lat="49.44529" lon="0.96365">
        <ele>11</ele>
        <time>2017-01-21T16:45:46Z</time>
      </trkpt>
      <trkpt lat="49.44525" lon="0.96361">
        <ele>11</ele>
        <time>2017-01-21T16:45:46Z</time>
      </trkpt>
      <trkpt lat="49.44522" lon="0.96359">
        <ele>11</ele>
        <time>2017-01-21T16:46:01Z</time>
      </trkpt>
      <trkpt lat="49.44517" lon="0.96356">
        <ele>11</ele>
        <time>2017-01-21T16:46:02Z</time>
      </trkpt>
      <trkpt lat="49.44513" lon="0.96354">
        <ele>11</ele>
        <time>2017-01-21T16:46:02Z</time>
      </trkpt>
      <trkpt lat="49.44508" lon="0.96349">
        <ele>11</ele>
        <time>2017-01-21T16:46:02Z</time>
      </trkpt>
      <trkpt lat="49.44501" lon="0.96347">
        <ele>11</ele>
        <time>2017-01-21T16:46:21Z</time>
      </trkpt>
      <trkpt lat="49.44497" lon="0.96344">
        <ele>11</ele>
        <time>2017-01-21T16:46:21Z</time>
      </trkpt>
      <trkpt lat="49.44493" lon="0.96341">
        <ele>11</ele>
        <time>2017-01-21T16:46:21Z</time>
      </trkpt>
      <trkpt lat="49.44487" lon="0.96338">
        <ele>11</ele>
        <time>2017-01-21T16:46:21Z</time>
      </trkpt>
      <trkpt lat="49.44483" lon="0.96335">
        <ele>11</ele>
        <time>2017-01-21T16:46:37Z</time>
      </trkpt>
      <trkpt lat="49.44478" lon="0.96333">
        <ele>11</ele>
        <time>2017-01-21T16:46:37Z</time>
      </trkpt>
      <trkpt lat="49.44472" lon="0.96329">
        <ele>11</ele>
        <time>2017-01-21T16:46:37Z</time>
      </trkpt>
      <trkpt lat="49.44467" lon="0.96326">
        <ele>11</ele>
        <time>2017-01-21T16:46:37Z</time>
      </trkpt>
      <trkpt lat="49.44462" lon="0.9632">
        <ele>11</ele>
        <time>2017-01-21T16:46:53Z</time>
      </trkpt>
      <trkpt lat="49.44458" lon="0.96318">
        <ele>15</ele>
        <time>2017-01-21T16:46:53Z</time>
      </trkpt>
      <trkpt lat="49.44452" lon="0.96312">
        <ele>15</ele>
        <time>2017-01-21T16:46:54Z</time>
      </trkpt>
      <trkpt lat="49.44448" lon="0.96309">
        <ele>15</ele>
        <time>2017-01-21T16:46:54Z</time>
      </trkpt>
      <trkpt lat="49.44444" lon="0.96303">
        <ele>15</ele>
        <time>2017-01-21T16:47:09Z</time>
      </trkpt>
      <trkpt lat="49.44441" lon="0.96298">
        <ele>15</ele>
        <time>2017-01-21T16:47:09Z</time>
      </trkpt>
      <trkpt lat="49.44438" lon="0.9629">
        <ele>11</ele>
        <time>2017-01-21T16:47:09Z</time>
      </trkpt>
      <trkpt lat="49.44438" lon="0.96284">
        <ele>11</ele>
        <time>2017-01-21T16:47:09Z</time>
      </trkpt>
    </trkseg>
  </trk>
</gpx>